Wetterdaten: Montag, 09.09.2019
Datum Zeit Temp. A. Feuchte A. Luftdruck Regen Wind Richtung Richtung Sonnenschein ET UV Solar Taupunkt Windchill Windböen
09.09.2019 00:00 6,8 °C 95 % 1015,5 hPa 0,0 mm 0,1 km/h (0 Bft) S 188 ° 0 min 0,000 mm 0,0 UV-I 0 W/m² 6,1 °C 6,8 °C 1,6 km/h (1 Bft)
09.09.2019 00:01 6,8 °C 95 % 1015,5 hPa 0,0 mm 2,3 km/h (1 Bft) S 188 ° 0 min 0,000 mm 0,0 UV-I 0 W/m² 6,1 °C 6,8 °C 4,8 km/h (1 Bft)
09.09.2019 00:02 6,8 °C 95 % 1015,5 hPa 0,0 mm 2,3 km/h (1 Bft) S-SO 162 ° 0 min 0,000 mm 0,0 UV-I 0 W/m² 6,1 °C 6,8 °C 6,4 km/h (2 Bft)
09.09.2019 00:03 6,8 °C 95 % 1015,5 hPa 0,0 mm 1,8 km/h (1 Bft) S-SO 162 ° 0 min 0,000 mm 0,0 UV-I 0 W/m² 6,1 °C 6,8 °C 3,2 km/h (1 Bft)
09.09.2019 00:04 6,9 °C 95 % 1015,5 hPa 0,0 mm 0,4 km/h (0 Bft) S-SO 162 ° 0 min 0,000 mm 0,0 UV-I 0 W/m² 6,2 °C 6,9 °C 1,6 km/h (1 Bft)
09.09.2019 00:05 6,9 °C 95 % 1015,4 hPa 0,0 mm 0,4 km/h (0 Bft) S-SO 162 ° 0 min 0,000 mm 0,0 UV-I 0 W/m² 6,2 °C 6,9 °C 1,6 km/h (1 Bft)
09.09.2019 00:06 6,9 °C 95 % 1015,5 hPa 0,0 mm 0,0 km/h (0 Bft) S-SO 162 ° 0 min 0,000 mm 0,0 UV-I 0 W/m² 6,2 °C 6,9 °C 0,0 km/h (0 Bft)
09.09.2019 00:07 6,9 °C 95 % 1015,5 hPa 0,0 mm 2,1 km/h (1 Bft) W-SW 244 ° 0 min 0,000 mm 0,0 UV-I 0 W/m² 6,2 °C 6,9 °C 4,8 km/h (1 Bft)
09.09.2019 00:08 6,9 °C 95 % 1015,4 hPa 0,0 mm 2,0 km/h (1 Bft) W-SW 244 ° 0 min 0,000 mm 0,0 UV-I 0 W/m² 6,2 °C 6,9 °C 4,8 km/h (1 Bft)
09.09.2019 00:09 6,9 °C 95 % 1015,4 hPa 0,0 mm 0,0 km/h (0 Bft) W-SW 244 ° 0 min 0,000 mm 0,0 UV-I 0 W/m² 6,2 °C 6,9 °C 0,0 km/h (0 Bft)
09.09.2019 00:10 6,9 °C 95 % 1015,4 hPa 0,0 mm 0,6 km/h (0 Bft) W-SW 250 ° 0 min 0,000 mm 0,0 UV-I 0 W/m² 6,2 °C 6,9 °C 3,2 km/h (1 Bft)
09.09.2019 00:11 6,9 °C 95 % 1015,4 hPa 0,0 mm 1,4 km/h (1 Bft) SW 236 ° 0 min 0,000 mm 0,0 UV-I 0 W/m² 6,2 °C 6,9 °C 4,8 km/h (1 Bft)
09.09.2019 00:12 6,9 °C 95 % 1015,4 hPa 0,0 mm 0,0 km/h (0 Bft) SW 236 ° 0 min 0,000 mm 0,0 UV-I 0 W/m² 6,2 °C 6,9 °C 0,0 km/h (0 Bft)
09.09.2019 00:13 6,9 °C 95 % 1015,4 hPa 0,0 mm 2,2 km/h (1 Bft) W 262 ° 0 min 0,000 mm 0,0 UV-I 0 W/m² 6,2 °C 6,9 °C 4,8 km/h (1 Bft)
09.09.2019 00:14 6,9 °C 95 % 1015,3 hPa 0,0 mm 0,2 km/h (0 Bft) W 261 ° 0 min 0,000 mm 0,0 UV-I 0 W/m² 6,2 °C 6,9 °C 1,6 km/h (1 Bft)
09.09.2019 00:15 6,9 °C 95 % 1015,3 hPa 0,0 mm 0,1 km/h (0 Bft) W 261 ° 0 min 0,000 mm 0,0 UV-I 0 W/m² 6,2 °C 6,9 °C 1,6 km/h (1 Bft)
09.09.2019 00:16 7,0 °C 95 % 1015,3 hPa 0,0 mm 0,9 km/h (0 Bft) SW 215 ° 0 min 0,000 mm 0,0 UV-I 0 W/m² 6,3 °C 7,0 °C 3,2 km/h (1 Bft)
09.09.2019 00:17 7,0 °C 95 % 1015,3 hPa 0,0 mm 0,0 km/h (0 Bft) SW 215 ° 0 min 0,000 mm 0,0 UV-I 0 W/m² 6,3 °C 7,0 °C 0,0 km/h (0 Bft)
09.09.2019 00:18 7,0 °C 95 % 1015,3 hPa 0,0 mm 0,5 km/h (0 Bft) SW 214 ° 0 min 0,000 mm 0,0 UV-I 0 W/m² 6,3 °C 7,0 °C 3,2 km/h (1 Bft)
09.09.2019 00:19 7,0 °C 95 % 1015,3 hPa 0,0 mm 0,5 km/h (0 Bft) SW 214 ° 0 min 0,000 mm 0,0 UV-I 0 W/m² 6,3 °C 7,0 °C 3,2 km/h (1 Bft)
09.09.2019 00:20 7,0 °C 95 % 1015,2 hPa 0,0 mm 0,0 km/h (0 Bft) SW 214 ° 0 min 0,000 mm 0,0 UV-I 0 W/m² 6,3 °C 7,0 °C 0,0 km/h (0 Bft)
09.09.2019 00:21 7,0 °C 95 % 1015,2 hPa 0,0 mm 0,0 km/h (0 Bft) SW 215 ° 0 min 0,000 mm 0,0 UV-I 0 W/m² 6,3 °C 7,0 °C 0,0 km/h (0 Bft)
09.09.2019 00:22 7,0 °C 95 % 1015,1 hPa 0,0 mm 0,7 km/h (0 Bft) SW 215 ° 0 min 0,000 mm 0,0 UV-I 0 W/m² 6,3 °C 7,0 °C 1,6 km/h (1 Bft)
09.09.2019 00:23 7,1 °C 95 % 1015,1 hPa 0,0 mm 0,0 km/h (0 Bft) SW 215 ° 0 min 0,000 mm 0,0 UV-I 0 W/m² 6,4 °C 7,1 °C 0,0 km/h (0 Bft)
09.09.2019 00:24 7,1 °C 95 % 1015,1 hPa 0,0 mm 1,2 km/h (1 Bft) SW 216 ° 0 min 0,000 mm 0,0 UV-I 0 W/m² 6,4 °C 7,1 °C 4,8 km/h (1 Bft)
09.09.2019 00:25 7,0 °C 95 % 1015,1 hPa 0,0 mm 1,7 km/h (1 Bft) S 189 ° 0 min 0,000 mm 0,0 UV-I 0 W/m² 6,3 °C 7,0 °C 3,2 km/h (1 Bft)
09.09.2019 00:26 7,1 °C 95 % 1015,0 hPa 0,0 mm 2,2 km/h (1 Bft) W-SW 239 ° 0 min 0,000 mm 0,0 UV-I 0 W/m² 6,4 °C 7,1 °C 4,8 km/h (1 Bft)
09.09.2019 00:27 7,1 °C 95 % 1015,0 hPa 0,0 mm 0,0 km/h (0 Bft) SW 228 ° 0 min 0,000 mm 0,0 UV-I 0 W/m² 6,4 °C 7,1 °C 0,0 km/h (0 Bft)
09.09.2019 00:28 7,1 °C 95 % 1015,0 hPa 0,0 mm 0,0 km/h (0 Bft) SW 225 ° 0 min 0,000 mm 0,0 UV-I 0 W/m² 6,4 °C 7,1 °C 0,0 km/h (0 Bft)
09.09.2019 00:29 7,1 °C 95 % 1015,0 hPa 0,0 mm 1,3 km/h (1 Bft) SW 236 ° 0 min 0,000 mm 0,0 UV-I 0 W/m² 6,4 °C 7,1 °C 3,2 km/h (1 Bft)
09.09.2019 00:30 7,1 °C 95 % 1015,0 hPa 0,0 mm 0,3 km/h (0 Bft) W-SW 237 ° 0 min 0,000 mm 0,0 UV-I 0 W/m² 6,4 °C 7,1 °C 1,6 km/h (1 Bft)
09.09.2019 00:31 7,1 °C 95 % 1015,0 hPa 0,0 mm 0,5 km/h (0 Bft) W-SW 246 ° 0 min 0,000 mm 0,0 UV-I 0 W/m² 6,4 °C 7,1 °C 3,2 km/h (1 Bft)
09.09.2019 00:32 7,1 °C 95 % 1014,9 hPa 0,0 mm 0,2 km/h (0 Bft) W-SW 246 ° 0 min 0,000 mm 0,0 UV-I 0 W/m² 6,4 °C 7,1 °C 1,6 km/h (1 Bft)
09.09.2019 00:33 7,1 °C 95 % 1014,9 hPa 0,0 mm 0,1 km/h (0 Bft) W-SW 246 ° 0 min 0,000 mm 0,0 UV-I 0 W/m² 6,4 °C 7,1 °C 1,6 km/h (1 Bft)
09.09.2019 00:34 7,1 °C 95 % 1014,9 hPa 0,0 mm 0,2 km/h (0 Bft) W-SW 246 ° 0 min 0,000 mm 0,0 UV-I 0 W/m² 6,4 °C 7,1 °C 1,6 km/h (1 Bft)
09.09.2019 00:35 7,1 °C 95 % 1014,9 hPa 0,0 mm 0,5 km/h (0 Bft) W 262 ° 0 min 0,000 mm 0,0 UV-I 0 W/m² 6,4 °C 7,1 °C 4,8 km/h (1 Bft)
09.09.2019 00:36 7,1 °C 95 % 1014,9 hPa 0,0 mm 2,8 km/h (1 Bft) W 270 ° 0 min 0,000 mm 0,0 UV-I 0 W/m² 6,4 °C 7,1 °C 4,8 km/h (1 Bft)
09.09.2019 00:37 7,1 °C 95 % 1014,8 hPa 0,0 mm 1,0 km/h (0 Bft) W 270 ° 0 min 0,000 mm 0,0 UV-I 0 W/m² 6,4 °C 7,1 °C 1,6 km/h (1 Bft)
09.09.2019 00:38 7,1 °C 95 % 1014,8 hPa 0,0 mm 1,4 km/h (1 Bft) W 270 ° 0 min 0,000 mm 0,0 UV-I 0 W/m² 6,4 °C 7,1 °C 3,2 km/h (1 Bft)
09.09.2019 00:39 7,1 °C 95 % 1014,8 hPa 0,0 mm 2,4 km/h (1 Bft) W 275 ° 0 min 0,000 mm 0,0 UV-I 0 W/m² 6,4 °C 7,1 °C 4,8 km/h (1 Bft)
09.09.2019 00:40 7,1 °C 95 % 1014,8 hPa 0,0 mm 0,5 km/h (0 Bft) W-SW 246 ° 0 min 0,000 mm 0,0 UV-I 0 W/m² 6,4 °C 7,1 °C 3,2 km/h (1 Bft)
09.09.2019 00:41 7,1 °C 95 % 1014,8 hPa 0,0 mm 1,3 km/h (1 Bft) W-SW 247 ° 0 min 0,000 mm 0,0 UV-I 0 W/m² 6,4 °C 7,1 °C 3,2 km/h (1 Bft)
09.09.2019 00:42 7,1 °C 95 % 1014,8 hPa 0,0 mm 1,5 km/h (1 Bft) W-SW 247 ° 0 min 0,000 mm 0,0 UV-I 0 W/m² 6,4 °C 7,1 °C 3,2 km/h (1 Bft)
09.09.2019 00:43 7,1 °C 95 % 1014,8 hPa 0,0 mm 0,0 km/h (0 Bft) W-SW 247 ° 0 min 0,000 mm 0,0 UV-I 0 W/m² 6,4 °C 7,1 °C 0,0 km/h (0 Bft)
09.09.2019 00:44 7,1 °C 95 % 1014,8 hPa 0,0 mm 0,2 km/h (0 Bft) W-SW 247 ° 0 min 0,000 mm 0,0 UV-I 0 W/m² 6,4 °C 7,1 °C 1,6 km/h (1 Bft)
09.09.2019 00:45 7,1 °C 95 % 1014,8 hPa 0,0 mm 0,0 km/h (0 Bft) W-SW 247 ° 0 min 0,000 mm 0,0 UV-I 0 W/m² 6,4 °C 7,1 °C 0,0 km/h (0 Bft)
09.09.2019 00:46 7,1 °C 95 % 1014,8 hPa 0,0 mm 0,0 km/h (0 Bft) W-SW 246 ° 0 min 0,000 mm 0,0 UV-I 0 W/m² 6,4 °C 7,1 °C 0,0 km/h (0 Bft)
09.09.2019 00:47 7,1 °C 95 % 1014,8 hPa 0,0 mm 0,0 km/h (0 Bft) W-SW 247 ° 0 min 0,000 mm 0,0 UV-I 0 W/m² 6,4 °C 7,1 °C 0,0 km/h (0 Bft)
09.09.2019 00:48 7,1 °C 95 % 1014,8 hPa 0,0 mm 0,0 km/h (0 Bft) W-SW 246 ° 0 min 0,000 mm 0,0 UV-I 0 W/m² 6,4 °C 7,1 °C 0,0 km/h (0 Bft)
09.09.2019 00:49 7,1 °C 95 % 1014,8 hPa 0,0 mm 0,0 km/h (0 Bft) W-SW 246 ° 0 min 0,000 mm 0,0 UV-I 0 W/m² 6,4 °C 7,1 °C 0,0 km/h (0 Bft)
09.09.2019 00:50 7,1 °C 95 % 1014,8 hPa 0,0 mm 0,0 km/h (0 Bft) W-SW 246 ° 0 min 0,000 mm 0,0 UV-I 0 W/m² 6,4 °C 7,1 °C 0,0 km/h (0 Bft)
09.09.2019 00:51 7,1 °C 95 % 1014,8 hPa 0,2 mm 0,9 km/h (0 Bft) W-SW 246 ° 0 min 0,000 mm 0,0 UV-I 0 W/m² 6,4 °C 7,1 °C 1,6 km/h (1 Bft)
09.09.2019 00:52 7,1 °C 95 % 1014,8 hPa 0,0 mm 1,2 km/h (1 Bft) W-SW 246 ° 0 min 0,000 mm 0,0 UV-I 0 W/m² 6,4 °C 7,1 °C 1,6 km/h (1 Bft)
09.09.2019 00:53 7,1 °C 95 % 1014,8 hPa 0,0 mm 2,8 km/h (1 Bft) S-SW 194 ° 0 min 0,000 mm 0,0 UV-I 0 W/m² 6,4 °C 7,1 °C 6,4 km/h (2 Bft)
09.09.2019 00:54 7,1 °C 95 % 1014,8 hPa 0,0 mm 0,5 km/h (0 Bft) W-SW 240 ° 0 min 0,000 mm 0,0 UV-I 0 W/m² 6,4 °C 7,1 °C 3,2 km/h (1 Bft)
09.09.2019 00:55 7,1 °C 95 % 1014,8 hPa 0,0 mm 0,3 km/h (0 Bft) W-SW 240 ° 0 min 0,000 mm 0,0 UV-I 0 W/m² 6,4 °C 7,1 °C 1,6 km/h (1 Bft)
09.09.2019 00:56 7,1 °C 95 % 1014,8 hPa 0,0 mm 1,1 km/h (1 Bft) S-SW 201 ° 0 min 0,000 mm 0,0 UV-I 0 W/m² 6,4 °C 7,1 °C 3,2 km/h (1 Bft)
09.09.2019 00:57 7,1 °C 95 % 1014,7 hPa 0,0 mm 0,9 km/h (0 Bft) S-SW 203 ° 0 min 0,000 mm 0,0 UV-I 0 W/m² 6,4 °C 7,1 °C 3,2 km/h (1 Bft)
09.09.2019 00:58 7,1 °C 95 % 1014,6 hPa 0,0 mm 1,9 km/h (1 Bft) S-SW 203 ° 0 min 0,000 mm 0,0 UV-I 0 W/m² 6,4 °C 7,1 °C 3,2 km/h (1 Bft)
09.09.2019 00:59 7,1 °C 95 % 1014,6 hPa 0,0 mm 0,0 km/h (0 Bft) S-SW 206 ° 0 min 0,000 mm 0,0 UV-I 0 W/m² 6,4 °C 7,1 °C 0,0 km/h (0 Bft)
09.09.2019 01:00 7,1 °C 95 % 1014,6 hPa 0,0 mm 1,7 km/h (1 Bft) W-SW 248 ° 0 min 0,000 mm 0,0 UV-I 0 W/m² 6,4 °C 7,1 °C 4,8 km/h (1 Bft)
09.09.2019 01:01 7,2 °C 95 % 1014,6 hPa 0,0 mm 1,3 km/h (1 Bft) W-SW 248 ° 0 min 0,000 mm 0,0 UV-I 0 W/m² 6,5 °C 7,2 °C 3,2 km/h (1 Bft)
09.09.2019 01:02 7,1 °C 95 % 1014,6 hPa 0,0 mm 2,1 km/h (1 Bft) W 261 ° 0 min 0,000 mm 0,0 UV-I 0 W/m² 6,4 °C 7,1 °C 4,8 km/h (1 Bft)
09.09.2019 01:03 7,2 °C 95 % 1014,6 hPa 0,0 mm 0,6 km/h (0 Bft) W 259 ° 0 min 0,000 mm 0,0 UV-I 0 W/m² 6,5 °C 7,2 °C 3,2 km/h (1 Bft)
09.09.2019 01:04 7,1 °C 95 % 1014,5 hPa 0,0 mm 1,6 km/h (1 Bft) W 259 ° 0 min 0,000 mm 0,0 UV-I 0 W/m² 6,4 °C 7,1 °C 4,8 km/h (1 Bft)
09.09.2019 01:05 7,1 °C 95 % 1014,5 hPa 0,0 mm 1,7 km/h (1 Bft) W-SW 257 ° 0 min 0,000 mm 0,0 UV-I 0 W/m² 6,4 °C 7,1 °C 3,2 km/h (1 Bft)
09.09.2019 01:06 7,2 °C 95 % 1014,6 hPa 0,0 mm 1,6 km/h (1 Bft) W-SW 257 ° 0 min 0,000 mm 0,0 UV-I 0 W/m² 6,5 °C 7,2 °C 3,2 km/h (1 Bft)
09.09.2019 01:07 7,2 °C 95 % 1014,5 hPa 0,0 mm 0,0 km/h (0 Bft) W-SW 257 ° 0 min 0,000 mm 0,0 UV-I 0 W/m² 6,5 °C 7,2 °C 0,0 km/h (0 Bft)
09.09.2019 01:08 7,2 °C 95 % 1014,5 hPa 0,0 mm 0,4 km/h (0 Bft) W-SW 256 ° 0 min 0,000 mm 0,0 UV-I 0 W/m² 6,5 °C 7,2 °C 1,6 km/h (1 Bft)
09.09.2019 01:09 7,2 °C 95 % 1014,5 hPa 0,0 mm 1,1 km/h (1 Bft) W-SW 257 ° 0 min 0,000 mm 0,0 UV-I 0 W/m² 6,5 °C 7,2 °C 4,8 km/h (1 Bft)
09.09.2019 01:10 7,2 °C 95 % 1014,5 hPa 0,0 mm 3,4 km/h (1 Bft) W-SW 254 ° 0 min 0,000 mm 0,0 UV-I 0 W/m² 6,5 °C 7,2 °C 4,8 km/h (1 Bft)
09.09.2019 01:11 7,2 °C 95 % 1014,5 hPa 0,0 mm 0,6 km/h (0 Bft) W-SW 254 ° 0 min 0,000 mm 0,0 UV-I 0 W/m² 6,5 °C 7,2 °C 1,6 km/h (1 Bft)
09.09.2019 01:12 7,2 °C 95 % 1014,5 hPa 0,0 mm 0,0 km/h (0 Bft) W-SW 254 ° 0 min 0,000 mm 0,0 UV-I 0 W/m² 6,5 °C 7,2 °C 0,0 km/h (0 Bft)
09.09.2019 01:13 7,2 °C 95 % 1014,5 hPa 0,0 mm 0,0 km/h (0 Bft) W-SW 254 ° 0 min 0,000 mm 0,0 UV-I 0 W/m² 6,5 °C 7,2 °C 0,0 km/h (0 Bft)
09.09.2019 01:14 7,2 °C 95 % 1014,5 hPa 0,0 mm 0,2 km/h (0 Bft) W-SW 254 ° 0 min 0,000 mm 0,0 UV-I 0 W/m² 6,5 °C 7,2 °C 1,6 km/h (1 Bft)
09.09.2019 01:15 7,2 °C 95 % 1014,5 hPa 0,0 mm 0,7 km/h (0 Bft) W-SW 254 ° 0 min 0,000 mm 0,0 UV-I 0 W/m² 6,5 °C 7,2 °C 1,6 km/h (1 Bft)
09.09.2019 01:16 7,2 °C 95 % 1014,5 hPa 0,0 mm 0,0 km/h (0 Bft) W-SW 254 ° 0 min 0,000 mm 0,0 UV-I 0 W/m² 6,5 °C 7,2 °C 0,0 km/h (0 Bft)
09.09.2019 01:17 7,2 °C 95 % 1014,5 hPa 0,0 mm 0,0 km/h (0 Bft) W-SW 254 ° 0 min 0,000 mm 0,0 UV-I 0 W/m² 6,5 °C 7,2 °C 0,0 km/h (0 Bft)
09.09.2019 01:18 7,2 °C 95 % 1014,4 hPa 0,0 mm 0,0 km/h (0 Bft) W-SW 254 ° 0 min 0,000 mm 0,0 UV-I 0 W/m² 6,5 °C 7,2 °C 0,0 km/h (0 Bft)
09.09.2019 01:19 7,2 °C 95 % 1014,4 hPa 0,0 mm 0,0 km/h (0 Bft) W-SW 254 ° 0 min 0,000 mm 0,0 UV-I 0 W/m² 6,5 °C 7,2 °C 0,0 km/h (0 Bft)
09.09.2019 01:20 7,2 °C 95 % 1014,4 hPa 0,0 mm 1,5 km/h (1 Bft) W-SW 253 ° 0 min 0,000 mm 0,0 UV-I 0 W/m² 6,5 °C 7,2 °C 3,2 km/h (1 Bft)
09.09.2019 01:21 7,2 °C 95 % 1014,5 hPa 0,0 mm 0,6 km/h (0 Bft) W-SW 253 ° 0 min 0,000 mm 0,0 UV-I 0 W/m² 6,5 °C 7,2 °C 3,2 km/h (1 Bft)
09.09.2019 01:22 7,2 °C 95 % 1014,4 hPa 0,0 mm 0,0 km/h (0 Bft) W-SW 257 ° 0 min 0,000 mm 0,0 UV-I 0 W/m² 6,5 °C 7,2 °C 0,0 km/h (0 Bft)
09.09.2019 01:23 7,2 °C 95 % 1014,4 hPa 0,0 mm 0,0 km/h (0 Bft) W-SW 257 ° 0 min 0,000 mm 0,0 UV-I 0 W/m² 6,5 °C 7,2 °C 0,0 km/h (0 Bft)
09.09.2019 01:24 7,2 °C 95 % 1014,4 hPa 0,0 mm 1,8 km/h (1 Bft) W-SW 246 ° 0 min 0,000 mm 0,0 UV-I 0 W/m² 6,5 °C 7,2 °C 3,2 km/h (1 Bft)
09.09.2019 01:25 7,1 °C 95 % 1014,4 hPa 0,0 mm 1,0 km/h (0 Bft) W-SW 246 ° 0 min 0,000 mm 0,0 UV-I 0 W/m² 6,4 °C 7,1 °C 3,2 km/h (1 Bft)
09.09.2019 01:26 7,2 °C 95 % 1014,4 hPa 0,0 mm 0,0 km/h (0 Bft) W-SW 245 ° 0 min 0,000 mm 0,0 UV-I 0 W/m² 6,5 °C 7,2 °C 0,0 km/h (0 Bft)
09.09.2019 01:27 7,1 °C 95 % 1014,4 hPa 0,0 mm 0,2 km/h (0 Bft) W-SW 245 ° 0 min 0,000 mm 0,0 UV-I 0 W/m² 6,4 °C 7,1 °C 1,6 km/h (1 Bft)
09.09.2019 01:28 7,1 °C 95 % 1014,4 hPa 0,0 mm 0,1 km/h (0 Bft) W-SW 245 ° 0 min 0,000 mm 0,0 UV-I 0 W/m² 6,4 °C 7,1 °C 1,6 km/h (1 Bft)
09.09.2019 01:29 7,2 °C 95 % 1014,4 hPa 0,0 mm 0,3 km/h (0 Bft) W-SW 255 ° 0 min 0,000 mm 0,0 UV-I 0 W/m² 6,5 °C 7,2 °C 1,6 km/h (1 Bft)
09.09.2019 01:30 7,2 °C 95 % 1014,4 hPa 0,0 mm 0,0 km/h (0 Bft) W-SW 255 ° 0 min 0,000 mm 0,0 UV-I 0 W/m² 6,5 °C 7,2 °C 0,0 km/h (0 Bft)
09.09.2019 01:31 7,1 °C 95 % 1014,3 hPa 0,0 mm 0,0 km/h (0 Bft) W-SW 255 ° 0 min 0,000 mm 0,0 UV-I 0 W/m² 6,4 °C 7,1 °C 0,0 km/h (0 Bft)
09.09.2019 01:32 7,2 °C 95 % 1014,3 hPa 0,0 mm 0,0 km/h (0 Bft) W-SW 255 ° 0 min 0,000 mm 0,0 UV-I 0 W/m² 6,5 °C 7,2 °C 0,0 km/h (0 Bft)
09.09.2019 01:33 7,2 °C 95 % 1014,2 hPa 0,0 mm 0,0 km/h (0 Bft) W-SW 255 ° 0 min 0,000 mm 0,0 UV-I 0 W/m² 6,5 °C 7,2 °C 0,0 km/h (0 Bft)
09.09.2019 01:34 7,2 °C 95 % 1014,2 hPa 0,0 mm 5,4 km/h (1 Bft) W 275 ° 0 min 0,000 mm 0,0 UV-I 0 W/m² 6,5 °C 6,4 °C 9,7 km/h (2 Bft)
09.09.2019 01:35 7,2 °C 95 % 1014,2 hPa 0,0 mm 4,1 km/h (1 Bft) W 269 ° 0 min 0,000 mm 0,0 UV-I 0 W/m² 6,5 °C 7,2 °C 6,4 km/h (2 Bft)
09.09.2019 01:36 7,2 °C 95 % 1014,1 hPa 0,0 mm 2,9 km/h (1 Bft) W-SW 238 ° 0 min 0,000 mm 0,0 UV-I 0 W/m² 6,5 °C 7,2 °C 3,2 km/h (1 Bft)
09.09.2019 01:37 7,2 °C 95 % 1014,1 hPa 0,0 mm 3,2 km/h (1 Bft) W 260 ° 0 min 0,000 mm 0,0 UV-I 0 W/m² 6,5 °C 7,2 °C 4,8 km/h (1 Bft)
09.09.2019 01:38 7,2 °C 95 % 1014,1 hPa 0,0 mm 3,5 km/h (1 Bft) W 270 ° 0 min 0,000 mm 0,0 UV-I 0 W/m² 6,5 °C 7,2 °C 4,8 km/h (1 Bft)
09.09.2019 01:39 7,2 °C 95 % 1014,1 hPa 0,0 mm 2,0 km/h (1 Bft) W 271 ° 0 min 0,000 mm 0,0 UV-I 0 W/m² 6,5 °C 7,2 °C 3,2 km/h (1 Bft)
09.09.2019 01:40 7,2 °C 95 % 1014,0 hPa 0,0 mm 5,9 km/h (2 Bft) W-SW 239 ° 0 min 0,000 mm 0,0 UV-I 0 W/m² 6,5 °C 6,3 °C 11,3 km/h (2 Bft)
09.09.2019 01:41 7,2 °C 95 % 1014,0 hPa 0,0 mm 3,7 km/h (1 Bft) W 265 ° 0 min 0,000 mm 0,0 UV-I 0 W/m² 6,5 °C 7,2 °C 4,8 km/h (1 Bft)
09.09.2019 01:42 7,2 °C 95 % 1014,0 hPa 0,0 mm 0,0 km/h (0 Bft) W 264 ° 0 min 0,000 mm 0,0 UV-I 0 W/m² 6,5 °C 7,2 °C 0,0 km/h (0 Bft)
09.09.2019 01:43 7,1 °C 95 % 1014,0 hPa 0,0 mm 0,0 km/h (0 Bft) W 264 ° 0 min 0,000 mm 0,0 UV-I 0 W/m² 6,4 °C 7,1 °C 0,0 km/h (0 Bft)
09.09.2019 01:44 7,2 °C 95 % 1014,0 hPa 0,0 mm 1,6 km/h (1 Bft) W 271 ° 0 min 0,000 mm 0,0 UV-I 0 W/m² 6,5 °C 7,2 °C 4,8 km/h (1 Bft)
09.09.2019 01:45 7,2 °C 95 % 1014,0 hPa 0,0 mm 0,8 km/h (0 Bft) SW 227 ° 0 min 0,000 mm 0,0 UV-I 0 W/m² 6,5 °C 7,2 °C 3,2 km/h (1 Bft)
09.09.2019 01:46 7,2 °C 95 % 1014,0 hPa 0,0 mm 0,4 km/h (0 Bft) SW 227 ° 0 min 0,000 mm 0,0 UV-I 0 W/m² 6,5 °C 7,2 °C 1,6 km/h (1 Bft)
09.09.2019 01:47 7,1 °C 95 % 1014,1 hPa 0,0 mm 1,8 km/h (1 Bft) W-SW 240 ° 0 min 0,000 mm 0,0 UV-I 0 W/m² 6,4 °C 7,1 °C 6,4 km/h (2 Bft)
09.09.2019 01:48 7,2 °C 95 % 1014,1 hPa 0,0 mm 3,4 km/h (1 Bft) SW 217 ° 0 min 0,000 mm 0,0 UV-I 0 W/m² 6,5 °C 7,2 °C 6,4 km/h (2 Bft)
09.09.2019 01:49 7,2 °C 95 % 1014,1 hPa 0,0 mm 0,9 km/h (0 Bft) S-SW 200 ° 0 min 0,000 mm 0,0 UV-I 0 W/m² 6,5 °C 7,2 °C 3,2 km/h (1 Bft)
09.09.2019 01:50 7,2 °C 95 % 1014,1 hPa 0,0 mm 0,1 km/h (0 Bft) S-SW 200 ° 0 min 0,000 mm 0,0 UV-I 0 W/m² 6,5 °C 7,2 °C 1,6 km/h (1 Bft)
09.09.2019 01:51 7,2 °C 95 % 1014,2 hPa 0,0 mm 3,2 km/h (1 Bft) W-SW 239 ° 0 min 0,000 mm 0,0 UV-I 0 W/m² 6,5 °C 7,2 °C 6,4 km/h (2 Bft)
09.09.2019 01:52 7,2 °C 95 % 1014,2 hPa 0,0 mm 1,2 km/h (1 Bft) SW 236 ° 0 min 0,000 mm 0,0 UV-I 0 W/m² 6,5 °C 7,2 °C 3,2 km/h (1 Bft)
09.09.2019 01:53 7,2 °C 95 % 1014,2 hPa 0,0 mm 0,7 km/h (0 Bft) SO 141 ° 0 min 0,000 mm 0,0 UV-I 0 W/m² 6,5 °C 7,2 °C 3,2 km/h (1 Bft)
09.09.2019 01:54 7,2 °C 95 % 1014,3 hPa 0,0 mm 0,8 km/h (0 Bft) S-SW 210 ° 0 min 0,000 mm 0,0 UV-I 0 W/m² 6,5 °C 7,2 °C 1,6 km/h (1 Bft)
09.09.2019 01:55 7,2 °C 95 % 1014,3 hPa 0,0 mm 0,7 km/h (0 Bft) S-SW 210 ° 0 min 0,000 mm 0,0 UV-I 0 W/m² 6,5 °C 7,2 °C 3,2 km/h (1 Bft)
09.09.2019 01:56 7,2 °C 95 % 1014,4 hPa 0,0 mm 0,7 km/h (0 Bft) S-SW 213 ° 0 min 0,000 mm 0,0 UV-I 0 W/m² 6,5 °C 7,2 °C 3,2 km/h (1 Bft)
09.09.2019 01:57 7,2 °C 95 % 1014,5 hPa 0,0 mm 2,2 km/h (1 Bft) S-SW 192 ° 0 min 0,000 mm 0,0 UV-I 0 W/m² 6,5 °C 7,2 °C 4,8 km/h (1 Bft)
09.09.2019 01:58 7,2 °C 95 % 1014,5 hPa 0,2 mm 2,5 km/h (1 Bft) W-SW 243 ° 0 min 0,000 mm 0,0 UV-I 0 W/m² 6,5 °C 7,2 °C 4,8 km/h (1 Bft)
09.09.2019 01:59 7,2 °C 95 % 1014,6 hPa 0,0 mm 3,4 km/h (1 Bft) W-SW 255 ° 0 min 0,000 mm 0,0 UV-I 0 W/m² 6,5 °C 7,2 °C 4,8 km/h (1 Bft)
09.09.2019 02:00 7,2 °C 95 % 1014,6 hPa 0,0 mm 0,7 km/h (0 Bft) S-SO 159 ° 0 min 0,000 mm 0,0 UV-I 0 W/m² 6,5 °C 7,2 °C 3,2 km/h (1 Bft)
09.09.2019 02:01 7,3 °C 95 % 1014,7 hPa 0,0 mm 1,2 km/h (1 Bft) SW 225 ° 0 min 0,000 mm 0,0 UV-I 0 W/m² 6,6 °C 7,3 °C 3,2 km/h (1 Bft)
09.09.2019 02:02 7,3 °C 95 % 1014,7 hPa 0,0 mm 0,0 km/h (0 Bft) SW 225 ° 0 min 0,000 mm 0,0 UV-I 0 W/m² 6,6 °C 7,3 °C 0,0 km/h (0 Bft)
09.09.2019 02:03 7,3 °C 95 % 1014,7 hPa 0,0 mm 1,0 km/h (0 Bft) W-SW 252 ° 0 min 0,000 mm 0,0 UV-I 0 W/m² 6,6 °C 7,3 °C 6,4 km/h (2 Bft)
09.09.2019 02:04 7,3 °C 95 % 1014,7 hPa 0,0 mm 2,4 km/h (1 Bft) W-SW 238 ° 0 min 0,000 mm 0,0 UV-I 0 W/m² 6,6 °C 7,3 °C 6,4 km/h (2 Bft)
09.09.2019 02:05 7,3 °C 95 % 1014,7 hPa 0,0 mm 0,1 km/h (0 Bft) W-SW 237 ° 0 min 0,000 mm 0,0 UV-I 0 W/m² 6,6 °C 7,3 °C 1,6 km/h (1 Bft)
09.09.2019 02:06 7,3 °C 95 % 1014,7 hPa 0,0 mm 0,8 km/h (0 Bft) W-SW 237 ° 0 min 0,000 mm 0,0 UV-I 0 W/m² 6,6 °C 7,3 °C 1,6 km/h (1 Bft)
09.09.2019 02:07 7,3 °C 95 % 1014,7 hPa 0,0 mm 2,4 km/h (1 Bft) W-SW 243 ° 0 min 0,000 mm 0,0 UV-I 0 W/m² 6,6 °C 7,3 °C 4,8 km/h (1 Bft)
09.09.2019 02:08 7,3 °C 95 % 1014,7 hPa 0,0 mm 1,2 km/h (1 Bft) S 181 ° 0 min 0,000 mm 0,0 UV-I 0 W/m² 6,6 °C 7,3 °C 4,8 km/h (1 Bft)
09.09.2019 02:09 7,3 °C 95 % 1014,7 hPa 0,0 mm 0,9 km/h (0 Bft) S 181 ° 0 min 0,000 mm 0,0 UV-I 0 W/m² 6,6 °C 7,3 °C 3,2 km/h (1 Bft)
09.09.2019 02:10 7,3 °C 95 % 1014,7 hPa 0,0 mm 0,0 km/h (0 Bft) S 181 ° 0 min 0,000 mm 0,0 UV-I 0 W/m² 6,6 °C 7,3 °C 0,0 km/h (0 Bft)
09.09.2019 02:11 7,3 °C 95 % 1014,7 hPa 0,0 mm 1,1 km/h (1 Bft) S-SW 208 ° 0 min 0,000 mm 0,0 UV-I 0 W/m² 6,6 °C 7,3 °C 3,2 km/h (1 Bft)
09.09.2019 02:12 7,3 °C 95 % 1014,7 hPa 0,0 mm 1,7 km/h (1 Bft) S-SW 208 ° 0 min 0,000 mm 0,0 UV-I 0 W/m² 6,6 °C 7,3 °C 3,2 km/h (1 Bft)
09.09.2019 02:13 7,3 °C 95 % 1014,7 hPa 0,0 mm 0,6 km/h (0 Bft) S-SW 213 ° 0 min 0,000 mm 0,0 UV-I 0 W/m² 6,6 °C 7,3 °C 1,6 km/h (1 Bft)
09.09.2019 02:14 7,3 °C 95 % 1014,7 hPa 0,0 mm 0,0 km/h (0 Bft) S-SW 213 ° 0 min 0,000 mm 0,0 UV-I 0 W/m² 6,6 °C 7,3 °C 0,0 km/h (0 Bft)
09.09.2019 02:15 7,2 °C 95 % 1014,7 hPa 0,0 mm 0,0 km/h (0 Bft) S-SW 213 ° 0 min 0,000 mm 0,0 UV-I 0 W/m² 6,5 °C 7,2 °C 0,0 km/h (0 Bft)
09.09.2019 02:16 7,2 °C 95 % 1014,7 hPa 0,0 mm 3,3 km/h (1 Bft) S-SW 192 ° 0 min 0,000 mm 0,0 UV-I 0 W/m² 6,5 °C 7,2 °C 8,0 km/h (2 Bft)
09.09.2019 02:17 7,2 °C 95 % 1014,7 hPa 0,0 mm 1,6 km/h (1 Bft) S-SW 192 ° 0 min 0,000 mm 0,0 UV-I 0 W/m² 6,5 °C 7,2 °C 3,2 km/h (1 Bft)
09.09.2019 02:18 7,3 °C 94 % 1014,6 hPa 0,0 mm 0,0 km/h (0 Bft) S-SW 192 ° 0 min 0,000 mm 0,0 UV-I 0 W/m² 6,4 °C 7,3 °C 0,0 km/h (0 Bft)
09.09.2019 02:19 7,2 °C 95 % 1014,7 hPa 0,0 mm 0,1 km/h (0 Bft) S-SW 192 ° 0 min 0,000 mm 0,0 UV-I 0 W/m² 6,5 °C 7,2 °C 1,6 km/h (1 Bft)
09.09.2019 02:20 7,2 °C 95 % 1014,7 hPa 0,0 mm 0,0 km/h (0 Bft) S-SW 192 ° 0 min 0,000 mm 0,0 UV-I 0 W/m² 6,5 °C 7,2 °C 0,0 km/h (0 Bft)
09.09.2019 02:21 7,2 °C 94 % 1014,6 hPa 0,0 mm 0,0 km/h (0 Bft) S-SW 192 ° 0 min 0,000 mm 0,0 UV-I 0 W/m² 6,3 °C 7,2 °C 0,0 km/h (0 Bft)
09.09.2019 02:22 7,2 °C 95 % 1014,7 hPa 0,0 mm 1,1 km/h (1 Bft) S-SW 192 ° 0 min 0,000 mm 0,0 UV-I 0 W/m² 6,5 °C 7,2 °C 3,2 km/h (1 Bft)
09.09.2019 02:23 7,2 °C 95 % 1014,7 hPa 0,0 mm 0,8 km/h (0 Bft) S-SW 192 ° 0 min 0,000 mm 0,0 UV-I 0 W/m² 6,5 °C 7,2 °C 3,2 km/h (1 Bft)
09.09.2019 02:24 7,2 °C 95 % 1014,7 hPa 0,0 mm 1,7 km/h (1 Bft) W-SW 243 ° 0 min 0,000 mm 0,0 UV-I 0 W/m² 6,5 °C 7,2 °C 4,8 km/h (1 Bft)
09.09.2019 02:25 7,2 °C 94 % 1014,7 hPa 0,0 mm 1,0 km/h (0 Bft) W-SW 243 ° 0 min 0,000 mm 0,0 UV-I 0 W/m² 6,3 °C 7,2 °C 3,2 km/h (1 Bft)
09.09.2019 02:26 7,2 °C 94 % 1014,7 hPa 0,0 mm 0,0 km/h (0 Bft) W-SW 243 ° 0 min 0,000 mm 0,0 UV-I 0 W/m² 6,3 °C 7,2 °C 0,0 km/h (0 Bft)
09.09.2019 02:27 7,2 °C 94 % 1014,7 hPa 0,0 mm 0,0 km/h (0 Bft) W-SW 243 ° 0 min 0,000 mm 0,0 UV-I 0 W/m² 6,3 °C 7,2 °C 0,0 km/h (0 Bft)
09.09.2019 02:28 7,2 °C 94 % 1014,7 hPa 0,0 mm 0,1 km/h (0 Bft) W-SW 243 ° 0 min 0,000 mm 0,0 UV-I 0 W/m² 6,3 °C 7,2 °C 1,6 km/h (1 Bft)
09.09.2019 02:29 7,2 °C 94 % 1014,7 hPa 0,0 mm 0,0 km/h (0 Bft) W-SW 243 ° 0 min 0,000 mm 0,0 UV-I 0 W/m² 6,3 °C 7,2 °C 0,0 km/h (0 Bft)
09.09.2019 02:30 7,2 °C 94 % 1014,7 hPa 0,0 mm 0,0 km/h (0 Bft) W-SW 243 ° 0 min 0,000 mm 0,0 UV-I 0 W/m² 6,3 °C 7,2 °C 0,0 km/h (0 Bft)
09.09.2019 02:31 7,2 °C 94 % 1014,7 hPa 0,0 mm 0,0 km/h (0 Bft) W-SW 243 ° 0 min 0,000 mm 0,0 UV-I 0 W/m² 6,3 °C 7,2 °C 0,0 km/h (0 Bft)
09.09.2019 02:32 7,2 °C 94 % 1014,7 hPa 0,0 mm 0,4 km/h (0 Bft) W-SW 243 ° 0 min 0,000 mm 0,0 UV-I 0 W/m² 6,3 °C 7,2 °C 1,6 km/h (1 Bft)
09.09.2019 02:33 7,2 °C 94 % 1014,8 hPa 0,0 mm 0,3 km/h (0 Bft) W-SW 244 ° 0 min 0,000 mm 0,0 UV-I 0 W/m² 6,3 °C 7,2 °C 1,6 km/h (1 Bft)
09.09.2019 02:34 7,2 °C 94 % 1014,7 hPa 0,0 mm 0,0 km/h (0 Bft) W-SW 243 ° 0 min 0,000 mm 0,0 UV-I 0 W/m² 6,3 °C 7,2 °C 0,0 km/h (0 Bft)
09.09.2019 02:35 7,2 °C 94 % 1014,7 hPa 0,0 mm 0,0 km/h (0 Bft) W-SW 243 ° 0 min 0,000 mm 0,0 UV-I 0 W/m² 6,3 °C 7,2 °C 0,0 km/h (0 Bft)
09.09.2019 02:36 7,2 °C 94 % 1014,6 hPa 0,0 mm 0,0 km/h (0 Bft) W-SW 243 ° 0 min 0,000 mm 0,0 UV-I 0 W/m² 6,3 °C 7,2 °C 0,0 km/h (0 Bft)
09.09.2019 02:37 7,2 °C 94 % 1014,6 hPa 0,0 mm 0,5 km/h (0 Bft) W-SW 243 ° 0 min 0,000 mm 0,0 UV-I 0 W/m² 6,3 °C 7,2 °C 1,6 km/h (1 Bft)
09.09.2019 02:38 7,2 °C 94 % 1014,7 hPa 0,0 mm 1,1 km/h (1 Bft) W-SW 243 ° 0 min 0,000 mm 0,0 UV-I 0 W/m² 6,3 °C 7,2 °C 3,2 km/h (1 Bft)
09.09.2019 02:39 7,2 °C 94 % 1014,6 hPa 0,0 mm 0,7 km/h (0 Bft) W-SW 243 ° 0 min 0,000 mm 0,0 UV-I 0 W/m² 6,3 °C 7,2 °C 1,6 km/h (1 Bft)
09.09.2019 02:40 7,1 °C 94 % 1014,6 hPa 0,0 mm 1,8 km/h (1 Bft) W-SW 243 ° 0 min 0,000 mm 0,0 UV-I 0 W/m² 6,2 °C 7,1 °C 3,2 km/h (1 Bft)
09.09.2019 02:41 7,2 °C 94 % 1014,6 hPa 0,0 mm 0,0 km/h (0 Bft) W-SW 243 ° 0 min 0,000 mm 0,0 UV-I 0 W/m² 6,3 °C 7,2 °C 0,0 km/h (0 Bft)
09.09.2019 02:42 7,2 °C 94 % 1014,6 hPa 0,0 mm 0,0 km/h (0 Bft) W-SW 243 ° 0 min 0,000 mm 0,0 UV-I 0 W/m² 6,3 °C 7,2 °C 0,0 km/h (0 Bft)
09.09.2019 02:43 7,1 °C 94 % 1014,6 hPa 0,0 mm 0,4 km/h (0 Bft) W-SW 243 ° 0 min 0,000 mm 0,0 UV-I 0 W/m² 6,2 °C 7,1 °C 3,2 km/h (1 Bft)
09.09.2019 02:44 7,1 °C 94 % 1014,7 hPa 0,0 mm 0,0 km/h (0 Bft) W-SW 243 ° 0 min 0,000 mm 0,0 UV-I 0 W/m² 6,2 °C 7,1 °C 0,0 km/h (0 Bft)
09.09.2019 02:45 7,2 °C 94 % 1014,7 hPa 0,0 mm 0,0 km/h (0 Bft) W-SW 243 ° 0 min 0,000 mm 0,0 UV-I 0 W/m² 6,3 °C 7,2 °C 0,0 km/h (0 Bft)
09.09.2019 02:46 7,1 °C 94 % 1014,6 hPa 0,0 mm 0,0 km/h (0 Bft) W-SW 243 ° 0 min 0,000 mm 0,0 UV-I 0 W/m² 6,2 °C 7,1 °C 0,0 km/h (0 Bft)
09.09.2019 02:47 7,2 °C 94 % 1014,7 hPa 0,0 mm 0,0 km/h (0 Bft) W-SW 243 ° 0 min 0,000 mm 0,0 UV-I 0 W/m² 6,3 °C 7,2 °C 0,0 km/h (0 Bft)
09.09.2019 02:48 7,1 °C 94 % 1014,7 hPa 0,0 mm 0,5 km/h (0 Bft) W-SW 243 ° 0 min 0,000 mm 0,0 UV-I 0 W/m² 6,2 °C 7,1 °C 3,2 km/h (1 Bft)
09.09.2019 02:49 7,1 °C 94 % 1014,8 hPa 0,0 mm 1,0 km/h (0 Bft) W-SW 243 ° 0 min 0,000 mm 0,0 UV-I 0 W/m² 6,2 °C 7,1 °C 3,2 km/h (1 Bft)
09.09.2019 02:50 7,1 °C 94 % 1014,7 hPa 0,0 mm 0,0 km/h (0 Bft) W-SW 243 ° 0 min 0,000 mm 0,0 UV-I 0 W/m² 6,2 °C 7,1 °C 0,0 km/h (0 Bft)
09.09.2019 02:51 7,1 °C 95 % 1014,7 hPa 0,0 mm 0,0 km/h (0 Bft) W-SW 243 ° 0 min 0,000 mm 0,0 UV-I 0 W/m² 6,4 °C 7,1 °C 0,0 km/h (0 Bft)
09.09.2019 02:52 7,1 °C 94 % 1014,7 hPa 0,0 mm 0,0 km/h (0 Bft) W-SW 243 ° 0 min 0,000 mm 0,0 UV-I 0 W/m² 6,2 °C 7,1 °C 0,0 km/h (0 Bft)
09.09.2019 02:53 7,1 °C 94 % 1014,7 hPa 0,0 mm 0,0 km/h (0 Bft) W-SW 243 ° 0 min 0,000 mm 0,0 UV-I 0 W/m² 6,2 °C 7,1 °C 0,0 km/h (0 Bft)
09.09.2019 02:54 7,1 °C 94 % 1014,7 hPa 0,0 mm 0,0 km/h (0 Bft) W-SW 243 ° 0 min 0,000 mm 0,0 UV-I 0 W/m² 6,2 °C 7,1 °C 0,0 km/h (0 Bft)
09.09.2019 02:55 7,1 °C 94 % 1014,7 hPa 0,0 mm 0,0 km/h (0 Bft) W-SW 243 ° 0 min 0,000 mm 0,0 UV-I 0 W/m² 6,2 °C 7,1 °C 0,0 km/h (0 Bft)
09.09.2019 02:56 7,1 °C 94 % 1014,7 hPa 0,0 mm 0,0 km/h (0 Bft) W-SW 243 ° 0 min 0,000 mm 0,0 UV-I 0 W/m² 6,2 °C 7,1 °C 0,0 km/h (0 Bft)
09.09.2019 02:57 7,1 °C 94 % 1014,7 hPa 0,0 mm 0,0 km/h (0 Bft) W-SW 243 ° 0 min 0,000 mm 0,0 UV-I 0 W/m² 6,2 °C 7,1 °C 0,0 km/h (0 Bft)
09.09.2019 02:58 7,1 °C 94 % 1014,7 hPa 0,0 mm 0,0 km/h (0 Bft) W-SW 244 ° 0 min 0,000 mm 0,0 UV-I 0 W/m² 6,2 °C 7,1 °C 0,0 km/h (0 Bft)
09.09.2019 02:59 7,1 °C 94 % 1014,7 hPa 0,0 mm 1,3 km/h (1 Bft) W-SW 246 ° 0 min 0,000 mm 0,0 UV-I 0 W/m² 6,2 °C 7,1 °C 3,2 km/h (1 Bft)
09.09.2019 03:00 7,1 °C 94 % 1014,7 hPa 0,0 mm 0,7 km/h (0 Bft) W-SW 246 ° 0 min 0,000 mm 0,0 UV-I 0 W/m² 6,2 °C 7,1 °C 1,6 km/h (1 Bft)
09.09.2019 03:01 7,1 °C 94 % 1014,7 hPa 0,2 mm 0,9 km/h (0 Bft) W-SW 245 ° 0 min 0,000 mm 0,0 UV-I 0 W/m² 6,2 °C 7,1 °C 3,2 km/h (1 Bft)
09.09.2019 03:02 7,2 °C 94 % 1014,7 hPa 0,0 mm 1,2 km/h (1 Bft) W-SW 244 ° 0 min 0,000 mm 0,0 UV-I 0 W/m² 6,3 °C 7,2 °C 3,2 km/h (1 Bft)
09.09.2019 03:03 7,1 °C 94 % 1014,7 hPa 0,0 mm 0,0 km/h (0 Bft) W-SW 244 ° 0 min 0,000 mm 0,0 UV-I 0 W/m² 6,2 °C 7,1 °C 0,0 km/h (0 Bft)
09.09.2019 03:04 7,1 °C 94 % 1014,7 hPa 0,0 mm 0,0 km/h (0 Bft) W-SW 244 ° 0 min 0,000 mm 0,0 UV-I 0 W/m² 6,2 °C 7,1 °C 0,0 km/h (0 Bft)
09.09.2019 03:05 7,1 °C 94 % 1014,6 hPa 0,0 mm 1,3 km/h (1 Bft) W-SW 254 ° 0 min 0,000 mm 0,0 UV-I 0 W/m² 6,2 °C 7,1 °C 4,8 km/h (1 Bft)
09.09.2019 03:06 7,1 °C 94 % 1014,6 hPa 0,0 mm 0,0 km/h (0 Bft) W-SW 254 ° 0 min 0,000 mm 0,0 UV-I 0 W/m² 6,2 °C 7,1 °C 0,0 km/h (0 Bft)
09.09.2019 03:07 7,1 °C 94 % 1014,6 hPa 0,0 mm 0,0 km/h (0 Bft) W-SW 256 ° 0 min 0,000 mm 0,0 UV-I 0 W/m² 6,2 °C 7,1 °C 0,0 km/h (0 Bft)
09.09.2019 03:08 7,1 °C 94 % 1014,6 hPa 0,0 mm 0,0 km/h (0 Bft) W-SW 256 ° 0 min 0,000 mm 0,0 UV-I 0 W/m² 6,2 °C 7,1 °C 0,0 km/h (0 Bft)
09.09.2019 03:09 7,1 °C 94 % 1014,6 hPa 0,0 mm 1,3 km/h (1 Bft) W-SW 257 ° 0 min 0,000 mm 0,0 UV-I 0 W/m² 6,2 °C 7,1 °C 3,2 km/h (1 Bft)
09.09.2019 03:10 7,1 °C 94 % 1014,6 hPa 0,0 mm 0,8 km/h (0 Bft) S-SW 194 ° 0 min 0,000 mm 0,0 UV-I 0 W/m² 6,2 °C 7,1 °C 3,2 km/h (1 Bft)
09.09.2019 03:11 7,1 °C 94 % 1014,6 hPa 0,0 mm 0,3 km/h (0 Bft) S-SW 194 ° 0 min 0,000 mm 0,0 UV-I 0 W/m² 6,2 °C 7,1 °C 1,6 km/h (1 Bft)
09.09.2019 03:12 7,1 °C 94 % 1014,6 hPa 0,0 mm 0,3 km/h (0 Bft) S-SW 194 ° 0 min 0,000 mm 0,0 UV-I 0 W/m² 6,2 °C 7,1 °C 1,6 km/h (1 Bft)
09.09.2019 03:13 7,1 °C 94 % 1014,6 hPa 0,0 mm 0,5 km/h (0 Bft) W-NW 292 ° 0 min 0,000 mm 0,0 UV-I 0 W/m² 6,2 °C 7,1 °C 3,2 km/h (1 Bft)
09.09.2019 03:14 7,1 °C 94 % 1014,5 hPa 0,0 mm 2,0 km/h (1 Bft) W-NW 292 ° 0 min 0,000 mm 0,0 UV-I 0 W/m² 6,2 °C 7,1 °C 3,2 km/h (1 Bft)
09.09.2019 03:15 7,1 °C 94 % 1014,5 hPa 0,0 mm 0,1 km/h (0 Bft) W-NW 292 ° 0 min 0,000 mm 0,0 UV-I 0 W/m² 6,2 °C 7,1 °C 1,6 km/h (1 Bft)
09.09.2019 03:16 7,1 °C 94 % 1014,5 hPa 0,0 mm 0,4 km/h (0 Bft) W-NW 292 ° 0 min 0,000 mm 0,0 UV-I 0 W/m² 6,2 °C 7,1 °C 3,2 km/h (1 Bft)
09.09.2019 03:17 7,0 °C 95 % 1014,4 hPa 0,0 mm 0,3 km/h (0 Bft) W-NW 292 ° 0 min 0,000 mm 0,0 UV-I 0 W/m² 6,3 °C 7,0 °C 1,6 km/h (1 Bft)
09.09.2019 03:18 7,0 °C 95 % 1014,4 hPa 0,0 mm 1,1 km/h (1 Bft) W-NW 292 ° 0 min 0,000 mm 0,0 UV-I 0 W/m² 6,3 °C 7,0 °C 3,2 km/h (1 Bft)
09.09.2019 03:19 7,0 °C 95 % 1014,4 hPa 0,0 mm 1,0 km/h (0 Bft) W-NW 292 ° 0 min 0,000 mm 0,0 UV-I 0 W/m² 6,3 °C 7,0 °C 3,2 km/h (1 Bft)
09.09.2019 03:20 7,0 °C 95 % 1014,4 hPa 0,0 mm 0,1 km/h (0 Bft) W-NW 292 ° 0 min 0,000 mm 0,0 UV-I 0 W/m² 6,3 °C 7,0 °C 1,6 km/h (1 Bft)
09.09.2019 03:21 7,1 °C 95 % 1014,4 hPa 0,0 mm 0,4 km/h (0 Bft) W-SW 253 ° 0 min 0,000 mm 0,0 UV-I 0 W/m² 6,4 °C 7,1 °C 3,2 km/h (1 Bft)
09.09.2019 03:22 7,0 °C 95 % 1014,5 hPa 0,0 mm 3,6 km/h (1 Bft) W-SW 247 ° 0 min 0,000 mm 0,0 UV-I 0 W/m² 6,3 °C 7,0 °C 4,8 km/h (1 Bft)
09.09.2019 03:23 7,0 °C 95 % 1014,4 hPa 0,0 mm 0,7 km/h (0 Bft) W-SW 238 ° 0 min 0,000 mm 0,0 UV-I 0 W/m² 6,3 °C 7,0 °C 3,2 km/h (1 Bft)
09.09.2019 03:24 7,0 °C 95 % 1014,4 hPa 0,0 mm 1,0 km/h (0 Bft) S-SW 199 ° 0 min 0,000 mm 0,0 UV-I 0 W/m² 6,3 °C 7,0 °C 4,8 km/h (1 Bft)
09.09.2019 03:25 7,0 °C 95 % 1014,4 hPa 0,0 mm 1,5 km/h (1 Bft) SW 231 ° 0 min 0,000 mm 0,0 UV-I 0 W/m² 6,3 °C 7,0 °C 3,2 km/h (1 Bft)
09.09.2019 03:26 6,9 °C 95 % 1014,4 hPa 0,0 mm 1,9 km/h (1 Bft) W-NW 287 ° 0 min 0,000 mm 0,0 UV-I 0 W/m² 6,2 °C 6,9 °C 4,8 km/h (1 Bft)
09.09.2019 03:27 7,0 °C 95 % 1014,4 hPa 0,0 mm 2,7 km/h (1 Bft) W 270 ° 0 min 0,000 mm 0,0 UV-I 0 W/m² 6,3 °C 7,0 °C 4,8 km/h (1 Bft)
09.09.2019 03:28 6,9 °C 95 % 1014,3 hPa 0,0 mm 0,8 km/h (0 Bft) W 270 ° 0 min 0,000 mm 0,0 UV-I 0 W/m² 6,2 °C 6,9 °C 1,6 km/h (1 Bft)
09.09.2019 03:29 6,9 °C 95 % 1014,4 hPa 0,0 mm 0,0 km/h (0 Bft) W 270 ° 0 min 0,000 mm 0,0 UV-I 0 W/m² 6,2 °C 6,9 °C 0,0 km/h (0 Bft)
09.09.2019 03:30 6,9 °C 95 % 1014,3 hPa 0,0 mm 0,0 km/h (0 Bft) W 270 ° 0 min 0,000 mm 0,0 UV-I 0 W/m² 6,2 °C 6,9 °C 0,0 km/h (0 Bft)
09.09.2019 03:31 6,9 °C 95 % 1014,5 hPa 0,0 mm 0,8 km/h (0 Bft) S-SW 211 ° 0 min 0,000 mm 0,0 UV-I 0 W/m² 6,2 °C 6,9 °C 6,4 km/h (2 Bft)
09.09.2019 03:32 6,9 °C 95 % 1014,5 hPa 0,0 mm 4,9 km/h (1 Bft) W 273 ° 0 min 0,000 mm 0,0 UV-I 0 W/m² 6,2 °C 6,3 °C 8,0 km/h (2 Bft)
09.09.2019 03:33 6,9 °C 95 % 1014,4 hPa 0,0 mm 0,8 km/h (0 Bft) W 273 ° 0 min 0,000 mm 0,0 UV-I 0 W/m² 6,2 °C 6,9 °C 3,2 km/h (1 Bft)
09.09.2019 03:34 6,9 °C 95 % 1014,4 hPa 0,0 mm 2,9 km/h (1 Bft) W-SW 252 ° 0 min 0,000 mm 0,0 UV-I 0 W/m² 6,2 °C 6,9 °C 6,4 km/h (2 Bft)
09.09.2019 03:35 6,9 °C 95 % 1014,4 hPa 0,0 mm 2,3 km/h (1 Bft) W-SW 258 ° 0 min 0,000 mm 0,0 UV-I 0 W/m² 6,2 °C 6,9 °C 4,8 km/h (1 Bft)
09.09.2019 03:36 6,9 °C 95 % 1014,4 hPa 0,0 mm 0,0 km/h (0 Bft) W-SW 257 ° 0 min 0,000 mm 0,0 UV-I 0 W/m² 6,2 °C 6,9 °C 0,0 km/h (0 Bft)
09.09.2019 03:37 6,9 °C 95 % 1014,4 hPa 0,0 mm 0,0 km/h (0 Bft) W-SW 257 ° 0 min 0,000 mm 0,0 UV-I 0 W/m² 6,2 °C 6,9 °C 0,0 km/h (0 Bft)
09.09.2019 03:38 6,9 °C 95 % 1014,4 hPa 0,0 mm 0,0 km/h (0 Bft) W-SW 257 ° 0 min 0,000 mm 0,0 UV-I 0 W/m² 6,2 °C 6,9 °C 0,0 km/h (0 Bft)
09.09.2019 03:39 6,9 °C 95 % 1014,4 hPa 0,0 mm 0,0 km/h (0 Bft) W-SW 257 ° 0 min 0,000 mm 0,0 UV-I 0 W/m² 6,2 °C 6,9 °C 0,0 km/h (0 Bft)
09.09.2019 03:40 6,9 °C 95 % 1014,4 hPa 0,0 mm 2,3 km/h (1 Bft) W 269 ° 0 min 0,000 mm 0,0 UV-I 0 W/m² 6,2 °C 6,9 °C 4,8 km/h (1 Bft)
09.09.2019 03:41 6,9 °C 95 % 1014,4 hPa 0,0 mm 2,8 km/h (1 Bft) SW 234 ° 0 min 0,000 mm 0,0 UV-I 0 W/m² 6,2 °C 6,9 °C 4,8 km/h (1 Bft)
09.09.2019 03:42 6,9 °C 95 % 1014,4 hPa 0,0 mm 1,2 km/h (1 Bft) SW 234 ° 0 min 0,000 mm 0,0 UV-I 0 W/m² 6,2 °C 6,9 °C 3,2 km/h (1 Bft)
09.09.2019 03:43 6,9 °C 95 % 1014,4 hPa 0,0 mm 0,2 km/h (0 Bft) SW 234 ° 0 min 0,000 mm 0,0 UV-I 0 W/m² 6,2 °C 6,9 °C 3,2 km/h (1 Bft)
09.09.2019 03:44 6,9 °C 95 % 1014,5 hPa 0,0 mm 1,9 km/h (1 Bft) W-SW 240 ° 0 min 0,000 mm 0,0 UV-I 0 W/m² 6,2 °C 6,9 °C 3,2 km/h (1 Bft)
09.09.2019 03:45 6,9 °C 95 % 1014,4 hPa 0,0 mm 0,3 km/h (0 Bft) SW 226 ° 0 min 0,000 mm 0,0 UV-I 0 W/m² 6,2 °C 6,9 °C 1,6 km/h (1 Bft)
09.09.2019 03:46 6,9 °C 95 % 1014,4 hPa 0,0 mm 1,4 km/h (1 Bft) W-SW 253 ° 0 min 0,000 mm 0,0 UV-I 0 W/m² 6,2 °C 6,9 °C 4,8 km/h (1 Bft)
09.09.2019 03:47 6,9 °C 95 % 1014,4 hPa 0,0 mm 0,0 km/h (0 Bft) W-SW 253 ° 0 min 0,000 mm 0,0 UV-I 0 W/m² 6,2 °C 6,9 °C 0,0 km/h (0 Bft)
09.09.2019 03:48 6,9 °C 95 % 1014,4 hPa 0,0 mm 1,8 km/h (1 Bft) W-SW 254 ° 0 min 0,000 mm 0,0 UV-I 0 W/m² 6,2 °C 6,9 °C 4,8 km/h (1 Bft)
09.09.2019 03:49 6,9 °C 95 % 1014,4 hPa 0,0 mm 0,1 km/h (0 Bft) W-SW 254 ° 0 min 0,000 mm 0,0 UV-I 0 W/m² 6,2 °C 6,9 °C 1,6 km/h (1 Bft)
09.09.2019 03:50 6,9 °C 95 % 1014,4 hPa 0,0 mm 0,4 km/h (0 Bft) W-SW 254 ° 0 min 0,000 mm 0,0 UV-I 0 W/m² 6,2 °C 6,9 °C 1,6 km/h (1 Bft)
09.09.2019 03:51 6,9 °C 95 % 1014,4 hPa 0,0 mm 0,9 km/h (0 Bft) W-SW 255 ° 0 min 0,000 mm 0,0 UV-I 0 W/m² 6,2 °C 6,9 °C 3,2 km/h (1 Bft)
09.09.2019 03:52 6,9 °C 95 % 1014,4 hPa 0,0 mm 0,1 km/h (0 Bft) W-SW 255 ° 0 min 0,000 mm 0,0 UV-I 0 W/m² 6,2 °C 6,9 °C 1,6 km/h (1 Bft)
09.09.2019 03:53 6,9 °C 95 % 1014,4 hPa 0,0 mm 3,5 km/h (1 Bft) SW 227 ° 0 min 0,000 mm 0,0 UV-I 0 W/m² 6,2 °C 6,9 °C 4,8 km/h (1 Bft)
09.09.2019 03:54 6,9 °C 95 % 1014,3 hPa 0,0 mm 1,5 km/h (1 Bft) SW 235 ° 0 min 0,000 mm 0,0 UV-I 0 W/m² 6,2 °C 6,9 °C 3,2 km/h (1 Bft)
09.09.2019 03:55 6,9 °C 95 % 1014,3 hPa 0,0 mm 3,0 km/h (1 Bft) SW 232 ° 0 min 0,000 mm 0,0 UV-I 0 W/m² 6,2 °C 6,9 °C 4,8 km/h (1 Bft)
09.09.2019 03:56 6,9 °C 95 % 1014,3 hPa 0,0 mm 3,0 km/h (1 Bft) W-SW 253 ° 0 min 0,000 mm 0,0 UV-I 0 W/m² 6,2 °C 6,9 °C 4,8 km/h (1 Bft)
09.09.2019 03:57 6,9 °C 95 % 1014,3 hPa 0,0 mm 2,4 km/h (1 Bft) SW 236 ° 0 min 0,000 mm 0,0 UV-I 0 W/m² 6,2 °C 6,9 °C 4,8 km/h (1 Bft)
09.09.2019 03:58 6,9 °C 95 % 1014,3 hPa 0,0 mm 2,3 km/h (1 Bft) W-SW 243 ° 0 min 0,000 mm 0,0 UV-I 0 W/m² 6,2 °C 6,9 °C 4,8 km/h (1 Bft)
09.09.2019 03:59 7,0 °C 95 % 1014,3 hPa 0,0 mm 2,2 km/h (1 Bft) SW 223 ° 0 min 0,000 mm 0,0 UV-I 0 W/m² 6,3 °C 7,0 °C 6,4 km/h (2 Bft)
09.09.2019 04:00 7,0 °C 95 % 1014,3 hPa 0,0 mm 2,0 km/h (1 Bft) SW 232 ° 0 min 0,000 mm 0,0 UV-I 0 W/m² 6,3 °C 7,0 °C 6,4 km/h (2 Bft)
09.09.2019 04:01 6,9 °C 95 % 1014,3 hPa 0,0 mm 0,0 km/h (0 Bft) SW 232 ° 0 min 0,000 mm 0,0 UV-I 0 W/m² 6,2 °C 6,9 °C 0,0 km/h (0 Bft)
09.09.2019 04:02 7,0 °C 95 % 1014,2 hPa 0,0 mm 0,0 km/h (0 Bft) SW 232 ° 0 min 0,000 mm 0,0 UV-I 0 W/m² 6,3 °C 7,0 °C 0,0 km/h (0 Bft)
09.09.2019 04:03 7,0 °C 95 % 1014,2 hPa 0,0 mm 4,2 km/h (1 Bft) W-SW 248 ° 0 min 0,000 mm 0,0 UV-I 0 W/m² 6,3 °C 7,0 °C 6,4 km/h (2 Bft)
09.09.2019 04:04 7,0 °C 95 % 1014,2 hPa 0,0 mm 2,5 km/h (1 Bft) W 260 ° 0 min 0,000 mm 0,0 UV-I 0 W/m² 6,3 °C 7,0 °C 4,8 km/h (1 Bft)
09.09.2019 04:05 7,0 °C 95 % 1014,2 hPa 0,0 mm 3,2 km/h (1 Bft) W-SW 242 ° 0 min 0,000 mm 0,0 UV-I 0 W/m² 6,3 °C 7,0 °C 6,4 km/h (2 Bft)
09.09.2019 04:06 6,9 °C 95 % 1014,2 hPa 0,0 mm 2,4 km/h (1 Bft) W-SW 245 ° 0 min 0,000 mm 0,0 UV-I 0 W/m² 6,2 °C 6,9 °C 4,8 km/h (1 Bft)
09.09.2019 04:07 6,9 °C 95 % 1014,1 hPa 0,2 mm 5,1 km/h (1 Bft) SW 221 ° 0 min 0,000 mm 0,0 UV-I 0 W/m² 6,2 °C 6,2 °C 8,0 km/h (2 Bft)
09.09.2019 04:08 6,9 °C 95 % 1014,1 hPa 0,0 mm 4,2 km/h (1 Bft) W-SW 252 ° 0 min 0,000 mm 0,0 UV-I 0 W/m² 6,2 °C 6,9 °C 6,4 km/h (2 Bft)
09.09.2019 04:09 7,0 °C 95 % 1014,0 hPa 0,0 mm 2,6 km/h (1 Bft) S-SW 208 ° 0 min 0,000 mm 0,0 UV-I 0 W/m² 6,3 °C 7,0 °C 4,8 km/h (1 Bft)
09.09.2019 04:10 6,9 °C 95 % 1014,0 hPa 0,0 mm 2,6 km/h (1 Bft) W-SW 247 ° 0 min 0,000 mm 0,0 UV-I 0 W/m² 6,2 °C 6,9 °C 6,4 km/h (2 Bft)
09.09.2019 04:11 6,9 °C 95 % 1014,0 hPa 0,0 mm 1,0 km/h (0 Bft) W-SW 239 ° 0 min 0,000 mm 0,0 UV-I 0 W/m² 6,2 °C 6,9 °C 6,4 km/h (2 Bft)
09.09.2019 04:12 6,9 °C 95 % 1014,0 hPa 0,0 mm 3,8 km/h (1 Bft) W-SW 252 ° 0 min 0,000 mm 0,0 UV-I 0 W/m² 6,2 °C 6,9 °C 6,4 km/h (2 Bft)
09.09.2019 04:13 6,9 °C 95 % 1014,0 hPa 0,0 mm 2,2 km/h (1 Bft) SW 225 ° 0 min 0,000 mm 0,0 UV-I 0 W/m² 6,2 °C 6,9 °C 4,8 km/h (1 Bft)
09.09.2019 04:14 6,9 °C 95 % 1014,0 hPa 0,0 mm 1,9 km/h (1 Bft) W-SW 254 ° 0 min 0,000 mm 0,0 UV-I 0 W/m² 6,2 °C 6,9 °C 4,8 km/h (1 Bft)
09.09.2019 04:15 6,9 °C 95 % 1014,0 hPa 0,0 mm 2,0 km/h (1 Bft) W-SW 258 ° 0 min 0,000 mm 0,0 UV-I 0 W/m² 6,2 °C 6,9 °C 4,8 km/h (1 Bft)
09.09.2019 04:16 6,9 °C 95 % 1014,0 hPa 0,0 mm 3,6 km/h (1 Bft) W 263 ° 0 min 0,000 mm 0,0 UV-I 0 W/m² 6,2 °C 6,9 °C 9,7 km/h (2 Bft)
09.09.2019 04:17 6,9 °C 95 % 1014,0 hPa 0,0 mm 4,2 km/h (1 Bft) W-SW 251 ° 0 min 0,000 mm 0,0 UV-I 0 W/m² 6,2 °C 6,9 °C 9,7 km/h (2 Bft)
09.09.2019 04:18 6,9 °C 95 % 1014,0 hPa 0,0 mm 1,9 km/h (1 Bft) W 262 ° 0 min 0,000 mm 0,0 UV-I 0 W/m² 6,2 °C 6,9 °C 6,4 km/h (2 Bft)
09.09.2019 04:19 6,9 °C 95 % 1014,0 hPa 0,0 mm 4,0 km/h (1 Bft) W 277 ° 0 min 0,000 mm 0,0 UV-I 0 W/m² 6,2 °C 6,9 °C 9,7 km/h (2 Bft)
09.09.2019 04:20 6,9 °C 95 % 1014,0 hPa 0,0 mm 3,0 km/h (1 Bft) W 275 ° 0 min 0,000 mm 0,0 UV-I 0 W/m² 6,2 °C 6,9 °C 6,4 km/h (2 Bft)
09.09.2019 04:21 6,9 °C 95 % 1014,0 hPa 0,0 mm 0,1 km/h (0 Bft) W 275 ° 0 min 0,000 mm 0,0 UV-I 0 W/m² 6,2 °C 6,9 °C 1,6 km/h (1 Bft)
09.09.2019 04:22 6,9 °C 95 % 1014,0 hPa 0,0 mm 0,1 km/h (0 Bft) W 274 ° 0 min 0,000 mm 0,0 UV-I 0 W/m² 6,2 °C 6,9 °C 1,6 km/h (1 Bft)
09.09.2019 04:23 6,9 °C 95 % 1014,0 hPa 0,0 mm 0,6 km/h (0 Bft) W 273 ° 0 min 0,000 mm 0,0 UV-I 0 W/m² 6,2 °C 6,9 °C 3,2 km/h (1 Bft)
09.09.2019 04:24 6,9 °C 95 % 1014,0 hPa 0,0 mm 0,0 km/h (0 Bft) W 273 ° 0 min 0,000 mm 0,0 UV-I 0 W/m² 6,2 °C 6,9 °C 0,0 km/h (0 Bft)
09.09.2019 04:25 6,9 °C 95 % 1014,0 hPa 0,0 mm 0,5 km/h (0 Bft) W 273 ° 0 min 0,000 mm 0,0 UV-I 0 W/m² 6,2 °C 6,9 °C 1,6 km/h (1 Bft)
09.09.2019 04:26 6,9 °C 95 % 1014,0 hPa 0,0 mm 1,4 km/h (1 Bft) W 277 ° 0 min 0,000 mm 0,0 UV-I 0 W/m² 6,2 °C 6,9 °C 4,8 km/h (1 Bft)
09.09.2019 04:27 6,9 °C 95 % 1014,1 hPa 0,0 mm 2,1 km/h (1 Bft) W-SW 258 ° 0 min 0,000 mm 0,0 UV-I 0 W/m² 6,2 °C 6,9 °C 6,4 km/h (2 Bft)
09.09.2019 04:28 6,9 °C 95 % 1014,0 hPa 0,0 mm 0,3 km/h (0 Bft) W-SW 258 ° 0 min 0,000 mm 0,0 UV-I 0 W/m² 6,2 °C 6,9 °C 1,6 km/h (1 Bft)
09.09.2019 04:29 6,9 °C 95 % 1014,1 hPa 0,0 mm 0,0 km/h (0 Bft) W-SW 258 ° 0 min 0,000 mm 0,0 UV-I 0 W/m² 6,2 °C 6,9 °C 0,0 km/h (0 Bft)
09.09.2019 04:30 6,9 °C 95 % 1014,0 hPa 0,0 mm 0,8 km/h (0 Bft) SW 223 ° 0 min 0,000 mm 0,0 UV-I 0 W/m² 6,2 °C 6,9 °C 3,2 km/h (1 Bft)
09.09.2019 04:31 6,9 °C 95 % 1014,1 hPa 0,0 mm 1,9 km/h (1 Bft) SW 223 ° 0 min 0,000 mm 0,0 UV-I 0 W/m² 6,2 °C 6,9 °C 3,2 km/h (1 Bft)
09.09.2019 04:32 6,9 °C 95 % 1014,0 hPa 0,0 mm 0,3 km/h (0 Bft) SW 224 ° 0 min 0,000 mm 0,0 UV-I 0 W/m² 6,2 °C 6,9 °C 1,6 km/h (1 Bft)
09.09.2019 04:33 6,9 °C 95 % 1014,0 hPa 0,0 mm 0,9 km/h (0 Bft) SW 224 ° 0 min 0,000 mm 0,0 UV-I 0 W/m² 6,2 °C 6,9 °C 3,2 km/h (1 Bft)
09.09.2019 04:34 6,9 °C 95 % 1014,0 hPa 0,0 mm 2,8 km/h (1 Bft) SW 227 ° 0 min 0,000 mm 0,0 UV-I 0 W/m² 6,2 °C 6,9 °C 6,4 km/h (2 Bft)
09.09.2019 04:35 6,9 °C 95 % 1014,1 hPa 0,0 mm 0,0 km/h (0 Bft) SW 227 ° 0 min 0,000 mm 0,0 UV-I 0 W/m² 6,2 °C 6,9 °C 0,0 km/h (0 Bft)
09.09.2019 04:36 6,9 °C 95 % 1014,1 hPa 0,0 mm 0,0 km/h (0 Bft) SW 227 ° 0 min 0,000 mm 0,0 UV-I 0 W/m² 6,2 °C 6,9 °C 0,0 km/h (0 Bft)
09.09.2019 04:37 6,9 °C 95 % 1014,1 hPa 0,0 mm 0,0 km/h (0 Bft) SW 227 ° 0 min 0,000 mm 0,0 UV-I 0 W/m² 6,2 °C 6,9 °C 0,0 km/h (0 Bft)
09.09.2019 04:38 6,9 °C 95 % 1014,0 hPa 0,0 mm 0,3 km/h (0 Bft) SW 227 ° 0 min 0,000 mm 0,0 UV-I 0 W/m² 6,2 °C 6,9 °C 3,2 km/h (1 Bft)
09.09.2019 04:39 6,9 °C 95 % 1014,1 hPa 0,0 mm 1,7 km/h (1 Bft) W 259 ° 0 min 0,000 mm 0,0 UV-I 0 W/m² 6,2 °C 6,9 °C 3,2 km/h (1 Bft)
09.09.2019 04:40 6,9 °C 95 % 1014,0 hPa 0,0 mm 1,3 km/h (1 Bft) W 259 ° 0 min 0,000 mm 0,0 UV-I 0 W/m² 6,2 °C 6,9 °C 4,8 km/h (1 Bft)
09.09.2019 04:41 6,9 °C 95 % 1014,0 hPa 0,0 mm 3,8 km/h (1 Bft) S-SW 205 ° 0 min 0,000 mm 0,0 UV-I 0 W/m² 6,2 °C 6,9 °C 9,7 km/h (2 Bft)
09.09.2019 04:42 6,9 °C 95 % 1014,0 hPa 0,0 mm 1,7 km/h (1 Bft) W 261 ° 0 min 0,000 mm 0,0 UV-I 0 W/m² 6,2 °C 6,9 °C 4,8 km/h (1 Bft)
09.09.2019 04:43 6,9 °C 95 % 1014,0 hPa 0,0 mm 0,0 km/h (0 Bft) W 261 ° 0 min 0,000 mm 0,0 UV-I 0 W/m² 6,2 °C 6,9 °C 0,0 km/h (0 Bft)
09.09.2019 04:44 6,9 °C 95 % 1014,0 hPa 0,0 mm 3,6 km/h (1 Bft) W-SW 247 ° 0 min 0,000 mm 0,0 UV-I 0 W/m² 6,2 °C 6,9 °C 9,7 km/h (2 Bft)
09.09.2019 04:45 6,9 °C 95 % 1014,0 hPa 0,0 mm 1,9 km/h (1 Bft) W-NW 294 ° 0 min 0,000 mm 0,0 UV-I 0 W/m² 6,2 °C 6,9 °C 4,8 km/h (1 Bft)
09.09.2019 04:46 6,9 °C 95 % 1014,0 hPa 0,0 mm 3,0 km/h (1 Bft) W-SW 254 ° 0 min 0,000 mm 0,0 UV-I 0 W/m² 6,2 °C 6,9 °C 4,8 km/h (1 Bft)
09.09.2019 04:47 6,9 °C 95 % 1014,0 hPa 0,0 mm 1,5 km/h (1 Bft) W-SW 254 ° 0 min 0,000 mm 0,0 UV-I 0 W/m² 6,2 °C 6,9 °C 3,2 km/h (1 Bft)
09.09.2019 04:48 6,9 °C 95 % 1014,0 hPa 0,0 mm 1,1 km/h (1 Bft) W-SW 257 ° 0 min 0,000 mm 0,0 UV-I 0 W/m² 6,2 °C 6,9 °C 3,2 km/h (1 Bft)
09.09.2019 04:49 6,9 °C 95 % 1014,0 hPa 0,0 mm 2,0 km/h (1 Bft) W 259 ° 0 min 0,000 mm 0,0 UV-I 0 W/m² 6,2 °C 6,9 °C 3,2 km/h (1 Bft)
09.09.2019 04:50 6,9 °C 95 % 1014,0 hPa 0,0 mm 7,0 km/h (2 Bft) W 267 ° 0 min 0,000 mm 0,0 UV-I 0 W/m² 6,2 °C 5,6 °C 11,3 km/h (2 Bft)
09.09.2019 04:51 6,9 °C 95 % 1014,0 hPa 0,0 mm 3,4 km/h (1 Bft) W 261 ° 0 min 0,000 mm 0,0 UV-I 0 W/m² 6,2 °C 6,9 °C 6,4 km/h (2 Bft)
09.09.2019 04:52 7,0 °C 95 % 1014,0 hPa 0,0 mm 4,8 km/h (1 Bft) W 267 ° 0 min 0,000 mm 0,0 UV-I 0 W/m² 6,3 °C 6,4 °C 9,7 km/h (2 Bft)
09.09.2019 04:53 6,9 °C 95 % 1014,0 hPa 0,0 mm 4,3 km/h (1 Bft) W 259 ° 0 min 0,000 mm 0,0 UV-I 0 W/m² 6,2 °C 6,9 °C 6,4 km/h (2 Bft)
09.09.2019 04:54 6,9 °C 95 % 1014,1 hPa 0,0 mm 0,9 km/h (0 Bft) W 259 ° 0 min 0,000 mm 0,0 UV-I 0 W/m² 6,2 °C 6,9 °C 4,8 km/h (1 Bft)
09.09.2019 04:55 6,9 °C 95 % 1014,1 hPa 0,0 mm 0,8 km/h (0 Bft) W 262 ° 0 min 0,000 mm 0,0 UV-I 0 W/m² 6,2 °C 6,9 °C 3,2 km/h (1 Bft)
09.09.2019 04:56 6,9 °C 95 % 1014,0 hPa 0,0 mm 1,6 km/h (1 Bft) W 263 ° 0 min 0,000 mm 0,0 UV-I 0 W/m² 6,2 °C 6,9 °C 3,2 km/h (1 Bft)
09.09.2019 04:57 6,9 °C 95 % 1014,1 hPa 0,0 mm 2,4 km/h (1 Bft) W 261 ° 0 min 0,000 mm 0,0 UV-I 0 W/m² 6,2 °C 6,9 °C 4,8 km/h (1 Bft)
09.09.2019 04:58 6,9 °C 95 % 1014,1 hPa 0,0 mm 4,1 km/h (1 Bft) W 261 ° 0 min 0,000 mm 0,0 UV-I 0 W/m² 6,2 °C 6,9 °C 6,4 km/h (2 Bft)
09.09.2019 04:59 6,9 °C 95 % 1014,1 hPa 0,0 mm 2,4 km/h (1 Bft) W 261 ° 0 min 0,000 mm 0,0 UV-I 0 W/m² 6,2 °C 6,9 °C 6,4 km/h (2 Bft)
09.09.2019 05:00 6,9 °C 95 % 1014,0 hPa 0,0 mm 2,7 km/h (1 Bft) W 269 ° 0 min 0,000 mm 0,0 UV-I 0 W/m² 6,2 °C 6,9 °C 6,4 km/h (2 Bft)
09.09.2019 05:01 7,0 °C 95 % 1014,1 hPa 0,0 mm 3,5 km/h (1 Bft) W-SW 238 ° 0 min 0,000 mm 0,0 UV-I 0 W/m² 6,3 °C 7,0 °C 6,4 km/h (2 Bft)
09.09.2019 05:02 6,9 °C 95 % 1014,1 hPa 0,0 mm 7,9 km/h (2 Bft) W-SW 257 ° 0 min 0,000 mm 0,0 UV-I 0 W/m² 6,2 °C 5,4 °C 9,7 km/h (2 Bft)
09.09.2019 05:03 6,9 °C 95 % 1014,1 hPa 0,0 mm 3,4 km/h (1 Bft) W 267 ° 0 min 0,000 mm 0,0 UV-I 0 W/m² 6,2 °C 6,9 °C 9,7 km/h (2 Bft)
09.09.2019 05:04 6,9 °C 95 % 1014,1 hPa 0,2 mm 1,1 km/h (1 Bft) W-NW 285 ° 0 min 0,000 mm 0,0 UV-I 0 W/m² 6,2 °C 6,9 °C 3,2 km/h (1 Bft)
09.09.2019 05:05 7,0 °C 95 % 1014,1 hPa 0,0 mm 4,0 km/h (1 Bft) W 265 ° 0 min 0,000 mm 0,0 UV-I 0 W/m² 6,3 °C 7,0 °C 9,7 km/h (2 Bft)
09.09.2019 05:06 7,0 °C 95 % 1014,0 hPa 0,0 mm 3,1 km/h (1 Bft) SO 144 ° 0 min 0,000 mm 0,0 UV-I 0 W/m² 6,3 °C 7,0 °C 6,4 km/h (2 Bft)
09.09.2019 05:07 7,0 °C 95 % 1014,0 hPa 0,0 mm 3,7 km/h (1 Bft) W-NW 296 ° 0 min 0,000 mm 0,0 UV-I 0 W/m² 6,3 °C 7,0 °C 4,8 km/h (1 Bft)
09.09.2019 05:08 7,0 °C 95 % 1014,0 hPa 0,0 mm 5,8 km/h (2 Bft) W-SW 250 ° 0 min 0,000 mm 0,0 UV-I 0 W/m² 6,3 °C 6,1 °C 11,3 km/h (2 Bft)
09.09.2019 05:09 7,1 °C 95 % 1014,0 hPa 0,0 mm 4,8 km/h (1 Bft) W-SW 250 ° 0 min 0,000 mm 0,0 UV-I 0 W/m² 6,4 °C 6,5 °C 6,4 km/h (2 Bft)
09.09.2019 05:10 7,0 °C 95 % 1013,9 hPa 0,0 mm 4,4 km/h (1 Bft) SW 218 ° 0 min 0,000 mm 0,0 UV-I 0 W/m² 6,3 °C 7,0 °C 6,4 km/h (2 Bft)
09.09.2019 05:11 7,1 °C 95 % 1013,9 hPa 0,0 mm 4,4 km/h (1 Bft) W 280 ° 0 min 0,000 mm 0,0 UV-I 0 W/m² 6,4 °C 7,1 °C 11,3 km/h (2 Bft)
09.09.2019 05:12 7,1 °C 95 % 1013,9 hPa 0,0 mm 6,4 km/h (2 Bft) S-SW 209 ° 0 min 0,000 mm 0,0 UV-I 0 W/m² 6,4 °C 6,0 °C 12,9 km/h (3 Bft)
09.09.2019 05:13 7,1 °C 95 % 1013,9 hPa 0,0 mm 4,8 km/h (1 Bft) W 263 ° 0 min 0,000 mm 0,0 UV-I 0 W/m² 6,4 °C 6,5 °C 12,9 km/h (3 Bft)
09.09.2019 05:14 7,1 °C 95 % 1013,9 hPa 0,0 mm 4,4 km/h (1 Bft) SW 223 ° 0 min 0,000 mm 0,0 UV-I 0 W/m² 6,4 °C 7,1 °C 8,0 km/h (2 Bft)
09.09.2019 05:15 7,1 °C 95 % 1013,9 hPa 0,0 mm 2,0 km/h (1 Bft) S 171 ° 0 min 0,000 mm 0,0 UV-I 0 W/m² 6,4 °C 7,1 °C 4,8 km/h (1 Bft)
09.09.2019 05:16 7,1 °C 95 % 1013,9 hPa 0,0 mm 4,0 km/h (1 Bft) SW 225 ° 0 min 0,000 mm 0,0 UV-I 0 W/m² 6,4 °C 7,1 °C 11,3 km/h (2 Bft)
09.09.2019 05:17 7,1 °C 95 % 1013,9 hPa 0,0 mm 4,3 km/h (1 Bft) SW 220 ° 0 min 0,000 mm 0,0 UV-I 0 W/m² 6,4 °C 7,1 °C 6,4 km/h (2 Bft)
09.09.2019 05:18 7,1 °C 95 % 1014,0 hPa 0,0 mm 3,3 km/h (1 Bft) SW 217 ° 0 min 0,000 mm 0,0 UV-I 0 W/m² 6,4 °C 7,1 °C 6,4 km/h (2 Bft)
09.09.2019 05:19 7,1 °C 95 % 1014,1 hPa 0,0 mm 2,8 km/h (1 Bft) W-SW 257 ° 0 min 0,000 mm 0,0 UV-I 0 W/m² 6,4 °C 7,1 °C 4,8 km/h (1 Bft)
09.09.2019 05:20 7,1 °C 95 % 1014,0 hPa 0,0 mm 2,8 km/h (1 Bft) W-SW 257 ° 0 min 0,000 mm 0,0 UV-I 0 W/m² 6,4 °C 7,1 °C 4,8 km/h (1 Bft)
09.09.2019 05:21 7,1 °C 94 % 1014,0 hPa 0,0 mm 2,0 km/h (1 Bft) W 261 ° 0 min 0,000 mm 0,0 UV-I 0 W/m² 6,2 °C 7,1 °C 6,4 km/h (2 Bft)
09.09.2019 05:22 7,1 °C 95 % 1014,0 hPa 0,0 mm 3,8 km/h (1 Bft) W 261 ° 0 min 0,000 mm 0,0 UV-I 0 W/m² 6,4 °C 7,1 °C 6,4 km/h (2 Bft)
09.09.2019 05:23 7,1 °C 94 % 1014,1 hPa 0,0 mm 10,1 km/h (2 Bft) W 281 ° 0 min 0,000 mm 0,0 UV-I 0 W/m² 6,2 °C 5,1 °C 14,5 km/h (3 Bft)
09.09.2019 05:24 7,1 °C 94 % 1014,1 hPa 0,0 mm 7,5 km/h (2 Bft) W-SW 248 ° 0 min 0,000 mm 0,0 UV-I 0 W/m² 6,2 °C 5,7 °C 11,3 km/h (2 Bft)
09.09.2019 05:25 7,1 °C 94 % 1014,1 hPa 0,0 mm 4,5 km/h (1 Bft) W-SW 254 ° 0 min 0,000 mm 0,0 UV-I 0 W/m² 6,2 °C 7,1 °C 6,4 km/h (2 Bft)
09.09.2019 05:26 7,1 °C 94 % 1014,1 hPa 0,0 mm 0,5 km/h (0 Bft) W-SW 255 ° 0 min 0,000 mm 0,0 UV-I 0 W/m² 6,2 °C 7,1 °C 1,6 km/h (1 Bft)
09.09.2019 05:27 7,1 °C 94 % 1014,1 hPa 0,0 mm 0,6 km/h (0 Bft) W-SW 255 ° 0 min 0,000 mm 0,0 UV-I 0 W/m² 6,2 °C 7,1 °C 3,2 km/h (1 Bft)
09.09.2019 05:28 7,1 °C 94 % 1014,0 hPa 0,0 mm 3,5 km/h (1 Bft) W 265 ° 0 min 0,000 mm 0,0 UV-I 0 W/m² 6,2 °C 7,1 °C 6,4 km/h (2 Bft)
09.09.2019 05:29 7,1 °C 94 % 1014,1 hPa 0,0 mm 3,0 km/h (1 Bft) W-SW 256 ° 0 min 0,000 mm 0,0 UV-I 0 W/m² 6,2 °C 7,1 °C 6,4 km/h (2 Bft)
09.09.2019 05:30 7,1 °C 94 % 1014,0 hPa 0,0 mm 2,2 km/h (1 Bft) W-SW 249 ° 0 min 0,000 mm 0,0 UV-I 0 W/m² 6,2 °C 7,1 °C 4,8 km/h (1 Bft)
09.09.2019 05:31 7,1 °C 94 % 1014,1 hPa 0,0 mm 4,4 km/h (1 Bft) W 271 ° 0 min 0,000 mm 0,0 UV-I 0 W/m² 6,2 °C 7,1 °C 6,4 km/h (2 Bft)
09.09.2019 05:32 7,1 °C 94 % 1014,1 hPa 0,0 mm 2,3 km/h (1 Bft) W 267 ° 0 min 0,000 mm 0,0 UV-I 0 W/m² 6,2 °C 7,1 °C 4,8 km/h (1 Bft)
09.09.2019 05:33 7,1 °C 94 % 1014,0 hPa 0,0 mm 1,9 km/h (1 Bft) W 277 ° 0 min 0,000 mm 0,0 UV-I 0 W/m² 6,2 °C 7,1 °C 4,8 km/h (1 Bft)
09.09.2019 05:34 7,1 °C 94 % 1014,0 hPa 0,0 mm 1,7 km/h (1 Bft) W 259 ° 0 min 0,000 mm 0,0 UV-I 0 W/m² 6,2 °C 7,1 °C 4,8 km/h (1 Bft)
09.09.2019 05:35 7,1 °C 94 % 1014,0 hPa 0,0 mm 3,5 km/h (1 Bft) W 268 ° 0 min 0,000 mm 0,0 UV-I 0 W/m² 6,2 °C 7,1 °C 6,4 km/h (2 Bft)
09.09.2019 05:36 7,1 °C 94 % 1014,0 hPa 0,0 mm 3,7 km/h (1 Bft) W 261 ° 0 min 0,000 mm 0,0 UV-I 0 W/m² 6,2 °C 7,1 °C 6,4 km/h (2 Bft)
09.09.2019 05:37 7,1 °C 94 % 1014,1 hPa 0,0 mm 7,6 km/h (2 Bft) W 277 ° 0 min 0,000 mm 0,0 UV-I 0 W/m² 6,2 °C 5,7 °C 9,7 km/h (2 Bft)
09.09.2019 05:38 7,1 °C 94 % 1014,0 hPa 0,0 mm 4,7 km/h (1 Bft) W-SW 256 ° 0 min 0,000 mm 0,0 UV-I 0 W/m² 6,2 °C 6,6 °C 12,9 km/h (3 Bft)
09.09.2019 05:39 7,1 °C 94 % 1014,0 hPa 0,0 mm 9,3 km/h (2 Bft) W-SW 254 ° 0 min 0,000 mm 0,0 UV-I 0 W/m² 6,2 °C 5,3 °C 16,1 km/h (3 Bft)
09.09.2019 05:40 7,1 °C 94 % 1014,0 hPa 0,0 mm 3,1 km/h (1 Bft) W-SW 257 ° 0 min 0,000 mm 0,0 UV-I 0 W/m² 6,2 °C 7,1 °C 4,8 km/h (1 Bft)
09.09.2019 05:41 7,1 °C 94 % 1014,0 hPa 0,0 mm 2,8 km/h (1 Bft) W-SW 246 ° 0 min 0,000 mm 0,0 UV-I 0 W/m² 6,2 °C 7,1 °C 4,8 km/h (1 Bft)
09.09.2019 05:42 7,1 °C 94 % 1014,0 hPa 0,0 mm 2,8 km/h (1 Bft) W 262 ° 0 min 0,000 mm 0,0 UV-I 0 W/m² 6,2 °C 7,1 °C 6,4 km/h (2 Bft)
09.09.2019 05:43 7,1 °C 94 % 1014,1 hPa 0,0 mm 3,2 km/h (1 Bft) W-SW 256 ° 0 min 0,000 mm 0,0 UV-I 0 W/m² 6,2 °C 7,1 °C 6,4 km/h (2 Bft)
09.09.2019 05:44 7,1 °C 94 % 1014,0 hPa 0,0 mm 2,4 km/h (1 Bft) W 264 ° 0 min 0,000 mm 0,0 UV-I 0 W/m² 6,2 °C 7,1 °C 4,8 km/h (1 Bft)
09.09.2019 05:45 7,1 °C 94 % 1014,1 hPa 0,0 mm 3,6 km/h (1 Bft) W 259 ° 0 min 0,000 mm 0,0 UV-I 0 W/m² 6,2 °C 7,1 °C 8,0 km/h (2 Bft)
09.09.2019 05:46 7,1 °C 94 % 1014,1 hPa 0,0 mm 0,3 km/h (0 Bft) W 265 ° 0 min 0,000 mm 0,0 UV-I 0 W/m² 6,2 °C 7,1 °C 3,2 km/h (1 Bft)
09.09.2019 05:47 7,1 °C 94 % 1014,1 hPa 0,0 mm 3,4 km/h (1 Bft) W 275 ° 0 min 0,000 mm 0,0 UV-I 0 W/m² 6,2 °C 7,1 °C 4,8 km/h (1 Bft)
09.09.2019 05:48 7,1 °C 94 % 1014,0 hPa 0,0 mm 2,0 km/h (1 Bft) W 275 ° 0 min 0,000 mm 0,0 UV-I 0 W/m² 6,2 °C 7,1 °C 3,2 km/h (1 Bft)
09.09.2019 05:49 7,0 °C 94 % 1014,0 hPa 0,0 mm 1,9 km/h (1 Bft) W-SW 243 ° 0 min 0,000 mm 0,0 UV-I 0 W/m² 6,1 °C 7,0 °C 4,8 km/h (1 Bft)
09.09.2019 05:50 7,0 °C 94 % 1014,1 hPa 0,0 mm 2,0 km/h (1 Bft) W-SW 250 ° 0 min 0,000 mm 0,0 UV-I 0 W/m² 6,1 °C 7,0 °C 6,4 km/h (2 Bft)
09.09.2019 05:51 7,0 °C 94 % 1014,1 hPa 0,0 mm 4,4 km/h (1 Bft) W-SW 258 ° 0 min 0,000 mm 0,0 UV-I 0 W/m² 6,1 °C 7,0 °C 11,3 km/h (2 Bft)
09.09.2019 05:52 7,0 °C 94 % 1014,1 hPa 0,0 mm 2,3 km/h (1 Bft) SW 216 ° 0 min 0,000 mm 0,0 UV-I 0 W/m² 6,1 °C 7,0 °C 9,7 km/h (2 Bft)
09.09.2019 05:53 6,9 °C 94 % 1014,1 hPa 0,0 mm 1,9 km/h (1 Bft) W-SW 257 ° 0 min 0,000 mm 0,0 UV-I 0 W/m² 6,0 °C 6,9 °C 4,8 km/h (1 Bft)
09.09.2019 05:54 7,0 °C 94 % 1014,1 hPa 0,0 mm 1,7 km/h (1 Bft) W-SW 257 ° 0 min 0,000 mm 0,0 UV-I 0 W/m² 6,1 °C 7,0 °C 3,2 km/h (1 Bft)
09.09.2019 05:55 7,0 °C 94 % 1014,1 hPa 0,0 mm 1,1 km/h (1 Bft) W-SW 252 ° 0 min 0,000 mm 0,0 UV-I 0 W/m² 6,1 °C 7,0 °C 3,2 km/h (1 Bft)
09.09.2019 05:56 7,0 °C 94 % 1014,1 hPa 0,0 mm 5,9 km/h (2 Bft) W-SW 252 ° 0 min 0,000 mm 0,0 UV-I 0 W/m² 6,1 °C 6,1 °C 9,7 km/h (2 Bft)
09.09.2019 05:57 7,0 °C 94 % 1014,1 hPa 0,0 mm 2,7 km/h (1 Bft) W 264 ° 0 min 0,000 mm 0,0 UV-I 0 W/m² 6,1 °C 7,0 °C 4,8 km/h (1 Bft)
09.09.2019 05:58 7,0 °C 94 % 1014,1 hPa 0,0 mm 0,5 km/h (0 Bft) W 259 ° 0 min 0,000 mm 0,0 UV-I 0 W/m² 6,1 °C 7,0 °C 1,6 km/h (1 Bft)
09.09.2019 05:59 6,9 °C 94 % 1014,1 hPa 0,0 mm 3,2 km/h (1 Bft) W 259 ° 0 min 0,000 mm 0,0 UV-I 0 W/m² 6,0 °C 6,9 °C 6,4 km/h (2 Bft)
09.09.2019 06:00 6,9 °C 94 % 1014,1 hPa 0,0 mm 2,4 km/h (1 Bft) W 275 ° 0 min 0,000 mm 0,0 UV-I 0 W/m² 6,0 °C 6,9 °C 4,8 km/h (1 Bft)
09.09.2019 06:01 6,9 °C 94 % 1014,1 hPa 0,0 mm 2,4 km/h (1 Bft) W-SW 252 ° 0 min 0,000 mm 0,0 UV-I 0 W/m² 6,0 °C 6,9 °C 4,8 km/h (1 Bft)
09.09.2019 06:02 7,0 °C 94 % 1014,1 hPa 0,0 mm 1,3 km/h (1 Bft) W-SW 251 ° 0 min 0,000 mm 0,0 UV-I 0 W/m² 6,1 °C 7,0 °C 4,8 km/h (1 Bft)
09.09.2019 06:03 6,9 °C 94 % 1014,1 hPa 0,0 mm 4,2 km/h (1 Bft) W 270 ° 0 min 0,000 mm 0,0 UV-I 0 W/m² 6,0 °C 6,9 °C 6,4 km/h (2 Bft)
09.09.2019 06:04 6,9 °C 94 % 1014,1 hPa 0,0 mm 3,1 km/h (1 Bft) SW 232 ° 0 min 0,000 mm 0,0 UV-I 0 W/m² 6,0 °C 6,9 °C 4,8 km/h (1 Bft)
09.09.2019 06:05 7,0 °C 94 % 1014,1 hPa 0,0 mm 6,4 km/h (2 Bft) SW 215 ° 0 min 0,000 mm 0,0 UV-I 0 W/m² 6,1 °C 5,9 °C 11,3 km/h (2 Bft)
09.09.2019 06:06 6,9 °C 94 % 1014,1 hPa 0,0 mm 3,9 km/h (1 Bft) W 269 ° 0 min 0,000 mm 0,0 UV-I 0 W/m² 6,0 °C 6,9 °C 9,7 km/h (2 Bft)
09.09.2019 06:07 6,9 °C 94 % 1014,1 hPa 0,0 mm 2,6 km/h (1 Bft) W-SW 244 ° 0 min 0,000 mm 0,0 UV-I 0 W/m² 6,0 °C 6,9 °C 6,4 km/h (2 Bft)
09.09.2019 06:08 6,9 °C 94 % 1014,1 hPa 0,2 mm 0,8 km/h (0 Bft) W-SW 241 ° 0 min 0,000 mm 0,0 UV-I 0 W/m² 6,0 °C 6,9 °C 3,2 km/h (1 Bft)
09.09.2019 06:09 6,9 °C 94 % 1014,1 hPa 0,0 mm 1,0 km/h (0 Bft) W-SW 239 ° 0 min 0,000 mm 0,0 UV-I 0 W/m² 6,0 °C 6,9 °C 3,2 km/h (1 Bft)
09.09.2019 06:10 6,9 °C 94 % 1014,1 hPa 0,0 mm 1,3 km/h (1 Bft) W-SW 248 ° 0 min 0,000 mm 0,0 UV-I 0 W/m² 6,0 °C 6,9 °C 3,2 km/h (1 Bft)
09.09.2019 06:11 6,9 °C 94 % 1014,2 hPa 0,0 mm 4,8 km/h (1 Bft) S-SW 209 ° 0 min 0,000 mm 0,0 UV-I 0 W/m² 6,0 °C 6,3 °C 8,0 km/h (2 Bft)
09.09.2019 06:12 6,9 °C 94 % 1014,1 hPa 0,0 mm 3,1 km/h (1 Bft) W-SW 246 ° 0 min 0,000 mm 0,0 UV-I 0 W/m² 6,0 °C 6,9 °C 6,4 km/h (2 Bft)
09.09.2019 06:13 6,9 °C 94 % 1014,1 hPa 0,0 mm 1,8 km/h (1 Bft) W-SW 242 ° 0 min 0,000 mm 0,0 UV-I 0 W/m² 6,0 °C 6,9 °C 4,8 km/h (1 Bft)
09.09.2019 06:14 6,9 °C 94 % 1014,2 hPa 0,0 mm 5,1 km/h (1 Bft) SW 233 ° 0 min 0,000 mm 0,0 UV-I 0 W/m² 6,0 °C 6,2 °C 8,0 km/h (2 Bft)
09.09.2019 06:15 6,9 °C 94 % 1014,1 hPa 0,0 mm 0,3 km/h (0 Bft) SW 233 ° 0 min 0,000 mm 0,0 UV-I 0 W/m² 6,0 °C 6,9 °C 1,6 km/h (1 Bft)
09.09.2019 06:16 6,9 °C 94 % 1014,1 hPa 0,0 mm 2,9 km/h (1 Bft) W-NW 289 ° 0 min 0,000 mm 0,0 UV-I 0 W/m² 6,0 °C 6,9 °C 6,4 km/h (2 Bft)
09.09.2019 06:17 6,9 °C 94 % 1014,1 hPa 0,0 mm 2,8 km/h (1 Bft) S-SW 199 ° 0 min 0,000 mm 0,0 UV-I 0 W/m² 6,0 °C 6,9 °C 6,4 km/h (2 Bft)
09.09.2019 06:18 6,9 °C 94 % 1014,1 hPa 0,0 mm 2,1 km/h (1 Bft) W-NW 286 ° 0 min 0,000 mm 0,0 UV-I 0 W/m² 6,0 °C 6,9 °C 6,4 km/h (2 Bft)
09.09.2019 06:19 6,9 °C 94 % 1014,1 hPa 0,0 mm 3,4 km/h (1 Bft) W-SW 238 ° 0 min 0,000 mm 0,0 UV-I 0 W/m² 6,0 °C 6,9 °C 4,8 km/h (1 Bft)
09.09.2019 06:20 6,9 °C 94 % 1014,1 hPa 0,0 mm 2,5 km/h (1 Bft) SW 223 ° 0 min 0,000 mm 0,0 UV-I 0 W/m² 6,0 °C 6,9 °C 3,2 km/h (1 Bft)
09.09.2019 06:21 6,9 °C 94 % 1014,1 hPa 0,0 mm 4,6 km/h (1 Bft) W-NW 286 ° 0 min 0,000 mm 0,0 UV-I 0 W/m² 6,0 °C 6,4 °C 11,3 km/h (2 Bft)
09.09.2019 06:22 6,9 °C 94 % 1014,1 hPa 0,0 mm 6,3 km/h (2 Bft) SW 221 ° 0 min 0,000 mm 0,0 UV-I 0 W/m² 6,0 °C 5,8 °C 11,3 km/h (2 Bft)
09.09.2019 06:23 6,9 °C 94 % 1014,1 hPa 0,0 mm 2,1 km/h (1 Bft) W 265 ° 0 min 0,000 mm 0,0 UV-I 0 W/m² 6,0 °C 6,9 °C 6,4 km/h (2 Bft)
09.09.2019 06:24 6,9 °C 94 % 1014,1 hPa 0,0 mm 1,4 km/h (1 Bft) W 271 ° 0 min 0,000 mm 0,0 UV-I 0 W/m² 6,0 °C 6,9 °C 3,2 km/h (1 Bft)
09.09.2019 06:25 6,9 °C 94 % 1014,1 hPa 0,0 mm 1,0 km/h (0 Bft) W-SW 257 ° 0 min 0,000 mm 0,0 UV-I 0 W/m² 6,0 °C 6,9 °C 3,2 km/h (1 Bft)
09.09.2019 06:26 6,9 °C 94 % 1014,1 hPa 0,0 mm 5,4 km/h (1 Bft) SW 222 ° 0 min 0,000 mm 0,0 UV-I 0 W/m² 6,0 °C 6,1 °C 6,4 km/h (2 Bft)
09.09.2019 06:27 6,9 °C 94 % 1014,1 hPa 0,0 mm 3,6 km/h (1 Bft) W-SW 243 ° 0 min 0,000 mm 0,0 UV-I 0 W/m² 6,0 °C 6,9 °C 4,8 km/h (1 Bft)
09.09.2019 06:28 6,9 °C 94 % 1014,1 hPa 0,0 mm 6,9 km/h (2 Bft) W-SW 254 ° 0 min 0,000 mm 0,0 UV-I 0 W/m² 6,0 °C 5,6 °C 11,3 km/h (2 Bft)
09.09.2019 06:29 6,9 °C 94 % 1014,0 hPa 0,0 mm 5,0 km/h (1 Bft) W 270 ° 0 min 0,000 mm 0,0 UV-I 0 W/m² 6,0 °C 6,2 °C 9,7 km/h (2 Bft)
09.09.2019 06:30 6,9 °C 94 % 1014,1 hPa 0,0 mm 3,6 km/h (1 Bft) W 268 ° 0 min 0,000 mm 0,0 UV-I 0 W/m² 6,0 °C 6,9 °C 6,4 km/h (2 Bft)
09.09.2019 06:31 6,9 °C 94 % 1014,0 hPa 0,0 mm 2,8 km/h (1 Bft) SW 219 ° 0 min 0,000 mm 0,0 UV-I 0 W/m² 6,0 °C 6,9 °C 4,8 km/h (1 Bft)
09.09.2019 06:32 6,8 °C 94 % 1014,0 hPa 0,0 mm 4,8 km/h (1 Bft) W-SW 254 ° 0 min 0,000 mm 0,0 UV-I 0 W/m² 5,9 °C 6,2 °C 9,7 km/h (2 Bft)
09.09.2019 06:33 6,8 °C 94 % 1014,0 hPa 0,0 mm 2,5 km/h (1 Bft) W 266 ° 0 min 0,000 mm 0,0 UV-I 0 W/m² 5,9 °C 6,8 °C 9,7 km/h (2 Bft)
09.09.2019 06:34 6,8 °C 94 % 1014,0 hPa 0,0 mm 5,8 km/h (2 Bft) W-SW 244 ° 0 min 0,000 mm 0,0 UV-I 0 W/m² 5,9 °C 5,9 °C 9,7 km/h (2 Bft)
09.09.2019 06:35 6,8 °C 94 % 1014,0 hPa 0,0 mm 2,5 km/h (1 Bft) W 265 ° 0 min 0,000 mm 0,0 UV-I 0 W/m² 5,9 °C 6,8 °C 3,2 km/h (1 Bft)
09.09.2019 06:36 6,8 °C 94 % 1014,0 hPa 0,0 mm 6,4 km/h (2 Bft) SW 232 ° 0 min 0,000 mm 0,0 UV-I 0 W/m² 5,9 °C 5,7 °C 14,5 km/h (3 Bft)
09.09.2019 06:37 6,8 °C 94 % 1014,0 hPa 0,0 mm 4,6 km/h (1 Bft) W 267 ° 0 min 0,000 mm 0,0 UV-I 0 W/m² 5,9 °C 6,3 °C 11,3 km/h (2 Bft)
09.09.2019 06:38 6,8 °C 94 % 1014,0 hPa 0,0 mm 3,8 km/h (1 Bft) W-SW 238 ° 0 min 0,000 mm 0,0 UV-I 0 W/m² 5,9 °C 6,8 °C 8,0 km/h (2 Bft)
09.09.2019 06:39 6,8 °C 94 % 1014,0 hPa 0,0 mm 5,5 km/h (1 Bft) W-SW 248 ° 0 min 0,000 mm 0,0 UV-I 0 W/m² 5,9 °C 6,0 °C 8,0 km/h (2 Bft)
09.09.2019 06:40 6,8 °C 94 % 1014,0 hPa 0,0 mm 6,8 km/h (2 Bft) W-SW 247 ° 0 min 0,000 mm 0,0 UV-I 0 W/m² 5,9 °C 5,6 °C 12,9 km/h (3 Bft)
09.09.2019 06:41 6,8 °C 94 % 1014,0 hPa 0,0 mm 4,2 km/h (1 Bft) S-SW 195 ° 0 min 0,000 mm 0,0 UV-I 0 W/m² 5,9 °C 6,8 °C 6,4 km/h (2 Bft)
09.09.2019 06:42 6,8 °C 94 % 1014,0 hPa 0,0 mm 7,7 km/h (2 Bft) SW 219 ° 0 min 0,000 mm 0,0 UV-I 0 W/m² 5,9 °C 5,3 °C 11,3 km/h (2 Bft)
09.09.2019 06:43 6,8 °C 94 % 1014,0 hPa 0,0 mm 5,8 km/h (2 Bft) SW 231 ° 0 min 0,000 mm 0,0 UV-I 0 W/m² 5,9 °C 5,9 °C 8,0 km/h (2 Bft)
09.09.2019 06:44 6,8 °C 94 % 1014,0 hPa 0,0 mm 2,5 km/h (1 Bft) W-SW 255 ° 0 min 0,000 mm 0,0 UV-I 0 W/m² 5,9 °C 6,8 °C 6,4 km/h (2 Bft)
09.09.2019 06:45 6,8 °C 94 % 1014,0 hPa 0,0 mm 1,4 km/h (1 Bft) W-SW 246 ° 0 min 0,000 mm 0,0 UV-I 0 W/m² 5,9 °C 6,8 °C 6,4 km/h (2 Bft)
09.09.2019 06:46 6,8 °C 94 % 1014,0 hPa 0,0 mm 4,9 km/h (1 Bft) SW 236 ° 0 min 0,000 mm 0,0 UV-I 0 W/m² 5,9 °C 6,2 °C 8,0 km/h (2 Bft)
09.09.2019 06:47 6,8 °C 94 % 1014,1 hPa 0,0 mm 6,0 km/h (2 Bft) SW 231 ° 0 min 0,000 mm 0,0 UV-I 0 W/m² 5,9 °C 5,8 °C 11,3 km/h (2 Bft)
09.09.2019 06:48 6,8 °C 94 % 1014,1 hPa 0,0 mm 3,3 km/h (1 Bft) W 267 ° 0 min 0,000 mm 0,0 UV-I 0 W/m² 5,9 °C 6,8 °C 6,4 km/h (2 Bft)
09.09.2019 06:49 6,8 °C 94 % 1014,1 hPa 0,0 mm 3,6 km/h (1 Bft) SW 233 ° 0 min 0,000 mm 0,0 UV-I 0 W/m² 5,9 °C 6,8 °C 11,3 km/h (2 Bft)
09.09.2019 06:50 6,8 °C 94 % 1014,1 hPa 0,0 mm 0,8 km/h (0 Bft) SW 224 ° 0 min 0,000 mm 0,0 UV-I 0 W/m² 5,9 °C 6,8 °C 1,6 km/h (1 Bft)
09.09.2019 06:51 6,8 °C 94 % 1014,1 hPa 0,0 mm 5,6 km/h (1 Bft) W-SW 237 ° 0 min 0,000 mm 0,0 UV-I 0 W/m² 5,9 °C 5,9 °C 11,3 km/h (2 Bft)
09.09.2019 06:52 6,8 °C 94 % 1014,1 hPa 0,0 mm 2,3 km/h (1 Bft) W-SW 252 ° 0 min 0,000 mm 0,0 UV-I 0 W/m² 5,9 °C 6,8 °C 4,8 km/h (1 Bft)
09.09.2019 06:53 6,8 °C 94 % 1014,1 hPa 0,0 mm 4,8 km/h (1 Bft) W-SW 252 ° 0 min 0,000 mm 0,0 UV-I 0 W/m² 5,9 °C 6,2 °C 8,0 km/h (2 Bft)
09.09.2019 06:54 6,8 °C 94 % 1014,1 hPa 0,0 mm 6,4 km/h (2 Bft) W-SW 242 ° 0 min 0,000 mm 0,0 UV-I 0 W/m² 5,9 °C 5,7 °C 12,9 km/h (3 Bft)
09.09.2019 06:55 6,8 °C 94 % 1014,1 hPa 0,0 mm 7,6 km/h (2 Bft) W-SW 244 ° 0 min 0,000 mm 0,0 UV-I 0 W/m² 5,9 °C 5,3 °C 9,7 km/h (2 Bft)
09.09.2019 06:56 6,8 °C 94 % 1014,1 hPa 0,0 mm 5,1 km/h (1 Bft) W-SW 245 ° 0 min 0,000 mm 0,0 UV-I 0 W/m² 5,9 °C 6,1 °C 8,0 km/h (2 Bft)
09.09.2019 06:57 6,8 °C 94 % 1014,1 hPa 0,0 mm 4,5 km/h (1 Bft) W-SW 257 ° 0 min 0,000 mm 0,0 UV-I 0 W/m² 5,9 °C 6,8 °C 6,4 km/h (2 Bft)
09.09.2019 06:58 6,8 °C 94 % 1014,1 hPa 0,0 mm 3,1 km/h (1 Bft) S 179 ° 0 min 0,000 mm 0,0 UV-I 0 W/m² 5,9 °C 6,8 °C 4,8 km/h (1 Bft)
09.09.2019 06:59 6,8 °C 94 % 1014,1 hPa 0,0 mm 4,2 km/h (1 Bft) W-SW 254 ° 0 min 0,000 mm 0,0 UV-I 0 W/m² 5,9 °C 6,8 °C 9,7 km/h (2 Bft)
09.09.2019 07:00 6,8 °C 94 % 1014,1 hPa 0,2 mm 5,2 km/h (1 Bft) W 264 ° 0 min 0,000 mm 0,0 UV-I 5 W/m² 5,9 °C 6,1 °C 11,3 km/h (2 Bft)
09.09.2019 07:01 6,8 °C 94 % 1014,1 hPa 0,0 mm 5,2 km/h (1 Bft) W-SW 246 ° 0 min 0,000 mm 0,0 UV-I 5 W/m² 5,9 °C 6,1 °C 8,0 km/h (2 Bft)
09.09.2019 07:02 6,8 °C 94 % 1014,1 hPa 0,0 mm 2,0 km/h (1 Bft) SW 228 ° 0 min 0,000 mm 0,0 UV-I 5 W/m² 5,9 °C 6,8 °C 3,2 km/h (1 Bft)
09.09.2019 07:03 6,8 °C 94 % 1014,1 hPa 0,0 mm 2,1 km/h (1 Bft) W 275 ° 0 min 0,000 mm 0,0 UV-I 5 W/m² 5,9 °C 6,8 °C 9,7 km/h (2 Bft)
09.09.2019 07:04 6,8 °C 94 % 1014,1 hPa 0,0 mm 3,7 km/h (1 Bft) W 267 ° 0 min 0,000 mm 0,0 UV-I 5 W/m² 5,9 °C 6,8 °C 6,4 km/h (2 Bft)
09.09.2019 07:05 6,8 °C 94 % 1014,1 hPa 0,0 mm 0,7 km/h (0 Bft) SW 229 ° 0 min 0,000 mm 0,0 UV-I 5 W/m² 5,9 °C 6,8 °C 3,2 km/h (1 Bft)
09.09.2019 07:06 6,8 °C 94 % 1014,1 hPa 0,0 mm 5,6 km/h (1 Bft) W-NW 292 ° 0 min 0,000 mm 0,0 UV-I 5 W/m² 5,9 °C 5,9 °C 11,3 km/h (2 Bft)
09.09.2019 07:07 6,8 °C 94 % 1014,1 hPa 0,0 mm 5,9 km/h (2 Bft) W 264 ° 0 min 0,000 mm 0,0 UV-I 5 W/m² 5,9 °C 5,8 °C 9,7 km/h (2 Bft)
09.09.2019 07:08 6,8 °C 94 % 1014,1 hPa 0,0 mm 4,2 km/h (1 Bft) W 273 ° 0 min 0,000 mm 0,0 UV-I 7 W/m² 5,9 °C 6,8 °C 6,4 km/h (2 Bft)
09.09.2019 07:09 6,8 °C 94 % 1014,1 hPa 0,0 mm 5,1 km/h (1 Bft) W-SW 250 ° 0 min 0,000 mm 0,0 UV-I 7 W/m² 5,9 °C 6,1 °C 9,7 km/h (2 Bft)
09.09.2019 07:10 6,8 °C 94 % 1014,1 hPa 0,0 mm 2,3 km/h (1 Bft) W 259 ° 0 min 0,000 mm 0,0 UV-I 7 W/m² 5,9 °C 6,8 °C 6,4 km/h (2 Bft)
09.09.2019 07:11 6,8 °C 94 % 1014,1 hPa 0,0 mm 3,1 km/h (1 Bft) W 259 ° 0 min 0,000 mm 0,0 UV-I 7 W/m² 5,9 °C 6,8 °C 6,4 km/h (2 Bft)
09.09.2019 07:12 6,8 °C 94 % 1014,1 hPa 0,0 mm 4,7 km/h (1 Bft) W-SW 252 ° 0 min 0,000 mm 0,0 UV-I 5 W/m² 5,9 °C 6,2 °C 9,7 km/h (2 Bft)
09.09.2019 07:13 6,8 °C 94 % 1014,1 hPa 0,0 mm 1,5 km/h (1 Bft) W-SW 252 ° 0 min 0,000 mm 0,0 UV-I 5 W/m² 5,9 °C 6,8 °C 4,8 km/h (1 Bft)
09.09.2019 07:14 6,8 °C 94 % 1014,1 hPa 0,0 mm 4,6 km/h (1 Bft) W-SW 241 ° 0 min 0,000 mm 0,0 UV-I 5 W/m² 5,9 °C 6,3 °C 8,0 km/h (2 Bft)
09.09.2019 07:15 6,8 °C 94 % 1014,1 hPa 0,0 mm 5,4 km/h (1 Bft) SW 231 ° 0 min 0,000 mm 0,0 UV-I 5 W/m² 5,9 °C 6,0 °C 11,3 km/h (2 Bft)
09.09.2019 07:16 6,8 °C 94 % 1014,1 hPa 0,0 mm 3,2 km/h (1 Bft) S-SW 206 ° 0 min 0,000 mm 0,0 UV-I 7 W/m² 5,9 °C 6,8 °C 4,8 km/h (1 Bft)
09.09.2019 07:17 6,8 °C 94 % 1014,1 hPa 0,0 mm 6,2 km/h (2 Bft) W-SW 246 ° 0 min 0,000 mm 0,0 UV-I 7 W/m² 5,9 °C 5,7 °C 11,3 km/h (2 Bft)
09.09.2019 07:18 6,9 °C 94 % 1014,1 hPa 0,0 mm 3,8 km/h (1 Bft) SW 231 ° 0 min 0,000 mm 0,0 UV-I 7 W/m² 6,0 °C 6,9 °C 6,4 km/h (2 Bft)
09.09.2019 07:19 6,8 °C 94 % 1014,1 hPa 0,0 mm 7,2 km/h (2 Bft) W 264 ° 0 min 0,000 mm 0,0 UV-I 7 W/m² 5,9 °C 5,5 °C 11,3 km/h (2 Bft)
09.09.2019 07:20 6,8 °C 94 % 1014,1 hPa 0,0 mm 6,0 km/h (2 Bft) W 259 ° 0 min 0,000 mm 0,0 UV-I 9 W/m² 5,9 °C 5,8 °C 9,7 km/h (2 Bft)
09.09.2019 07:21 6,8 °C 94 % 1014,1 hPa 0,0 mm 3,9 km/h (1 Bft) W 281 ° 0 min 0,000 mm 0,0 UV-I 9 W/m² 5,9 °C 6,8 °C 6,4 km/h (2 Bft)
09.09.2019 07:22 6,8 °C 94 % 1014,1 hPa 0,0 mm 3,2 km/h (1 Bft) W-SW 254 ° 0 min 0,000 mm 0,0 UV-I 9 W/m² 5,9 °C 6,8 °C 4,8 km/h (1 Bft)
09.09.2019 07:23 6,8 °C 94 % 1014,0 hPa 0,0 mm 5,5 km/h (1 Bft) W 261 ° 0 min 0,000 mm 0,0 UV-I 9 W/m² 5,9 °C 6,0 °C 11,3 km/h (2 Bft)
09.09.2019 07:24 6,8 °C 94 % 1014,1 hPa 0,0 mm 3,5 km/h (1 Bft) W 275 ° 0 min 0,000 mm 0,0 UV-I 11 W/m² 5,9 °C 6,8 °C 6,4 km/h (2 Bft)
09.09.2019 07:25 6,8 °C 94 % 1014,1 hPa 0,0 mm 1,9 km/h (1 Bft) W 271 ° 0 min 0,000 mm 0,0 UV-I 11 W/m² 5,9 °C 6,8 °C 4,8 km/h (1 Bft)
09.09.2019 07:26 6,8 °C 94 % 1014,1 hPa 0,0 mm 4,2 km/h (1 Bft) W-SW 258 ° 0 min 0,000 mm 0,0 UV-I 11 W/m² 5,9 °C 6,8 °C 6,4 km/h (2 Bft)
09.09.2019 07:27 6,8 °C 94 % 1014,1 hPa 0,0 mm 1,2 km/h (1 Bft) W 259 ° 0 min 0,000 mm 0,0 UV-I 11 W/m² 5,9 °C 6,8 °C 3,2 km/h (1 Bft)
09.09.2019 07:28 6,9 °C 94 % 1014,1 hPa 0,0 mm 3,9 km/h (1 Bft) W-SW 251 ° 0 min 0,000 mm 0,0 UV-I 11 W/m² 6,0 °C 6,9 °C 6,4 km/h (2 Bft)
09.09.2019 07:29 6,9 °C 94 % 1014,1 hPa 0,0 mm 1,7 km/h (1 Bft) W-SW 238 ° 0 min 0,000 mm 0,0 UV-I 11 W/m² 6,0 °C 6,9 °C 3,2 km/h (1 Bft)
09.09.2019 07:30 6,9 °C 94 % 1014,1 hPa 0,0 mm 3,4 km/h (1 Bft) W-SW 240 ° 0 min 0,000 mm 0,0 UV-I 9 W/m² 6,0 °C 6,9 °C 6,4 km/h (2 Bft)
09.09.2019 07:31 6,9 °C 94 % 1014,1 hPa 0,0 mm 3,1 km/h (1 Bft) W 264 ° 0 min 0,000 mm 0,0 UV-I 11 W/m² 6,0 °C 6,9 °C 4,8 km/h (1 Bft)
09.09.2019 07:32 6,8 °C 94 % 1014,1 hPa 0,0 mm 1,8 km/h (1 Bft) W-SW 253 ° 0 min 0,000 mm 0,0 UV-I 11 W/m² 5,9 °C 6,8 °C 3,2 km/h (1 Bft)
09.09.2019 07:33 6,9 °C 94 % 1014,1 hPa 0,0 mm 3,3 km/h (1 Bft) SW 218 ° 0 min 0,000 mm 0,0 UV-I 12 W/m² 6,0 °C 6,9 °C 4,8 km/h (1 Bft)
09.09.2019 07:34 6,9 °C 94 % 1014,1 hPa 0,0 mm 2,9 km/h (1 Bft) W-SW 254 ° 0 min 0,000 mm 0,0 UV-I 12 W/m² 6,0 °C 6,9 °C 4,8 km/h (1 Bft)
09.09.2019 07:35 6,9 °C 94 % 1014,1 hPa 0,0 mm 0,7 km/h (0 Bft) W-SW 254 ° 0 min 0,000 mm 0,0 UV-I 12 W/m² 6,0 °C 6,9 °C 1,6 km/h (1 Bft)
09.09.2019 07:36 6,9 °C 94 % 1014,1 hPa 0,0 mm 1,9 km/h (1 Bft) W-SW 254 ° 0 min 0,000 mm 0,0 UV-I 12 W/m² 6,0 °C 6,9 °C 3,2 km/h (1 Bft)
09.09.2019 07:37 6,9 °C 94 % 1014,1 hPa 0,0 mm 5,1 km/h (1 Bft) W-NW 293 ° 0 min 0,000 mm 0,0 UV-I 14 W/m² 6,0 °C 6,2 °C 9,7 km/h (2 Bft)
09.09.2019 07:38 6,9 °C 94 % 1014,1 hPa 0,0 mm 3,5 km/h (1 Bft) W 267 ° 0 min 0,000 mm 0,0 UV-I 14 W/m² 6,0 °C 6,9 °C 6,4 km/h (2 Bft)
09.09.2019 07:39 6,9 °C 94 % 1014,2 hPa 0,0 mm 2,3 km/h (1 Bft) W 280 ° 0 min 0,000 mm 0,0 UV-I 14 W/m² 6,0 °C 6,9 °C 4,8 km/h (1 Bft)
09.09.2019 07:40 6,9 °C 94 % 1014,1 hPa 0,0 mm 3,8 km/h (1 Bft) W 273 ° 0 min 0,000 mm 0,0 UV-I 14 W/m² 6,0 °C 6,9 °C 6,4 km/h (2 Bft)
09.09.2019 07:41 6,9 °C 94 % 1014,1 hPa 0,0 mm 3,5 km/h (1 Bft) W-SW 242 ° 0 min 0,000 mm 0,0 UV-I 16 W/m² 6,0 °C 6,9 °C 4,8 km/h (1 Bft)
09.09.2019 07:42 6,9 °C 94 % 1014,2 hPa 0,0 mm 5,8 km/h (2 Bft) W-SW 238 ° 0 min 0,000 mm 0,0 UV-I 14 W/m² 6,0 °C 6,0 °C 11,3 km/h (2 Bft)
09.09.2019 07:43 6,9 °C 94 % 1014,2 hPa 0,0 mm 3,4 km/h (1 Bft) W-SW 243 ° 0 min 0,000 mm 0,0 UV-I 14 W/m² 6,0 °C 6,9 °C 6,4 km/h (2 Bft)
09.09.2019 07:44 6,9 °C 94 % 1014,2 hPa 0,0 mm 8,3 km/h (2 Bft) NW 304 ° 0 min 0,000 mm 0,0 UV-I 16 W/m² 6,0 °C 5,3 °C 16,1 km/h (3 Bft)
09.09.2019 07:45 6,9 °C 94 % 1014,2 hPa 0,0 mm 6,9 km/h (2 Bft) W 268 ° 0 min 0,000 mm 0,0 UV-I 16 W/m² 6,0 °C 5,6 °C 14,5 km/h (3 Bft)
09.09.2019 07:46 6,9 °C 94 % 1014,3 hPa 0,0 mm 11,3 km/h (2 Bft) W 276 ° 0 min 0,000 mm 0,0 UV-I 18 W/m² 6,0 °C 4,7 °C 17,7 km/h (3 Bft)
09.09.2019 07:47 7,0 °C 94 % 1014,2 hPa 0,0 mm 4,9 km/h (1 Bft) W 271 ° 0 min 0,000 mm 0,0 UV-I 19 W/m² 6,1 °C 6,4 °C 9,7 km/h (2 Bft)
09.09.2019 07:48 7,0 °C 94 % 1014,2 hPa 0,0 mm 10,3 km/h (2 Bft) S 175 ° 0 min 0,000 mm 0,0 UV-I 18 W/m² 6,1 °C 5,0 °C 16,1 km/h (3 Bft)
09.09.2019 07:49 6,9 °C 94 % 1014,3 hPa 0,0 mm 6,5 km/h (2 Bft) W 267 ° 0 min 0,000 mm 0,0 UV-I 18 W/m² 6,0 °C 5,8 °C 14,5 km/h (3 Bft)
09.09.2019 07:50 6,9 °C 94 % 1014,2 hPa 0,0 mm 9,2 km/h (2 Bft) W-SW 237 ° 0 min 0,000 mm 0,0 UV-I 18 W/m² 6,0 °C 5,1 °C 14,5 km/h (3 Bft)
09.09.2019 07:51 7,0 °C 94 % 1014,3 hPa 0,0 mm 5,6 km/h (1 Bft) W 259 ° 0 min 0,000 mm 0,0 UV-I 18 W/m² 6,1 °C 6,1 °C 9,7 km/h (2 Bft)
09.09.2019 07:52 7,0 °C 94 % 1014,3 hPa 0,0 mm 11,9 km/h (2 Bft) NW 312 ° 0 min 0,000 mm 0,0 UV-I 19 W/m² 6,1 °C 4,7 °C 20,9 km/h (4 Bft)
09.09.2019 07:53 7,0 °C 94 % 1014,3 hPa 0,0 mm 11,2 km/h (2 Bft) W-SW 248 ° 0 min 0,000 mm 0,0 UV-I 19 W/m² 6,1 °C 4,8 °C 17,7 km/h (3 Bft)
09.09.2019 07:54 7,0 °C 94 % 1014,3 hPa 0,0 mm 9,7 km/h (2 Bft) NW 315 ° 0 min 0,000 mm 0,0 UV-I 18 W/m² 6,1 °C 5,1 °C 17,7 km/h (3 Bft)
09.09.2019 07:55 6,9 °C 94 % 1014,3 hPa 0,0 mm 6,1 km/h (2 Bft) W-SW 257 ° 0 min 0,000 mm 0,0 UV-I 18 W/m² 6,0 °C 5,9 °C 11,3 km/h (2 Bft)
09.09.2019 07:56 7,0 °C 94 % 1014,3 hPa 0,0 mm 7,9 km/h (2 Bft) W-SW 248 ° 0 min 0,000 mm 0,0 UV-I 16 W/m² 6,1 °C 5,5 °C 12,9 km/h (3 Bft)
09.09.2019 07:57 6,9 °C 94 % 1014,4 hPa 0,0 mm 4,9 km/h (1 Bft) W 276 ° 0 min 0,000 mm 0,0 UV-I 18 W/m² 6,0 °C 6,3 °C 9,7 km/h (2 Bft)
09.09.2019 07:58 6,9 °C 94 % 1014,3 hPa 0,0 mm 2,8 km/h (1 Bft) W-SW 254 ° 0 min 0,000 mm 0,0 UV-I 19 W/m² 6,0 °C 6,9 °C 6,4 km/h (2 Bft)
09.09.2019 07:59 6,9 °C 94 % 1014,4 hPa 0,0 mm 7,7 km/h (2 Bft) W-SW 252 ° 0 min 0,000 mm 0,0 UV-I 18 W/m² 6,0 °C 5,4 °C 9,7 km/h (2 Bft)
09.09.2019 08:00 7,0 °C 94 % 1014,4 hPa 0,2 mm 5,6 km/h (1 Bft) W 279 ° 0 min 0,000 mm 0,0 UV-I 18 W/m² 6,1 °C 6,1 °C 9,7 km/h (2 Bft)
09.09.2019 08:01 6,9 °C 94 % 1014,4 hPa 0,0 mm 5,3 km/h (1 Bft) W-SW 242 ° 0 min 0,000 mm 0,0 UV-I 18 W/m² 6,0 °C 6,1 °C 9,7 km/h (2 Bft)
09.09.2019 08:02 7,0 °C 94 % 1014,4 hPa 0,0 mm 7,6 km/h (2 Bft) W 265 ° 0 min 0,000 mm 0,0 UV-I 18 W/m² 6,1 °C 5,6 °C 14,5 km/h (3 Bft)
09.09.2019 08:03 7,0 °C 94 % 1014,4 hPa 0,0 mm 4,1 km/h (1 Bft) W 264 ° 0 min 0,000 mm 0,0 UV-I 19 W/m² 6,1 °C 7,0 °C 6,4 km/h (2 Bft)
09.09.2019 08:04 7,0 °C 94 % 1014,4 hPa 0,0 mm 4,5 km/h (1 Bft) W 265 ° 0 min 0,000 mm 0,0 UV-I 21 W/m² 6,1 °C 7,0 °C 6,4 km/h (2 Bft)
09.09.2019 08:05 6,9 °C 94 % 1014,4 hPa 0,0 mm 3,8 km/h (1 Bft) W 266 ° 0 min 0,000 mm 0,0 UV-I 23 W/m² 6,0 °C 6,9 °C 6,4 km/h (2 Bft)
09.09.2019 08:06 7,0 °C 94 % 1014,4 hPa 0,0 mm 5,8 km/h (2 Bft) W 265 ° 0 min 0,000 mm 0,0 UV-I 25 W/m² 6,1 °C 6,1 °C 9,7 km/h (2 Bft)
09.09.2019 08:07 7,0 °C 94 % 1014,4 hPa 0,0 mm 7,1 km/h (2 Bft) W-SW 256 ° 0 min 0,000 mm 0,0 UV-I 23 W/m² 6,1 °C 5,7 °C 11,3 km/h (2 Bft)
09.09.2019 08:08 7,0 °C 94 % 1014,4 hPa 0,0 mm 5,4 km/h (1 Bft) W 262 ° 0 min 0,000 mm 0,0 UV-I 21 W/m² 6,1 °C 6,2 °C 8,0 km/h (2 Bft)
09.09.2019 08:09 7,0 °C 94 % 1014,4 hPa 0,0 mm 8,3 km/h (2 Bft) SW 227 ° 0 min 0,000 mm 0,0 UV-I 21 W/m² 6,1 °C 5,4 °C 11,3 km/h (2 Bft)
09.09.2019 08:10 7,0 °C 94 % 1014,4 hPa 0,0 mm 4,1 km/h (1 Bft) W-SW 248 ° 0 min 0,000 mm 0,0 UV-I 23 W/m² 6,1 °C 7,0 °C 6,4 km/h (2 Bft)
09.09.2019 08:11 7,0 °C 94 % 1014,4 hPa 0,0 mm 2,7 km/h (1 Bft) W-SW 256 ° 0 min 0,000 mm 0,0 UV-I 25 W/m² 6,1 °C 7,0 °C 4,8 km/h (1 Bft)
09.09.2019 08:12 7,1 °C 94 % 1014,4 hPa 0,0 mm 2,0 km/h (1 Bft) W-SW 258 ° 0 min 0,000 mm 0,0 UV-I 25 W/m² 6,2 °C 7,1 °C 4,8 km/h (1 Bft)
09.09.2019 08:13 7,0 °C 94 % 1014,5 hPa 0,0 mm 3,9 km/h (1 Bft) W-SW 248 ° 0 min 0,000 mm 0,0 UV-I 23 W/m² 6,1 °C 7,0 °C 6,4 km/h (2 Bft)
09.09.2019 08:14 7,0 °C 94 % 1014,5 hPa 0,0 mm 2,3 km/h (1 Bft) W 259 ° 0 min 0,000 mm 0,0 UV-I 21 W/m² 6,1 °C 7,0 °C 4,8 km/h (1 Bft)
09.09.2019 08:15 7,0 °C 94 % 1014,5 hPa 0,0 mm 7,8 km/h (2 Bft) W-NW 300 ° 0 min 0,000 mm 0,0 UV-I 21 W/m² 6,1 °C 5,5 °C 12,9 km/h (3 Bft)
09.09.2019 08:16 7,1 °C 94 % 1014,4 hPa 0,0 mm 8,1 km/h (2 Bft) W-NW 284 ° 0 min 0,000 mm 0,0 UV-I 21 W/m² 6,2 °C 5,6 °C 12,9 km/h (3 Bft)
09.09.2019 08:17 7,1 °C 94 % 1014,4 hPa 0,0 mm 5,8 km/h (2 Bft) W-NW 294 ° 0 min 0,000 mm 0,0 UV-I 23 W/m² 6,2 °C 6,2 °C 9,7 km/h (2 Bft)
09.09.2019 08:18 7,0 °C 94 % 1014,4 hPa 0,0 mm 3,5 km/h (1 Bft) W-SW 239 ° 0 min 0,000 mm 0,0 UV-I 23 W/m² 6,1 °C 7,0 °C 8,0 km/h (2 Bft)
09.09.2019 08:19 7,0 °C 94 % 1014,5 hPa 0,0 mm 2,6 km/h (1 Bft) W-SW 252 ° 0 min 0,000 mm 0,0 UV-I 23 W/m² 6,1 °C 7,0 °C 4,8 km/h (1 Bft)
09.09.2019 08:20 7,1 °C 94 % 1014,5 hPa 0,0 mm 0,8 km/h (0 Bft) W-SW 253 ° 0 min 0,000 mm 0,0 UV-I 21 W/m² 6,2 °C 7,1 °C 1,6 km/h (1 Bft)
09.09.2019 08:21 7,1 °C 94 % 1014,5 hPa 0,0 mm 3,0 km/h (1 Bft) W 270 ° 0 min 0,000 mm 0,0 UV-I 25 W/m² 6,2 °C 7,1 °C 3,2 km/h (1 Bft)
09.09.2019 08:22 7,1 °C 94 % 1014,5 hPa 0,0 mm 3,4 km/h (1 Bft) W 264 ° 0 min 0,000 mm 0,0 UV-I 28 W/m² 6,2 °C 7,1 °C 6,4 km/h (2 Bft)
09.09.2019 08:23 7,1 °C 94 % 1014,5 hPa 0,0 mm 3,5 km/h (1 Bft) W 262 ° 0 min 0,000 mm 0,0 UV-I 28 W/m² 6,2 °C 7,1 °C 4,8 km/h (1 Bft)
09.09.2019 08:24 7,1 °C 94 % 1014,4 hPa 0,0 mm 3,0 km/h (1 Bft) W-SW 257 ° 0 min 0,000 mm 0,0 UV-I 32 W/m² 6,2 °C 7,1 °C 4,8 km/h (1 Bft)
09.09.2019 08:25 7,1 °C 94 % 1014,4 hPa 0,0 mm 9,4 km/h (2 Bft) W-SW 244 ° 0 min 0,000 mm 0,0 UV-I 37 W/m² 6,2 °C 5,3 °C 11,3 km/h (2 Bft)
09.09.2019 08:26 7,1 °C 94 % 1014,5 hPa 0,0 mm 3,8 km/h (1 Bft) W-NW 288 ° 0 min 0,000 mm 0,0 UV-I 37 W/m² 6,2 °C 7,1 °C 6,4 km/h (2 Bft)
09.09.2019 08:27 7,1 °C 94 % 1014,4 hPa 0,0 mm 4,2 km/h (1 Bft) W-SW 246 ° 0 min 0,000 mm 0,0 UV-I 37 W/m² 6,2 °C 7,1 °C 6,4 km/h (2 Bft)
09.09.2019 08:28 7,1 °C 94 % 1014,4 hPa 0,0 mm 8,3 km/h (2 Bft) W 269 ° 0 min 0,000 mm 0,0 UV-I 35 W/m² 6,2 °C 5,5 °C 12,9 km/h (3 Bft)
09.09.2019 08:29 7,1 °C 94 % 1014,6 hPa 0,0 mm 12,2 km/h (2 Bft) W 260 ° 0 min 0,000 mm 0,0 UV-I 35 W/m² 6,2 °C 4,8 °C 19,3 km/h (3 Bft)
09.09.2019 08:30 7,2 °C 94 % 1014,5 hPa 0,0 mm 8,4 km/h (2 Bft) W-NW 300 ° 0 min 0,000 mm 0,0 UV-I 35 W/m² 6,3 °C 5,6 °C 12,9 km/h (3 Bft)
09.09.2019 08:31 7,1 °C 94 % 1014,5 hPa 0,0 mm 9,3 km/h (2 Bft) W 261 ° 0 min 0,000 mm 0,0 UV-I 35 W/m² 6,2 °C 5,3 °C 16,1 km/h (3 Bft)
09.09.2019 08:32 7,2 °C 94 % 1014,5 hPa 0,0 mm 7,0 km/h (2 Bft) W-NW 288 ° 0 min 0,000 mm 0,0 UV-I 35 W/m² 6,3 °C 6,0 °C 11,3 km/h (2 Bft)
09.09.2019 08:33 7,2 °C 94 % 1014,4 hPa 0,0 mm 8,3 km/h (2 Bft) W 279 ° 0 min 0,000 mm 0,0 UV-I 33 W/m² 6,3 °C 5,6 °C 12,9 km/h (3 Bft)
09.09.2019 08:34 7,2 °C 94 % 1014,5 hPa 0,0 mm 11,1 km/h (2 Bft) W 263 ° 0 min 0,000 mm 0,0 UV-I 40 W/m² 6,3 °C 5,1 °C 16,1 km/h (3 Bft)
09.09.2019 08:35 7,2 °C 94 % 1014,5 hPa 0,0 mm 8,1 km/h (2 Bft) W 259 ° 0 min 0,000 mm 0,0 UV-I 42 W/m² 6,3 °C 5,7 °C 12,9 km/h (3 Bft)
09.09.2019 08:36 7,2 °C 94 % 1014,5 hPa 0,0 mm 7,2 km/h (2 Bft) W 271 ° 0 min 0,000 mm 0,0 UV-I 40 W/m² 6,3 °C 5,9 °C 11,3 km/h (2 Bft)
09.09.2019 08:37 7,2 °C 94 % 1014,5 hPa 0,0 mm 3,5 km/h (1 Bft) W 273 ° 0 min 0,000 mm 0,0 UV-I 40 W/m² 6,3 °C 7,2 °C 4,8 km/h (1 Bft)
09.09.2019 08:38 7,2 °C 94 % 1014,5 hPa 0,0 mm 8,7 km/h (2 Bft) W 267 ° 0 min 0,000 mm 0,0 UV-I 40 W/m² 6,3 °C 5,6 °C 17,7 km/h (3 Bft)
09.09.2019 08:39 7,2 °C 94 % 1014,5 hPa 0,0 mm 8,6 km/h (2 Bft) W-NW 287 ° 0 min 0,000 mm 0,0 UV-I 39 W/m² 6,3 °C 5,6 °C 12,9 km/h (3 Bft)
09.09.2019 08:40 7,2 °C 94 % 1014,5 hPa 0,0 mm 4,4 km/h (1 Bft) W-NW 288 ° 0 min 0,000 mm 0,0 UV-I 32 W/m² 6,3 °C 7,2 °C 9,7 km/h (2 Bft)
09.09.2019 08:41 7,2 °C 94 % 1014,5 hPa 0,0 mm 11,7 km/h (2 Bft) W 262 ° 0 min 0,000 mm 0,0 UV-I 33 W/m² 6,3 °C 5,0 °C 14,5 km/h (3 Bft)
09.09.2019 08:42 7,2 °C 94 % 1014,5 hPa 0,0 mm 6,6 km/h (2 Bft) W-NW 283 ° 0 min 0,000 mm 0,0 UV-I 39 W/m² 6,3 °C 6,1 °C 9,7 km/h (2 Bft)
09.09.2019 08:43 7,2 °C 94 % 1014,5 hPa 0,0 mm 6,2 km/h (2 Bft) W-SW 252 ° 0 min 0,000 mm 0,0 UV-I 40 W/m² 6,3 °C 6,2 °C 9,7 km/h (2 Bft)
09.09.2019 08:44 7,2 °C 94 % 1014,5 hPa 0,0 mm 5,5 km/h (1 Bft) W-SW 252 ° 0 min 0,000 mm 0,0 UV-I 40 W/m² 6,3 °C 6,4 °C 16,1 km/h (3 Bft)
09.09.2019 08:45 7,2 °C 94 % 1014,5 hPa 0,0 mm 10,1 km/h (2 Bft) W-SW 244 ° 0 min 0,000 mm 0,0 UV-I 40 W/m² 6,3 °C 5,3 °C 12,9 km/h (3 Bft)
09.09.2019 08:46 7,3 °C 94 % 1014,5 hPa 0,0 mm 8,9 km/h (2 Bft) W 281 ° 0 min 0,000 mm 0,0 UV-I 42 W/m² 6,4 °C 5,6 °C 12,9 km/h (3 Bft)
09.09.2019 08:47 7,2 °C 94 % 1014,5 hPa 0,0 mm 8,1 km/h (2 Bft) W 271 ° 0 min 0,000 mm 0,0 UV-I 44 W/m² 6,3 °C 5,7 °C 12,9 km/h (3 Bft)
09.09.2019 08:48 7,3 °C 94 % 1014,5 hPa 0,2 mm 7,9 km/h (2 Bft) W-SW 252 ° 0 min 0,000 mm 0,0 UV-I 47 W/m² 6,4 °C 5,9 °C 11,3 km/h (2 Bft)
09.09.2019 08:49 7,2 °C 94 % 1014,6 hPa 0,0 mm 6,4 km/h (2 Bft) W 271 ° 0 min 0,000 mm 0,0 UV-I 47 W/m² 6,3 °C 6,1 °C 11,3 km/h (2 Bft)
09.09.2019 08:50 7,3 °C 94 % 1014,6 hPa 0,0 mm 8,6 km/h (2 Bft) NW 306 ° 0 min 0,000 mm 0,0 UV-I 47 W/m² 6,4 °C 5,7 °C 12,9 km/h (3 Bft)
09.09.2019 08:51 7,3 °C 94 % 1014,6 hPa 0,0 mm 7,0 km/h (2 Bft) W-NW 288 ° 0 min 0,000 mm 0,0 UV-I 44 W/m² 6,4 °C 6,1 °C 11,3 km/h (2 Bft)
09.09.2019 08:52 7,3 °C 94 % 1014,6 hPa 0,0 mm 8,2 km/h (2 Bft) NW 305 ° 0 min 0,000 mm 0,0 UV-I 44 W/m² 6,4 °C 5,8 °C 11,3 km/h (2 Bft)
09.09.2019 08:53 7,3 °C 94 % 1014,6 hPa 0,0 mm 7,5 km/h (2 Bft) W-SW 257 ° 0 min 0,000 mm 0,0 UV-I 44 W/m² 6,4 °C 6,0 °C 11,3 km/h (2 Bft)
09.09.2019 08:54 7,3 °C 94 % 1014,7 hPa 0,0 mm 6,7 km/h (2 Bft) W-SW 240 ° 0 min 0,000 mm 0,0 UV-I 44 W/m² 6,4 °C 6,2 °C 11,3 km/h (2 Bft)
09.09.2019 08:55 7,3 °C 94 % 1014,6 hPa 0,0 mm 9,9 km/h (2 Bft) W 271 ° 0 min 0,000 mm 0,0 UV-I 44 W/m² 6,4 °C 5,4 °C 12,9 km/h (3 Bft)
09.09.2019 08:56 7,3 °C 94 % 1014,6 hPa 0,0 mm 10,7 km/h (2 Bft) W-SW 241 ° 0 min 0,000 mm 0,0 UV-I 47 W/m² 6,4 °C 5,3 °C 16,1 km/h (3 Bft)
09.09.2019 08:57 7,3 °C 94 % 1014,6 hPa 0,0 mm 8,7 km/h (2 Bft) W-SW 253 ° 0 min 0,000 mm 0,0 UV-I 51 W/m² 6,4 °C 5,7 °C 16,1 km/h (3 Bft)
09.09.2019 08:58 7,3 °C 94 % 1014,6 hPa 0,0 mm 10,2 km/h (2 Bft) W-SW 240 ° 0 min 0,000 mm 0,0 UV-I 49 W/m² 6,4 °C 5,4 °C 14,5 km/h (3 Bft)
09.09.2019 08:59 7,3 °C 94 % 1014,6 hPa 0,0 mm 7,6 km/h (2 Bft) W-SW 250 ° 0 min 0,000 mm 0,0 UV-I 44 W/m² 6,4 °C 5,9 °C 11,3 km/h (2 Bft)
09.09.2019 09:00 7,3 °C 94 % 1014,7 hPa 0,0 mm 9,1 km/h (2 Bft) W-SW 252 ° 0 min 0,025 mm 0,0 UV-I 49 W/m² 6,4 °C 5,6 °C 12,9 km/h (3 Bft)
09.09.2019 09:01 7,3 °C 94 % 1014,6 hPa 0,0 mm 9,5 km/h (2 Bft) W-SW 256 ° 0 min 0,000 mm 0,0 UV-I 54 W/m² 6,4 °C 5,5 °C 14,5 km/h (3 Bft)
09.09.2019 09:02 7,3 °C 94 % 1014,7 hPa 0,0 mm 4,8 km/h (1 Bft) W-SW 252 ° 0 min 0,000 mm 0,0 UV-I 56 W/m² 6,4 °C 6,8 °C 9,7 km/h (2 Bft)
09.09.2019 09:03 7,3 °C 94 % 1014,7 hPa 0,0 mm 9,9 km/h (2 Bft) W-SW 257 ° 0 min 0,000 mm 0,0 UV-I 54 W/m² 6,4 °C 5,4 °C 16,1 km/h (3 Bft)
09.09.2019 09:04 7,3 °C 94 % 1014,6 hPa 0,0 mm 10,0 km/h (2 Bft) W-SW 246 ° 0 min 0,000 mm 0,0 UV-I 54 W/m² 6,4 °C 5,4 °C 14,5 km/h (3 Bft)
09.09.2019 09:05 7,3 °C 94 % 1014,6 hPa 0,0 mm 5,6 km/h (1 Bft) W 267 ° 0 min 0,000 mm 0,0 UV-I 54 W/m² 6,4 °C 6,5 °C 11,3 km/h (2 Bft)
09.09.2019 09:06 7,3 °C 94 % 1014,7 hPa 0,0 mm 4,4 km/h (1 Bft) W-SW 250 ° 0 min 0,000 mm 0,0 UV-I 51 W/m² 6,4 °C 7,3 °C 9,7 km/h (2 Bft)
09.09.2019 09:07 7,3 °C 94 % 1014,7 hPa 0,0 mm 6,0 km/h (2 Bft) W 272 ° 0 min 0,000 mm 0,0 UV-I 51 W/m² 6,4 °C 6,4 °C 11,3 km/h (2 Bft)
09.09.2019 09:08 7,3 °C 94 % 1014,6 hPa 0,0 mm 9,9 km/h (2 Bft) SW 236 ° 0 min 0,000 mm 0,0 UV-I 54 W/m² 6,4 °C 5,4 °C 14,5 km/h (3 Bft)
09.09.2019 09:09 7,3 °C 94 % 1014,7 hPa 0,0 mm 6,1 km/h (2 Bft) W 260 ° 0 min 0,000 mm 0,0 UV-I 56 W/m² 6,4 °C 6,3 °C 9,7 km/h (2 Bft)
09.09.2019 09:10 7,4 °C 94 % 1014,7 hPa 0,0 mm 5,8 km/h (2 Bft) W 260 ° 0 min 0,000 mm 0,5 UV-I 58 W/m² 6,5 °C 6,5 °C 9,7 km/h (2 Bft)
09.09.2019 09:11 7,4 °C 94 % 1014,7 hPa 0,0 mm 6,9 km/h (2 Bft) W-NW 284 ° 0 min 0,000 mm 0,5 UV-I 62 W/m² 6,5 °C 6,2 °C 11,3 km/h (2 Bft)
09.09.2019 09:12 7,4 °C 94 % 1014,7 hPa 0,0 mm 6,3 km/h (2 Bft) W-NW 294 ° 0 min 0,000 mm 0,5 UV-I 62 W/m² 6,5 °C 6,4 °C 11,3 km/h (2 Bft)
09.09.2019 09:13 7,4 °C 94 % 1014,7 hPa 0,0 mm 3,5 km/h (1 Bft) W-NW 297 ° 0 min 0,000 mm 0,5 UV-I 62 W/m² 6,5 °C 7,4 °C 8,0 km/h (2 Bft)
09.09.2019 09:14 7,4 °C 94 % 1014,7 hPa 0,0 mm 6,5 km/h (2 Bft) W-NW 288 ° 0 min 0,000 mm 0,5 UV-I 67 W/m² 6,5 °C 6,3 °C 12,9 km/h (3 Bft)
09.09.2019 09:15 7,4 °C 94 % 1014,7 hPa 0,0 mm 12,8 km/h (3 Bft) W 268 ° 0 min 0,000 mm 0,5 UV-I 72 W/m² 6,5 °C 5,0 °C 19,3 km/h (3 Bft)
09.09.2019 09:16 7,4 °C 94 % 1014,7 hPa 0,0 mm 14,1 km/h (3 Bft) W 271 ° 0 min 0,000 mm 0,5 UV-I 74 W/m² 6,5 °C 4,8 °C 16,1 km/h (3 Bft)
09.09.2019 09:17 7,4 °C 94 % 1014,7 hPa 0,0 mm 8,6 km/h (2 Bft) SW 236 ° 0 min 0,000 mm 0,6 UV-I 76 W/m² 6,5 °C 5,8 °C 14,5 km/h (3 Bft)
09.09.2019 09:18 7,4 °C 94 % 1014,8 hPa 0,0 mm 8,2 km/h (2 Bft) W-SW 253 ° 0 min 0,000 mm 0,6 UV-I 79 W/m² 6,5 °C 5,9 °C 12,9 km/h (3 Bft)
09.09.2019 09:19 7,4 °C 94 % 1014,8 hPa 0,0 mm 9,6 km/h (2 Bft) W 267 ° 0 min 0,000 mm 0,6 UV-I 83 W/m² 6,5 °C 5,6 °C 12,9 km/h (3 Bft)
09.09.2019 09:20 7,4 °C 94 % 1014,8 hPa 0,0 mm 9,2 km/h (2 Bft) W-SW 241 ° 0 min 0,000 mm 0,6 UV-I 84 W/m² 6,5 °C 5,7 °C 12,9 km/h (3 Bft)
09.09.2019 09:21 7,5 °C 94 % 1014,8 hPa 0,0 mm 3,1 km/h (1 Bft) W 262 ° 0 min 0,000 mm 0,6 UV-I 90 W/m² 6,6 °C 7,5 °C 6,4 km/h (2 Bft)
09.09.2019 09:22 7,4 °C 94 % 1014,8 hPa 0,0 mm 6,3 km/h (2 Bft) W 277 ° 0 min 0,000 mm 0,7 UV-I 93 W/m² 6,5 °C 6,4 °C 9,7 km/h (2 Bft)
09.09.2019 09:23 7,5 °C 94 % 1014,8 hPa 0,0 mm 5,2 km/h (1 Bft) W-SW 255 ° 0 min 0,000 mm 0,7 UV-I 100 W/m² 6,6 °C 6,9 °C 9,7 km/h (2 Bft)
09.09.2019 09:24 7,6 °C 94 % 1014,8 hPa 0,0 mm 6,6 km/h (2 Bft) W-NW 296 ° 0 min 0,000 mm 0,7 UV-I 104 W/m² 6,7 °C 6,5 °C 11,3 km/h (2 Bft)
09.09.2019 09:25 7,6 °C 94 % 1014,8 hPa 0,0 mm 7,2 km/h (2 Bft) W 275 ° 0 min 0,000 mm 0,7 UV-I 102 W/m² 6,7 °C 6,4 °C 11,3 km/h (2 Bft)
09.09.2019 09:26 7,6 °C 94 % 1014,8 hPa 0,0 mm 11,0 km/h (2 Bft) W-NW 302 ° 0 min 0,000 mm 0,7 UV-I 98 W/m² 6,7 °C 5,6 °C 14,5 km/h (3 Bft)
09.09.2019 09:27 7,6 °C 94 % 1014,8 hPa 0,0 mm 8,0 km/h (2 Bft) W-SW 253 ° 0 min 0,000 mm 0,7 UV-I 98 W/m² 6,7 °C 6,2 °C 14,5 km/h (3 Bft)
09.09.2019 09:28 7,6 °C 94 % 1014,8 hPa 0,0 mm 8,2 km/h (2 Bft) W 267 ° 0 min 0,000 mm 0,7 UV-I 102 W/m² 6,7 °C 6,1 °C 12,9 km/h (3 Bft)
09.09.2019 09:29 7,6 °C 94 % 1014,8 hPa 0,0 mm 6,9 km/h (2 Bft) W-SW 246 ° 0 min 0,000 mm 0,7 UV-I 109 W/m² 6,7 °C 6,5 °C 12,9 km/h (3 Bft)
09.09.2019 09:30 7,6 °C 94 % 1014,8 hPa 0,0 mm 3,4 km/h (1 Bft) W-NW 282 ° 0 min 0,000 mm 0,8 UV-I 125 W/m² 6,7 °C 7,6 °C 6,4 km/h (2 Bft)
09.09.2019 09:31 7,6 °C 94 % 1014,8 hPa 0,0 mm 5,9 km/h (2 Bft) W 273 ° 0 min 0,000 mm 0,8 UV-I 125 W/m² 6,7 °C 6,7 °C 11,3 km/h (2 Bft)
09.09.2019 09:32 7,6 °C 94 % 1014,8 hPa 0,0 mm 6,0 km/h (2 Bft) W 279 ° 0 min 0,000 mm 0,8 UV-I 139 W/m² 6,7 °C 6,7 °C 9,7 km/h (2 Bft)
09.09.2019 09:33 7,7 °C 94 % 1014,8 hPa 0,0 mm 8,4 km/h (2 Bft) SW 226 ° 0 min 0,000 mm 0,8 UV-I 141 W/m² 6,8 °C 6,2 °C 12,9 km/h (3 Bft)
09.09.2019 09:34 7,7 °C 94 % 1014,8 hPa 0,0 mm 6,4 km/h (2 Bft) W 271 ° 0 min 0,000 mm 0,8 UV-I 148 W/m² 6,8 °C 6,7 °C 12,9 km/h (3 Bft)
09.09.2019 09:35 7,7 °C 94 % 1014,8 hPa 0,0 mm 9,2 km/h (2 Bft) W-SW 254 ° 0 min 0,000 mm 0,8 UV-I 148 W/m² 6,8 °C 6,0 °C 11,3 km/h (2 Bft)
09.09.2019 09:36 7,7 °C 94 % 1014,8 hPa 0,0 mm 5,9 km/h (2 Bft) W-NW 288 ° 0 min 0,000 mm 0,8 UV-I 146 W/m² 6,8 °C 6,9 °C 9,7 km/h (2 Bft)
09.09.2019 09:37 7,7 °C 94 % 1014,8 hPa 0,0 mm 6,8 km/h (2 Bft) W-NW 288 ° 0 min 0,000 mm 0,9 UV-I 153 W/m² 6,8 °C 6,6 °C 9,7 km/h (2 Bft)
09.09.2019 09:38 7,8 °C 94 % 1014,8 hPa 0,0 mm 5,4 km/h (1 Bft) SW 235 ° 0 min 0,000 mm 0,9 UV-I 167 W/m² 6,9 °C 7,1 °C 9,7 km/h (2 Bft)
09.09.2019 09:39 7,8 °C 94 % 1014,8 hPa 0,0 mm 6,3 km/h (2 Bft) W 274 ° 0 min 0,000 mm 0,9 UV-I 156 W/m² 6,9 °C 6,9 °C 12,9 km/h (3 Bft)
09.09.2019 09:40 7,8 °C 94 % 1014,8 hPa 0,0 mm 8,0 km/h (2 Bft) W-NW 289 ° 0 min 0,000 mm 0,9 UV-I 156 W/m² 6,9 °C 6,4 °C 12,9 km/h (3 Bft)
09.09.2019 09:41 7,8 °C 94 % 1014,8 hPa 0,0 mm 9,4 km/h (2 Bft) W 260 ° 0 min 0,000 mm 0,9 UV-I 156 W/m² 6,9 °C 6,1 °C 14,5 km/h (3 Bft)
09.09.2019 09:42 7,8 °C 94 % 1014,8 hPa 0,0 mm 7,0 km/h (2 Bft) W-SW 255 ° 0 min 0,000 mm 1,0 UV-I 158 W/m² 6,9 °C 6,7 °C 9,7 km/h (2 Bft)
09.09.2019 09:43 7,8 °C 94 % 1014,8 hPa 0,0 mm 7,6 km/h (2 Bft) W 267 ° 0 min 0,000 mm 1,0 UV-I 158 W/m² 6,9 °C 6,5 °C 12,9 km/h (3 Bft)
09.09.2019 09:44 7,9 °C 95 % 1014,8 hPa 0,0 mm 4,5 km/h (1 Bft) W-NW 297 ° 0 min 0,000 mm 0,9 UV-I 162 W/m² 7,1 °C 7,9 °C 6,4 km/h (2 Bft)
09.09.2019 09:45 7,9 °C 94 % 1014,8 hPa 0,0 mm 5,4 km/h (1 Bft) W-SW 256 ° 0 min 0,000 mm 1,0 UV-I 162 W/m² 7,0 °C 7,2 °C 9,7 km/h (2 Bft)
09.09.2019 09:46 7,9 °C 95 % 1014,8 hPa 0,2 mm 5,5 km/h (1 Bft) N-NW 333 ° 0 min 0,000 mm 1,1 UV-I 169 W/m² 7,1 °C 7,2 °C 12,9 km/h (3 Bft)
09.09.2019 09:47 8,0 °C 95 % 1014,8 hPa 0,0 mm 6,4 km/h (2 Bft) SW 229 ° 0 min 0,000 mm 1,2 UV-I 192 W/m² 7,2 °C 7,1 °C 11,3 km/h (2 Bft)
09.09.2019 09:48 8,0 °C 94 % 1014,8 hPa 0,0 mm 7,2 km/h (2 Bft) NW 306 ° 0 min 0,000 mm 1,2 UV-I 209 W/m² 7,1 °C 6,8 °C 12,9 km/h (3 Bft)
09.09.2019 09:49 8,1 °C 94 % 1014,7 hPa 0,0 mm 5,9 km/h (2 Bft) SW 227 ° 0 min 0,000 mm 1,2 UV-I 209 W/m² 7,2 °C 7,3 °C 9,7 km/h (2 Bft)
09.09.2019 09:50 8,2 °C 95 % 1014,8 hPa 0,0 mm 5,2 km/h (1 Bft) W 264 ° 0 min 0,000 mm 1,2 UV-I 206 W/m² 7,4 °C 7,6 °C 9,7 km/h (2 Bft)
09.09.2019 09:51 8,2 °C 94 % 1014,7 hPa 0,0 mm 6,3 km/h (2 Bft) W-NW 284 ° 0 min 0,000 mm 1,1 UV-I 193 W/m² 7,3 °C 7,3 °C 11,3 km/h (2 Bft)
09.09.2019 09:52 8,2 °C 95 % 1014,7 hPa 0,0 mm 8,4 km/h (2 Bft) NW 311 ° 0 min 0,000 mm 1,1 UV-I 185 W/m² 7,4 °C 6,8 °C 16,1 km/h (3 Bft)
09.09.2019 09:53 8,3 °C 95 % 1014,8 hPa 0,0 mm 8,7 km/h (2 Bft) W-NW 284 ° 0 min 0,000 mm 1,1 UV-I 186 W/m² 7,5 °C 6,9 °C 12,9 km/h (3 Bft)
09.09.2019 09:54 8,3 °C 95 % 1014,8 hPa 0,0 mm 6,0 km/h (2 Bft) W-NW 284 ° 0 min 0,000 mm 1,1 UV-I 185 W/m² 7,5 °C 7,5 °C 9,7 km/h (2 Bft)
09.09.2019 09:55 8,3 °C 94 % 1014,8 hPa 0,0 mm 4,6 km/h (1 Bft) W-SW 250 ° 0 min 0,000 mm 1,1 UV-I 179 W/m² 7,4 °C 8,0 °C 11,3 km/h (2 Bft)
09.09.2019 09:56 8,4 °C 94 % 1014,8 hPa 0,0 mm 5,6 km/h (1 Bft) W 263 ° 0 min 0,000 mm 1,1 UV-I 162 W/m² 7,5 °C 7,7 °C 11,3 km/h (2 Bft)
09.09.2019 09:57 8,3 °C 94 % 1014,8 hPa 0,0 mm 14,3 km/h (3 Bft) W-NW 290 ° 0 min 0,000 mm 1,1 UV-I 169 W/m² 7,4 °C 5,9 °C 16,1 km/h (3 Bft)
09.09.2019 09:58 8,3 °C 94 % 1014,8 hPa 0,0 mm 8,2 km/h (2 Bft) NW 306 ° 0 min 0,000 mm 1,2 UV-I 192 W/m² 7,4 °C 7,0 °C 12,9 km/h (3 Bft)
09.09.2019 09:59 8,3 °C 94 % 1014,8 hPa 0,0 mm 7,7 km/h (2 Bft) W-SW 242 ° 0 min 0,000 mm 1,1 UV-I 195 W/m² 7,4 °C 7,1 °C 11,3 km/h (2 Bft)
09.09.2019 10:00 8,3 °C 94 % 1014,8 hPa 0,0 mm 6,7 km/h (2 Bft) W-NW 285 ° 0 min 0,000 mm 1,1 UV-I 195 W/m² 7,4 °C 7,3 °C 9,7 km/h (2 Bft)
09.09.2019 10:01 8,4 °C 94 % 1014,9 hPa 0,0 mm 4,7 km/h (1 Bft) W-SW 254 ° 0 min 0,051 mm 0,9 UV-I 153 W/m² 7,5 °C 8,0 °C 11,3 km/h (2 Bft)
09.09.2019 10:02 8,4 °C 94 % 1014,9 hPa 0,0 mm 7,4 km/h (2 Bft) N-NW 333 ° 0 min 0,000 mm 0,8 UV-I 118 W/m² 7,5 °C 7,3 °C 14,5 km/h (3 Bft)
09.09.2019 10:03 8,4 °C 94 % 1014,8 hPa 0,0 mm 8,5 km/h (2 Bft) W 266 ° 0 min 0,000 mm 1,1 UV-I 139 W/m² 7,5 °C 7,0 °C 14,5 km/h (3 Bft)
09.09.2019 10:04 8,4 °C 94 % 1014,9 hPa 0,0 mm 9,3 km/h (2 Bft) W-NW 284 ° 0 min 0,000 mm 1,1 UV-I 153 W/m² 7,5 °C 6,9 °C 12,9 km/h (3 Bft)
09.09.2019 10:05 8,3 °C 94 % 1014,8 hPa 0,0 mm 10,4 km/h (2 Bft) W 277 ° 0 min 0,000 mm 1,1 UV-I 142 W/m² 7,4 °C 6,5 °C 16,1 km/h (3 Bft)
09.09.2019 10:06 8,3 °C 94 % 1014,9 hPa 0,0 mm 7,6 km/h (2 Bft) W-NW 293 ° 0 min 0,000 mm 1,2 UV-I 149 W/m² 7,4 °C 7,1 °C 12,9 km/h (3 Bft)
09.09.2019 10:07 8,3 °C 94 % 1014,9 hPa 0,0 mm 4,0 km/h (1 Bft) W-NW 285 ° 0 min 0,000 mm 1,3 UV-I 149 W/m² 7,4 °C 8,3 °C 6,4 km/h (2 Bft)
09.09.2019 10:08 8,3 °C 94 % 1014,9 hPa 0,0 mm 4,9 km/h (1 Bft) W-NW 287 ° 0 min 0,000 mm 1,4 UV-I 176 W/m² 7,4 °C 7,9 °C 6,4 km/h (2 Bft)
09.09.2019 10:09 8,3 °C 94 % 1015,0 hPa 0,0 mm 6,2 km/h (2 Bft) W 272 ° 0 min 0,000 mm 1,3 UV-I 165 W/m² 7,4 °C 7,5 °C 9,7 km/h (2 Bft)
09.09.2019 10:10 8,4 °C 94 % 1015,0 hPa 0,0 mm 9,3 km/h (2 Bft) W-SW 246 ° 0 min 0,000 mm 1,3 UV-I 144 W/m² 7,5 °C 6,9 °C 12,9 km/h (3 Bft)
09.09.2019 10:11 8,4 °C 94 % 1014,9 hPa 0,0 mm 7,8 km/h (2 Bft) W-SW 258 ° 0 min 0,000 mm 1,2 UV-I 146 W/m² 7,5 °C 7,2 °C 12,9 km/h (3 Bft)
09.09.2019 10:12 8,3 °C 94 % 1015,0 hPa 0,0 mm 5,5 km/h (1 Bft) W 268 ° 0 min 0,000 mm 1,3 UV-I 172 W/m² 7,4 °C 7,7 °C 11,3 km/h (2 Bft)
09.09.2019 10:13 8,3 °C 94 % 1015,0 hPa 0,0 mm 14,9 km/h (3 Bft) W 265 ° 0 min 0,000 mm 1,3 UV-I 193 W/m² 7,4 °C 5,8 °C 20,9 km/h (4 Bft)
09.09.2019 10:14 8,3 °C 94 % 1015,0 hPa 0,0 mm 8,0 km/h (2 Bft) NW 312 ° 0 min 0,000 mm 1,3 UV-I 204 W/m² 7,4 °C 7,0 °C 11,3 km/h (2 Bft)
09.09.2019 10:15 8,4 °C 94 % 1015,0 hPa 0,0 mm 7,1 km/h (2 Bft) W 263 ° 0 min 0,000 mm 1,4 UV-I 225 W/m² 7,5 °C 7,3 °C 11,3 km/h (2 Bft)
09.09.2019 10:16 8,4 °C 94 % 1015,1 hPa 0,0 mm 12,3 km/h (3 Bft) W-NW 300 ° 0 min 0,000 mm 1,3 UV-I 218 W/m² 7,5 °C 6,3 °C 17,7 km/h (3 Bft)
09.09.2019 10:17 8,4 °C 94 % 1015,0 hPa 0,0 mm 12,3 km/h (3 Bft) W-NW 282 ° 0 min 0,000 mm 1,3 UV-I 214 W/m² 7,5 °C 6,3 °C 14,5 km/h (3 Bft)
09.09.2019 10:18 8,4 °C 94 % 1015,1 hPa 0,0 mm 11,3 km/h (2 Bft) W-NW 282 ° 0 min 0,000 mm 1,5 UV-I 239 W/m² 7,5 °C 6,5 °C 17,7 km/h (3 Bft)
09.09.2019 10:19 8,4 °C 94 % 1015,1 hPa 0,0 mm 11,3 km/h (2 Bft) W 279 ° 0 min 0,000 mm 1,5 UV-I 258 W/m² 7,5 °C 6,5 °C 19,3 km/h (3 Bft)
09.09.2019 10:20 8,4 °C 94 % 1015,1 hPa 0,0 mm 11,7 km/h (2 Bft) W-NW 288 ° 0 min 0,000 mm 1,5 UV-I 269 W/m² 7,5 °C 6,4 °C 17,7 km/h (3 Bft)
09.09.2019 10:21 8,4 °C 94 % 1015,1 hPa 0,0 mm 7,7 km/h (2 Bft) W-NW 283 ° 0 min 0,000 mm 1,7 UV-I 279 W/m² 7,5 °C 7,2 °C 11,3 km/h (2 Bft)
09.09.2019 10:22 8,4 °C 94 % 1015,1 hPa 0,0 mm 5,4 km/h (1 Bft) W 261 ° 0 min 0,000 mm 1,6 UV-I 276 W/m² 7,5 °C 7,8 °C 9,7 km/h (2 Bft)
09.09.2019 10:23 8,5 °C 94 % 1015,0 hPa 0,0 mm 4,2 km/h (1 Bft) W-SW 239 ° 0 min 0,000 mm 1,5 UV-I 251 W/m² 7,6 °C 8,5 °C 6,4 km/h (2 Bft)
09.09.2019 10:24 8,5 °C 94 % 1015,0 hPa 0,0 mm 6,5 km/h (2 Bft) W-SW 252 ° 0 min 0,000 mm 1,3 UV-I 220 W/m² 7,6 °C 7,6 °C 11,3 km/h (2 Bft)
09.09.2019 10:25 8,5 °C 93 % 1015,1 hPa 0,0 mm 9,4 km/h (2 Bft) W 270 ° 0 min 0,000 mm 1,2 UV-I 165 W/m² 7,4 °C 7,0 °C 17,7 km/h (3 Bft)
09.09.2019 10:26 8,5 °C 93 % 1015,0 hPa 0,0 mm 9,8 km/h (2 Bft) NW 313 ° 0 min 0,000 mm 1,0 UV-I 146 W/m² 7,4 °C 6,9 °C 16,1 km/h (3 Bft)
09.09.2019 10:27 8,5 °C 93 % 1015,0 hPa 0,0 mm 8,4 km/h (2 Bft) W-SW 242 ° 0 min 0,000 mm 1,0 UV-I 139 W/m² 7,4 °C 7,2 °C 12,9 km/h (3 Bft)
09.09.2019 10:28 8,5 °C 93 % 1015,0 hPa 0,0 mm 7,5 km/h (2 Bft) W-NW 283 ° 0 min 0,000 mm 1,0 UV-I 146 W/m² 7,4 °C 7,4 °C 12,9 km/h (3 Bft)
09.09.2019 10:29 8,4 °C 93 % 1015,1 hPa 0,0 mm 10,6 km/h (2 Bft) W-NW 284 ° 0 min 0,000 mm 1,1 UV-I 151 W/m² 7,3 °C 6,6 °C 12,9 km/h (3 Bft)
09.09.2019 10:30 8,4 °C 93 % 1015,1 hPa 0,0 mm 9,1 km/h (2 Bft) S-SW 207 ° 0 min 0,000 mm 1,0 UV-I 144 W/m² 7,3 °C 6,9 °C 14,5 km/h (3 Bft)
09.09.2019 10:31 8,4 °C 93 % 1015,1 hPa 0,0 mm 13,8 km/h (3 Bft) W 263 ° 0 min 0,000 mm 1,0 UV-I 137 W/m² 7,3 °C 6,1 °C 19,3 km/h (3 Bft)
09.09.2019 10:32 8,4 °C 93 % 1015,1 hPa 0,0 mm 10,8 km/h (2 Bft) W 265 ° 0 min 0,000 mm 0,9 UV-I 121 W/m² 7,3 °C 6,6 °C 20,9 km/h (4 Bft)
09.09.2019 10:33 8,4 °C 93 % 1015,2 hPa 0,0 mm 10,7 km/h (2 Bft) W-SW 250 ° 0 min 0,000 mm 0,9 UV-I 111 W/m² 7,3 °C 6,6 °C 14,5 km/h (3 Bft)
09.09.2019 10:34 8,3 °C 93 % 1015,1 hPa 0,0 mm 12,1 km/h (2 Bft) NW 326 ° 0 min 0,000 mm 0,8 UV-I 109 W/m² 7,2 °C 6,2 °C 20,9 km/h (4 Bft)
09.09.2019 10:35 8,3 °C 93 % 1015,2 hPa 0,0 mm 8,4 km/h (2 Bft) W-SW 258 ° 0 min 0,000 mm 0,8 UV-I 104 W/m² 7,2 °C 6,9 °C 12,9 km/h (3 Bft)
09.09.2019 10:36 8,3 °C 93 % 1015,2 hPa 0,2 mm 11,4 km/h (2 Bft) W 259 ° 0 min 0,000 mm 0,7 UV-I 93 W/m² 7,2 °C 6,4 °C 14,5 km/h (3 Bft)
09.09.2019 10:37 8,2 °C 93 % 1015,2 hPa 0,0 mm 11,2 km/h (2 Bft) W-NW 286 ° 0 min 0,000 mm 0,7 UV-I 91 W/m² 7,1 °C 6,3 °C 14,5 km/h (3 Bft)
09.09.2019 10:38 8,2 °C 93 % 1015,2 hPa 0,0 mm 9,0 km/h (2 Bft) W 279 ° 0 min 0,000 mm 0,7 UV-I 104 W/m² 7,1 °C 6,7 °C 12,9 km/h (3 Bft)
09.09.2019 10:39 8,2 °C 93 % 1015,2 hPa 0,0 mm 6,4 km/h (2 Bft) W 261 ° 0 min 0,000 mm 0,9 UV-I 114 W/m² 7,1 °C 7,3 °C 11,3 km/h (2 Bft)
09.09.2019 10:40 8,2 °C 93 % 1015,2 hPa 0,0 mm 5,8 km/h (2 Bft) W-NW 282 ° 0 min 0,000 mm 0,9 UV-I 116 W/m² 7,1 °C 7,5 °C 9,7 km/h (2 Bft)
09.09.2019 10:41 8,1 °C 93 % 1015,2 hPa 0,0 mm 7,9 km/h (2 Bft) W 273 ° 0 min 0,000 mm 0,9 UV-I 118 W/m² 7,0 °C 6,8 °C 11,3 km/h (2 Bft)
09.09.2019 10:42 8,1 °C 93 % 1015,2 hPa 0,0 mm 12,5 km/h (3 Bft) W 267 ° 0 min 0,000 mm 0,9 UV-I 116 W/m² 7,0 °C 5,9 °C 17,7 km/h (3 Bft)
09.09.2019 10:43 8,1 °C 93 % 1015,1 hPa 0,0 mm 10,9 km/h (2 Bft) W 272 ° 0 min 0,000 mm 0,9 UV-I 113 W/m² 7,0 °C 6,2 °C 14,5 km/h (3 Bft)
09.09.2019 10:44 8,1 °C 93 % 1015,2 hPa 0,0 mm 10,9 km/h (2 Bft) W-SW 257 ° 0 min 0,000 mm 0,9 UV-I 111 W/m² 7,0 °C 6,2 °C 14,5 km/h (3 Bft)
09.09.2019 10:45 8,0 °C 93 % 1015,1 hPa 0,0 mm 6,4 km/h (2 Bft) W-SW 248 ° 0 min 0,000 mm 0,9 UV-I 111 W/m² 6,9 °C 7,1 °C 9,7 km/h (2 Bft)
09.09.2019 10:46 8,1 °C 93 % 1015,2 hPa 0,0 mm 8,3 km/h (2 Bft) W 265 ° 0 min 0,000 mm 0,9 UV-I 111 W/m² 7,0 °C 6,7 °C 12,9 km/h (3 Bft)
09.09.2019 10:47 8,1 °C 93 % 1015,2 hPa 0,0 mm 9,6 km/h (2 Bft) W-SW 248 ° 0 min 0,000 mm 0,9 UV-I 111 W/m² 7,0 °C 6,4 °C 16,1 km/h (3 Bft)
09.09.2019 10:48 8,0 °C 93 % 1015,1 hPa 0,0 mm 6,9 km/h (2 Bft) W-SW 247 ° 0 min 0,000 mm 0,9 UV-I 111 W/m² 6,9 °C 6,9 °C 11,3 km/h (2 Bft)
09.09.2019 10:49 8,0 °C 93 % 1015,1 hPa 0,0 mm 6,2 km/h (2 Bft) SW 229 ° 0 min 0,000 mm 0,9 UV-I 114 W/m² 6,9 °C 7,1 °C 11,3 km/h (2 Bft)
09.09.2019 10:50 8,0 °C 93 % 1015,1 hPa 0,0 mm 2,7 km/h (1 Bft) W 268 ° 0 min 0,000 mm 1,0 UV-I 114 W/m² 6,9 °C 8,0 °C 6,4 km/h (2 Bft)
09.09.2019 10:51 8,0 °C 93 % 1015,2 hPa 0,0 mm 5,3 km/h (1 Bft) W-SW 248 ° 0 min 0,000 mm 1,0 UV-I 114 W/m² 6,9 °C 7,4 °C 11,3 km/h (2 Bft)
09.09.2019 10:52 8,0 °C 94 % 1015,2 hPa 0,0 mm 7,6 km/h (2 Bft) W 271 ° 0 min 0,000 mm 0,9 UV-I 111 W/m² 7,1 °C 6,8 °C 11,3 km/h (2 Bft)
09.09.2019 10:53 7,9 °C 94 % 1015,2 hPa 0,0 mm 4,8 km/h (1 Bft) W 271 ° 0 min 0,000 mm 1,0 UV-I 111 W/m² 7,0 °C 7,4 °C 9,7 km/h (2 Bft)
09.09.2019 10:54 8,0 °C 93 % 1015,2 hPa 0,0 mm 4,4 km/h (1 Bft) W 275 ° 0 min 0,000 mm 0,9 UV-I 107 W/m² 6,9 °C 8,0 °C 6,4 km/h (2 Bft)
09.09.2019 10:55 7,9 °C 94 % 1015,2 hPa 0,0 mm 6,8 km/h (2 Bft) W-SW 246 ° 0 min 0,000 mm 0,9 UV-I 104 W/m² 7,0 °C 6,8 °C 9,7 km/h (2 Bft)
09.09.2019 10:56 8,0 °C 94 % 1015,2 hPa 0,0 mm 8,5 km/h (2 Bft) W-NW 287 ° 0 min 0,000 mm 0,9 UV-I 97 W/m² 7,1 °C 6,5 °C 11,3 km/h (2 Bft)
09.09.2019 10:57 8,0 °C 94 % 1015,2 hPa 0,0 mm 5,3 km/h (1 Bft) W-NW 297 ° 0 min 0,000 mm 0,9 UV-I 98 W/m² 7,1 °C 7,4 °C 11,3 km/h (2 Bft)
09.09.2019 10:58 8,1 °C 94 % 1015,2 hPa 0,0 mm 4,4 km/h (1 Bft) W-SW 240 ° 0 min 0,000 mm 1,0 UV-I 104 W/m² 7,2 °C 8,1 °C 6,4 km/h (2 Bft)
09.09.2019 10:59 8,1 °C 94 % 1015,2 hPa 0,0 mm 6,9 km/h (2 Bft) NW 310 ° 0 min 0,000 mm 1,0 UV-I 109 W/m² 7,2 °C 7,0 °C 12,9 km/h (3 Bft)
09.09.2019 11:00 8,1 °C 94 % 1015,2 hPa 0,0 mm 3,3 km/h (1 Bft) W-NW 287 ° 0 min 0,076 mm 1,0 UV-I 109 W/m² 7,2 °C 8,1 °C 4,8 km/h (1 Bft)
09.09.2019 11:01 8,1 °C 94 % 1015,2 hPa 0,0 mm 7,8 km/h (2 Bft) W 259 ° 0 min 0,000 mm 1,1 UV-I 123 W/m² 7,2 °C 6,8 °C 12,9 km/h (3 Bft)
09.09.2019 11:02 8,1 °C 94 % 1015,2 hPa 0,0 mm 3,9 km/h (1 Bft) W-SW 249 ° 0 min 0,000 mm 1,1 UV-I 128 W/m² 7,2 °C 8,1 °C 9,7 km/h (2 Bft)
09.09.2019 11:03 8,1 °C 94 % 1015,2 hPa 0,0 mm 7,4 km/h (2 Bft) W 280 ° 0 min 0,000 mm 1,2 UV-I 139 W/m² 7,2 °C 6,9 °C 14,5 km/h (3 Bft)
09.09.2019 11:04 8,1 °C 94 % 1015,2 hPa 0,0 mm 7,9 km/h (2 Bft) W-NW 282 ° 0 min 0,000 mm 1,2 UV-I 151 W/m² 7,2 °C 6,8 °C 11,3 km/h (2 Bft)
09.09.2019 11:05 8,1 °C 94 % 1015,2 hPa 0,0 mm 5,8 km/h (2 Bft) W-NW 296 ° 0 min 0,000 mm 1,5 UV-I 167 W/m² 7,2 °C 7,3 °C 8,0 km/h (2 Bft)
09.09.2019 11:06 8,1 °C 94 % 1015,1 hPa 0,0 mm 7,3 km/h (2 Bft) W 271 ° 0 min 0,000 mm 1,6 UV-I 186 W/m² 7,2 °C 6,9 °C 14,5 km/h (3 Bft)
09.09.2019 11:07 8,2 °C 94 % 1015,2 hPa 0,0 mm 9,9 km/h (2 Bft) W 265 ° 0 min 0,000 mm 1,7 UV-I 192 W/m² 7,3 °C 6,5 °C 12,9 km/h (3 Bft)
09.09.2019 11:08 8,2 °C 94 % 1015,2 hPa 0,0 mm 9,5 km/h (2 Bft) W-NW 290 ° 0 min 0,000 mm 1,7 UV-I 202 W/m² 7,3 °C 6,6 °C 14,5 km/h (3 Bft)
09.09.2019 11:09 8,2 °C 94 % 1015,2 hPa 0,0 mm 5,4 km/h (1 Bft) W-SW 257 ° 0 min 0,000 mm 1,7 UV-I 207 W/m² 7,3 °C 7,6 °C 6,4 km/h (2 Bft)
09.09.2019 11:10 8,3 °C 94 % 1015,2 hPa 0,0 mm 11,1 km/h (2 Bft) W 268 ° 0 min 0,000 mm 1,8 UV-I 216 W/m² 7,4 °C 6,4 °C 16,1 km/h (3 Bft)
09.09.2019 11:11 8,3 °C 94 % 1015,2 hPa 0,0 mm 8,8 km/h (2 Bft) W 270 ° 0 min 0,000 mm 1,8 UV-I 218 W/m² 7,4 °C 6,8 °C 14,5 km/h (3 Bft)
09.09.2019 11:12 8,3 °C 94 % 1015,3 hPa 0,0 mm 7,8 km/h (2 Bft) SW 214 ° 0 min 0,000 mm 1,7 UV-I 204 W/m² 7,4 °C 7,1 °C 11,3 km/h (2 Bft)
09.09.2019 11:13 8,4 °C 94 % 1015,2 hPa 0,0 mm 5,3 km/h (1 Bft) NW 309 ° 0 min 0,000 mm 1,8 UV-I 200 W/m² 7,5 °C 7,8 °C 8,0 km/h (2 Bft)
09.09.2019 11:14 8,4 °C 94 % 1015,2 hPa 0,0 mm 4,7 km/h (1 Bft) W-NW 296 ° 0 min 0,000 mm 1,9 UV-I 202 W/m² 7,5 °C 8,0 °C 8,0 km/h (2 Bft)
09.09.2019 11:15 8,5 °C 94 % 1015,3 hPa 0,0 mm 8,0 km/h (2 Bft) W 266 ° 0 min 0,000 mm 2,0 UV-I 213 W/m² 7,6 °C 7,2 °C 12,9 km/h (3 Bft)
09.09.2019 11:16 8,6 °C 94 % 1015,3 hPa 0,0 mm 10,5 km/h (2 Bft) W-NW 300 ° 0 min 0,000 mm 2,1 UV-I 239 W/m² 7,7 °C 6,9 °C 16,1 km/h (3 Bft)
09.09.2019 11:17 8,6 °C 94 % 1015,2 hPa 0,0 mm 9,9 km/h (2 Bft) W-SW 254 ° 0 min 0,000 mm 2,0 UV-I 244 W/m² 7,7 °C 7,0 °C 14,5 km/h (3 Bft)
09.09.2019 11:18 8,6 °C 94 % 1015,3 hPa 0,0 mm 7,0 km/h (2 Bft) W-NW 294 ° 0 min 0,000 mm 1,9 UV-I 225 W/m² 7,7 °C 7,6 °C 12,9 km/h (3 Bft)
09.09.2019 11:19 8,6 °C 94 % 1015,3 hPa 0,0 mm 7,0 km/h (2 Bft) W-NW 290 ° 0 min 0,000 mm 1,9 UV-I 237 W/m² 7,7 °C 7,6 °C 11,3 km/h (2 Bft)
09.09.2019 11:20 8,7 °C 94 % 1015,3 hPa 0,0 mm 7,5 km/h (2 Bft) W-NW 295 ° 0 min 0,000 mm 1,7 UV-I 225 W/m² 7,8 °C 7,6 °C 12,9 km/h (3 Bft)
09.09.2019 11:21 8,7 °C 94 % 1015,3 hPa 0,0 mm 9,4 km/h (2 Bft) W-SW 253 ° 0 min 0,000 mm 1,4 UV-I 181 W/m² 7,8 °C 7,2 °C 12,9 km/h (3 Bft)
09.09.2019 11:22 8,7 °C 93 % 1015,4 hPa 0,0 mm 7,6 km/h (2 Bft) W-SW 246 ° 0 min 0,000 mm 1,4 UV-I 162 W/m² 7,6 °C 7,6 °C 19,3 km/h (3 Bft)
09.09.2019 11:23 8,7 °C 93 % 1015,4 hPa 0,0 mm 11,8 km/h (2 Bft) W 281 ° 0 min 0,000 mm 1,3 UV-I 158 W/m² 7,6 °C 6,8 °C 17,7 km/h (3 Bft)
09.09.2019 11:24 8,7 °C 93 % 1015,4 hPa 0,0 mm 5,1 km/h (1 Bft) W-NW 284 ° 0 min 0,000 mm 1,2 UV-I 158 W/m² 7,6 °C 8,2 °C 8,0 km/h (2 Bft)
09.09.2019 11:25 8,7 °C 94 % 1015,4 hPa 0,2 mm 3,5 km/h (1 Bft) W 277 ° 0 min 0,000 mm 1,4 UV-I 174 W/m² 7,8 °C 8,7 °C 6,4 km/h (2 Bft)
09.09.2019 11:26 8,8 °C 94 % 1015,4 hPa 0,0 mm 9,6 km/h (2 Bft) W-SW 257 ° 0 min 0,000 mm 1,5 UV-I 186 W/m² 7,9 °C 7,3 °C 14,5 km/h (3 Bft)
09.09.2019 11:27 8,8 °C 94 % 1015,4 hPa 0,0 mm 8,9 km/h (2 Bft) W 279 ° 0 min 0,000 mm 1,7 UV-I 186 W/m² 7,9 °C 7,4 °C 17,7 km/h (3 Bft)
09.09.2019 11:28 8,8 °C 94 % 1015,4 hPa 0,0 mm 11,5 km/h (2 Bft) W 266 ° 0 min 0,000 mm 1,8 UV-I 186 W/m² 7,9 °C 6,9 °C 16,1 km/h (3 Bft)
09.09.2019 11:29 8,8 °C 94 % 1015,4 hPa 0,0 mm 10,0 km/h (2 Bft) W-SW 248 ° 0 min 0,000 mm 1,8 UV-I 186 W/m² 7,9 °C 7,2 °C 12,9 km/h (3 Bft)
09.09.2019 11:30 8,8 °C 94 % 1015,4 hPa 0,0 mm 6,0 km/h (2 Bft) W-NW 284 ° 0 min 0,000 mm 2,0 UV-I 274 W/m² 7,9 °C 8,1 °C 9,7 km/h (2 Bft)
09.09.2019 11:31 8,9 °C 94 % 1015,4 hPa 0,0 mm 7,2 km/h (2 Bft) W 272 ° 0 min 0,000 mm 2,2 UV-I 287 W/m² 8,0 °C 7,9 °C 12,9 km/h (3 Bft)
09.09.2019 11:32 8,9 °C 94 % 1015,4 hPa 0,0 mm 9,3 km/h (2 Bft) NW 311 ° 0 min 0,000 mm 2,2 UV-I 288 W/m² 8,0 °C 7,4 °C 14,5 km/h (3 Bft)
09.09.2019 11:33 8,9 °C 94 % 1015,4 hPa 0,0 mm 9,2 km/h (2 Bft) W 270 ° 0 min 0,000 mm 2,4 UV-I 288 W/m² 8,0 °C 7,5 °C 12,9 km/h (3 Bft)
09.09.2019 11:34 9,0 °C 94 % 1015,4 hPa 0,0 mm 10,8 km/h (2 Bft) W-SW 254 ° 0 min 0,000 mm 2,4 UV-I 308 W/m² 8,1 °C 7,3 °C 16,1 km/h (3 Bft)
09.09.2019 11:35 9,1 °C 93 % 1015,4 hPa 0,0 mm 6,3 km/h (2 Bft) W-NW 283 ° 0 min 0,000 mm 2,4 UV-I 311 W/m² 8,0 °C 8,4 °C 11,3 km/h (2 Bft)
09.09.2019 11:36 9,2 °C 94 % 1015,4 hPa 0,0 mm 7,4 km/h (2 Bft) W 268 ° 0 min 0,000 mm 2,4 UV-I 306 W/m² 8,3 °C 8,2 °C 11,3 km/h (2 Bft)
09.09.2019 11:37 9,2 °C 94 % 1015,4 hPa 0,0 mm 9,4 km/h (2 Bft) W-SW 246 ° 0 min 0,000 mm 2,3 UV-I 260 W/m² 8,3 °C 7,8 °C 12,9 km/h (3 Bft)
09.09.2019 11:38 9,2 °C 94 % 1015,4 hPa 0,0 mm 6,3 km/h (2 Bft) NW 305 ° 0 min 0,000 mm 2,2 UV-I 244 W/m² 8,3 °C 8,5 °C 9,7 km/h (2 Bft)
09.09.2019 11:39 9,2 °C 94 % 1015,4 hPa 0,0 mm 7,2 km/h (2 Bft) NW 304 ° 0 min 0,000 mm 2,2 UV-I 241 W/m² 8,3 °C 8,2 °C 11,3 km/h (2 Bft)
09.09.2019 11:40 9,3 °C 94 % 1015,3 hPa 0,0 mm 15,7 km/h (3 Bft) W-SW 252 ° 0 min 0,000 mm 2,2 UV-I 243 W/m² 8,4 °C 7,0 °C 20,9 km/h (4 Bft)
09.09.2019 11:41 9,3 °C 93 % 1015,4 hPa 0,0 mm 14,6 km/h (3 Bft) W 277 ° 0 min 0,000 mm 2,2 UV-I 250 W/m² 8,2 °C 7,1 °C 19,3 km/h (3 Bft)
09.09.2019 11:42 9,2 °C 93 % 1015,4 hPa 0,0 mm 12,7 km/h (3 Bft) W-SW 250 ° 0 min 0,000 mm 2,2 UV-I 250 W/m² 8,1 °C 7,2 °C 17,7 km/h (3 Bft)
09.09.2019 11:43 9,2 °C 93 % 1015,4 hPa 0,0 mm 9,8 km/h (2 Bft) W 268 ° 0 min 0,000 mm 2,2 UV-I 250 W/m² 8,1 °C 7,7 °C 16,1 km/h (3 Bft)
09.09.2019 11:44 9,2 °C 93 % 1015,4 hPa 0,0 mm 13,6 km/h (3 Bft) W 263 ° 0 min 0,000 mm 2,3 UV-I 258 W/m² 8,1 °C 7,1 °C 17,7 km/h (3 Bft)
09.09.2019 11:45 9,2 °C 93 % 1015,4 hPa 0,0 mm 10,8 km/h (2 Bft) W-SW 250 ° 0 min 0,000 mm 2,3 UV-I 257 W/m² 8,1 °C 7,5 °C 17,7 km/h (3 Bft)
09.09.2019 11:46 9,2 °C 93 % 1015,5 hPa 0,0 mm 6,0 km/h (2 Bft) W 275 ° 0 min 0,000 mm 2,4 UV-I 260 W/m² 8,1 °C 8,6 °C 12,9 km/h (3 Bft)
09.09.2019 11:47 9,2 °C 93 % 1015,4 hPa 0,0 mm 9,9 km/h (2 Bft) NW 309 ° 0 min 0,000 mm 2,4 UV-I 272 W/m² 8,1 °C 7,7 °C 14,5 km/h (3 Bft)
09.09.2019 11:48 9,2 °C 93 % 1015,4 hPa 0,0 mm 7,2 km/h (2 Bft) W 275 ° 0 min 0,000 mm 2,5 UV-I 272 W/m² 8,1 °C 8,2 °C 12,9 km/h (3 Bft)
09.09.2019 11:49 9,2 °C 93 % 1015,5 hPa 0,0 mm 9,5 km/h (2 Bft) W 267 ° 0 min 0,000 mm 2,5 UV-I 285 W/m² 8,1 °C 7,8 °C 12,9 km/h (3 Bft)
09.09.2019 11:50 9,2 °C 93 % 1015,4 hPa 0,0 mm 10,6 km/h (2 Bft) W-NW 294 ° 0 min 0,000 mm 2,5 UV-I 288 W/m² 8,1 °C 7,6 °C 14,5 km/h (3 Bft)
09.09.2019 11:51 9,2 °C 93 % 1015,4 hPa 0,0 mm 10,6 km/h (2 Bft) W 267 ° 0 min 0,000 mm 2,5 UV-I 290 W/m² 8,1 °C 7,6 °C 14,5 km/h (3 Bft)
09.09.2019 11:52 9,3 °C 93 % 1015,5 hPa 0,0 mm 11,7 km/h (2 Bft) W-SW 257 ° 0 min 0,000 mm 2,5 UV-I 290 W/m² 8,2 °C 7,5 °C 19,3 km/h (3 Bft)
09.09.2019 11:53 9,3 °C 93 % 1015,5 hPa 0,0 mm 11,7 km/h (2 Bft) W 265 ° 0 min 0,000 mm 2,5 UV-I 287 W/m² 8,2 °C 7,5 °C 16,1 km/h (3 Bft)
09.09.2019 11:54 9,3 °C 93 % 1015,4 hPa 0,0 mm 7,6 km/h (2 Bft) SW 235 ° 0 min 0,000 mm 2,3 UV-I 287 W/m² 8,2 °C 8,3 °C 11,3 km/h (2 Bft)
09.09.2019 11:55 9,3 °C 93 % 1015,4 hPa 0,0 mm 8,1 km/h (2 Bft) W 280 ° 0 min 0,000 mm 2,2 UV-I 287 W/m² 8,2 °C 8,2 °C 12,9 km/h (3 Bft)
09.09.2019 11:56 9,3 °C 93 % 1015,4 hPa 0,0 mm 3,8 km/h (1 Bft) W 281 ° 0 min 0,000 mm 2,3 UV-I 260 W/m² 8,2 °C 9,3 °C 11,3 km/h (2 Bft)
09.09.2019 11:57 9,4 °C 93 % 1015,4 hPa 0,0 mm 7,8 km/h (2 Bft) W 266 ° 0 min 0,000 mm 2,3 UV-I 262 W/m² 8,3 °C 8,3 °C 16,1 km/h (3 Bft)
09.09.2019 11:58 9,4 °C 93 % 1015,4 hPa 0,0 mm 9,0 km/h (2 Bft) NW 308 ° 0 min 0,000 mm 2,3 UV-I 260 W/m² 8,3 °C 8,1 °C 14,5 km/h (3 Bft)
09.09.2019 11:59 9,4 °C 93 % 1015,4 hPa 0,0 mm 8,7 km/h (2 Bft) W 261 ° 0 min 0,000 mm 2,3 UV-I 260 W/m² 8,3 °C 8,2 °C 12,9 km/h (3 Bft)
09.09.2019 12:00 9,3 °C 93 % 1015,5 hPa 0,0 mm 10,8 km/h (2 Bft) W-SW 238 ° 0 min 0,000 mm 2,2 UV-I 258 W/m² 8,2 °C 7,7 °C 17,7 km/h (3 Bft)
09.09.2019 12:01 9,3 °C 93 % 1015,4 hPa 0,0 mm 8,5 km/h (2 Bft) W-SW 253 ° 0 min 0,102 mm 2,2 UV-I 260 W/m² 8,2 °C 8,1 °C 16,1 km/h (3 Bft)
09.09.2019 12:02 9,4 °C 93 % 1015,5 hPa 0,0 mm 10,4 km/h (2 Bft) W-SW 238 ° 0 min 0,000 mm 2,2 UV-I 265 W/m² 8,3 °C 7,8 °C 16,1 km/h (3 Bft)
09.09.2019 12:03 9,3 °C 92 % 1015,5 hPa 0,0 mm 10,7 km/h (2 Bft) W 275 ° 0 min 0,000 mm 2,3 UV-I 272 W/m² 8,1 °C 7,7 °C 17,7 km/h (3 Bft)
09.09.2019 12:04 9,3 °C 93 % 1015,4 hPa 0,0 mm 7,8 km/h (2 Bft) W 273 ° 0 min 0,000 mm 2,3 UV-I 281 W/m² 8,2 °C 8,2 °C 11,3 km/h (2 Bft)
09.09.2019 12:05 9,3 °C 93 % 1015,4 hPa 0,0 mm 9,7 km/h (2 Bft) W-NW 302 ° 0 min 0,000 mm 2,4 UV-I 288 W/m² 8,2 °C 7,8 °C 17,7 km/h (3 Bft)
09.09.2019 12:06 9,3 °C 93 % 1015,5 hPa 0,0 mm 13,1 km/h (3 Bft) W-SW 249 ° 0 min 0,000 mm 2,4 UV-I 288 W/m² 8,2 °C 7,3 °C 20,9 km/h (4 Bft)
09.09.2019 12:07 9,3 °C 93 % 1015,4 hPa 0,0 mm 9,1 km/h (2 Bft) W 259 ° 0 min 0,000 mm 2,4 UV-I 281 W/m² 8,2 °C 8,0 °C 12,9 km/h (3 Bft)
09.09.2019 12:08 9,3 °C 92 % 1015,4 hPa 0,0 mm 9,9 km/h (2 Bft) W 275 ° 0 min 0,000 mm 2,4 UV-I 278 W/m² 8,1 °C 7,8 °C 14,5 km/h (3 Bft)
09.09.2019 12:09 9,3 °C 92 % 1015,4 hPa 0,0 mm 10,9 km/h (2 Bft) W 269 ° 0 min 0,000 mm 2,3 UV-I 283 W/m² 8,1 °C 7,6 °C 17,7 km/h (3 Bft)
09.09.2019 12:10 9,3 °C 92 % 1015,5 hPa 0,0 mm 12,2 km/h (2 Bft) W 271 ° 0 min 0,000 mm 2,3 UV-I 290 W/m² 8,1 °C 7,4 °C 19,3 km/h (3 Bft)
09.09.2019 12:11 9,3 °C 92 % 1015,4 hPa 0,0 mm 10,0 km/h (2 Bft) W-SW 248 ° 0 min 0,000 mm 2,3 UV-I 304 W/m² 8,1 °C 7,8 °C 16,1 km/h (3 Bft)
09.09.2019 12:12 9,3 °C 92 % 1015,4 hPa 0,0 mm 13,0 km/h (3 Bft) W 273 ° 0 min 0,000 mm 2,5 UV-I 304 W/m² 8,1 °C 7,3 °C 17,7 km/h (3 Bft)
09.09.2019 12:13 9,3 °C 92 % 1015,5 hPa 0,0 mm 9,1 km/h (2 Bft) W-SW 245 ° 0 min 0,000 mm 2,4 UV-I 290 W/m² 8,1 °C 8,0 °C 16,1 km/h (3 Bft)
09.09.2019 12:14 9,3 °C 92 % 1015,5 hPa 0,0 mm 10,4 km/h (2 Bft) W-NW 292 ° 0 min 0,000 mm 2,3 UV-I 281 W/m² 8,1 °C 7,7 °C 14,5 km/h (3 Bft)
09.09.2019 12:15 9,3 °C 93 % 1015,4 hPa 0,0 mm 10,0 km/h (2 Bft) W-NW 283 ° 0 min 0,000 mm 2,4 UV-I 285 W/m² 8,2 °C 7,8 °C 14,5 km/h (3 Bft)
09.09.2019 12:16 9,3 °C 92 % 1015,5 hPa 0,2 mm 13,6 km/h (3 Bft) W 265 ° 0 min 0,000 mm 2,4 UV-I 269 W/m² 8,1 °C 7,2 °C 17,7 km/h (3 Bft)
09.09.2019 12:17 9,3 °C 92 % 1015,5 hPa 0,0 mm 13,3 km/h (3 Bft) W 276 ° 0 min 0,000 mm 2,2 UV-I 253 W/m² 8,1 °C 7,3 °C 19,3 km/h (3 Bft)
09.09.2019 12:18 9,3 °C 92 % 1015,5 hPa 0,0 mm 5,6 km/h (1 Bft) W 271 ° 0 min 0,000 mm 2,1 UV-I 255 W/m² 8,1 °C 8,8 °C 6,4 km/h (2 Bft)
09.09.2019 12:19 9,3 °C 92 % 1015,6 hPa 0,0 mm 7,7 km/h (2 Bft) W-SW 258 ° 0 min 0,000 mm 2,1 UV-I 257 W/m² 8,1 °C 8,3 °C 11,3 km/h (2 Bft)
09.09.2019 12:20 9,3 °C 92 % 1015,6 hPa 0,0 mm 10,3 km/h (2 Bft) W-SW 249 ° 0 min 0,000 mm 2,1 UV-I 253 W/m² 8,1 °C 7,7 °C 14,5 km/h (3 Bft)
09.09.2019 12:21 9,3 °C 92 % 1015,6 hPa 0,0 mm 10,2 km/h (2 Bft) W 281 ° 0 min 0,000 mm 2,0 UV-I 248 W/m² 8,1 °C 7,8 °C 12,9 km/h (3 Bft)
09.09.2019 12:22 9,4 °C 92 % 1015,6 hPa 0,0 mm 9,9 km/h (2 Bft) W-NW 282 ° 0 min 0,000 mm 2,0 UV-I 246 W/m² 8,2 °C 7,9 °C 14,5 km/h (3 Bft)
09.09.2019 12:23 9,4 °C 92 % 1015,5 hPa 0,0 mm 8,0 km/h (2 Bft) W-NW 283 ° 0 min 0,000 mm 2,0 UV-I 255 W/m² 8,2 °C 8,3 °C 12,9 km/h (3 Bft)
09.09.2019 12:24 9,4 °C 92 % 1015,6 hPa 0,0 mm 11,9 km/h (2 Bft) W 281 ° 0 min 0,000 mm 2,1 UV-I 260 W/m² 8,2 °C 7,6 °C 16,1 km/h (3 Bft)
09.09.2019 12:25 9,4 °C 92 % 1015,6 hPa 0,0 mm 10,1 km/h (2 Bft) W 270 ° 0 min 0,000 mm 2,1 UV-I 257 W/m² 8,2 °C 7,9 °C 12,9 km/h (3 Bft)
09.09.2019 12:26 9,4 °C 92 % 1015,6 hPa 0,0 mm 10,3 km/h (2 Bft) W-NW 284 ° 0 min 0,000 mm 2,1 UV-I 253 W/m² 8,2 °C 7,9 °C 16,1 km/h (3 Bft)
09.09.2019 12:27 9,4 °C 92 % 1015,6 hPa 0,0 mm 5,5 km/h (1 Bft) W-SW 250 ° 0 min 0,000 mm 2,1 UV-I 250 W/m² 8,2 °C 8,9 °C 11,3 km/h (2 Bft)
09.09.2019 12:28 9,4 °C 92 % 1015,6 hPa 0,0 mm 6,9 km/h (2 Bft) W-SW 246 ° 0 min 0,000 mm 2,1 UV-I 246 W/m² 8,2 °C 8,6 °C 17,7 km/h (3 Bft)
09.09.2019 12:29 9,4 °C 92 % 1015,6 hPa 0,0 mm 13,0 km/h (3 Bft) W 261 ° 0 min 0,000 mm 2,0 UV-I 244 W/m² 8,2 °C 7,4 °C 16,1 km/h (3 Bft)
09.09.2019 12:30 9,4 °C 92 % 1015,6 hPa 0,0 mm 10,4 km/h (2 Bft) W-SW 244 ° 0 min 0,000 mm 2,0 UV-I 244 W/m² 8,2 °C 7,8 °C 19,3 km/h (3 Bft)
09.09.2019 12:31 9,4 °C 92 % 1015,6 hPa 0,0 mm 11,9 km/h (2 Bft) W 264 ° 0 min 0,000 mm 2,0 UV-I 239 W/m² 8,2 °C 7,6 °C 16,1 km/h (3 Bft)
09.09.2019 12:32 9,4 °C 92 % 1015,6 hPa 0,0 mm 8,7 km/h (2 Bft) W-SW 247 ° 0 min 0,000 mm 2,0 UV-I 237 W/m² 8,2 °C 8,2 °C 14,5 km/h (3 Bft)
09.09.2019 12:33 9,4 °C 92 % 1015,6 hPa 0,0 mm 10,3 km/h (2 Bft) SW 227 ° 0 min 0,000 mm 2,0 UV-I 241 W/m² 8,2 °C 7,9 °C 14,5 km/h (3 Bft)
09.09.2019 12:34 9,3 °C 92 % 1015,6 hPa 0,0 mm 18,5 km/h (3 Bft) W 271 ° 0 min 0,000 mm 2,0 UV-I 253 W/m² 8,1 °C 6,6 °C 24,1 km/h (4 Bft)
09.09.2019 12:35 9,3 °C 92 % 1015,6 hPa 0,0 mm 6,9 km/h (2 Bft) W 265 ° 0 min 0,000 mm 2,2 UV-I 257 W/m² 8,1 °C 8,4 °C 12,9 km/h (3 Bft)
09.09.2019 12:36 9,4 °C 92 % 1015,6 hPa 0,0 mm 4,7 km/h (1 Bft) W-NW 294 ° 0 min 0,000 mm 2,2 UV-I 258 W/m² 8,2 °C 9,2 °C 11,3 km/h (2 Bft)
09.09.2019 12:37 9,4 °C 92 % 1015,7 hPa 0,0 mm 10,4 km/h (2 Bft) W 265 ° 0 min 0,000 mm 2,2 UV-I 262 W/m² 8,2 °C 7,8 °C 16,1 km/h (3 Bft)
09.09.2019 12:38 9,4 °C 92 % 1015,6 hPa 0,0 mm 5,6 km/h (1 Bft) W-SW 251 ° 0 min 0,000 mm 2,2 UV-I 262 W/m² 8,2 °C 8,9 °C 9,7 km/h (2 Bft)
09.09.2019 12:39 9,4 °C 92 % 1015,6 hPa 0,0 mm 9,7 km/h (2 Bft) SW 235 ° 0 min 0,000 mm 2,2 UV-I 262 W/m² 8,2 °C 8,0 °C 19,3 km/h (3 Bft)
09.09.2019 12:40 9,4 °C 92 % 1015,6 hPa 0,0 mm 10,0 km/h (2 Bft) W-SW 249 ° 0 min 0,000 mm 2,2 UV-I 250 W/m² 8,2 °C 7,9 °C 14,5 km/h (3 Bft)
09.09.2019 12:41 9,5 °C 92 % 1015,7 hPa 0,0 mm 14,2 km/h (3 Bft) W-SW 257 ° 0 min 0,000 mm 2,1 UV-I 246 W/m² 8,3 °C 7,4 °C 19,3 km/h (3 Bft)
09.09.2019 12:42 9,6 °C 92 % 1015,6 hPa 0,0 mm 7,8 km/h (2 Bft) W-SW 254 ° 0 min 0,000 mm 2,0 UV-I 241 W/m² 8,4 °C 8,6 °C 16,1 km/h (3 Bft)
09.09.2019 12:43 9,5 °C 92 % 1015,6 hPa 0,0 mm 11,7 km/h (2 Bft) W-NW 291 ° 0 min 0,000 mm 2,0 UV-I 237 W/m² 8,3 °C 7,8 °C 16,1 km/h (3 Bft)
09.09.2019 12:44 9,4 °C 92 % 1015,6 hPa 0,0 mm 9,5 km/h (2 Bft) W-SW 254 ° 0 min 0,000 mm 2,0 UV-I 243 W/m² 8,2 °C 8,0 °C 19,3 km/h (3 Bft)
09.09.2019 12:45 9,5 °C 92 % 1015,7 hPa 0,0 mm 10,6 km/h (2 Bft) W-SW 256 ° 0 min 0,000 mm 2,1 UV-I 260 W/m² 8,3 °C 7,9 °C 16,1 km/h (3 Bft)
09.09.2019 12:46 9,5 °C 92 % 1015,6 hPa 0,0 mm 12,3 km/h (3 Bft) SW 229 ° 0 min 0,000 mm 2,2 UV-I 281 W/m² 8,3 °C 7,7 °C 16,1 km/h (3 Bft)
09.09.2019 12:47 9,5 °C 92 % 1015,6 hPa 0,0 mm 8,8 km/h (2 Bft) W 260 ° 0 min 0,000 mm 2,2 UV-I 288 W/m² 8,3 °C 8,3 °C 16,1 km/h (3 Bft)
09.09.2019 12:48 9,5 °C 92 % 1015,7 hPa 0,0 mm 7,1 km/h (2 Bft) N 360 ° 0 min 0,000 mm 2,4 UV-I 288 W/m² 8,3 °C 8,6 °C 14,5 km/h (3 Bft)
09.09.2019 12:49 9,6 °C 92 % 1015,6 hPa 0,0 mm 6,5 km/h (2 Bft) W-NW 284 ° 0 min 0,000 mm 2,4 UV-I 322 W/m² 8,4 °C 8,9 °C 9,7 km/h (2 Bft)
09.09.2019 12:50 9,7 °C 92 % 1015,6 hPa 0,0 mm 7,2 km/h (2 Bft) W-SW 247 ° 0 min 0,000 mm 2,4 UV-I 329 W/m² 8,5 °C 8,8 °C 12,9 km/h (3 Bft)
09.09.2019 12:51 9,7 °C 92 % 1015,7 hPa 0,0 mm 14,0 km/h (3 Bft) W-SW 242 ° 0 min 0,000 mm 2,2 UV-I 302 W/m² 8,5 °C 7,7 °C 19,3 km/h (3 Bft)
09.09.2019 12:52 9,7 °C 92 % 1015,6 hPa 0,0 mm 13,5 km/h (3 Bft) W 259 ° 0 min 0,000 mm 2,2 UV-I 244 W/m² 8,5 °C 7,7 °C 16,1 km/h (3 Bft)
09.09.2019 12:53 9,7 °C 91 % 1015,7 hPa 0,0 mm 7,6 km/h (2 Bft) W-NW 285 ° 0 min 0,000 mm 2,1 UV-I 264 W/m² 8,3 °C 8,7 °C 16,1 km/h (3 Bft)
09.09.2019 12:54 9,7 °C 92 % 1015,6 hPa 0,0 mm 4,4 km/h (1 Bft) W 281 ° 0 min 0,000 mm 2,2 UV-I 290 W/m² 8,5 °C 9,7 °C 11,3 km/h (2 Bft)
09.09.2019 12:55 9,7 °C 92 % 1015,6 hPa 0,0 mm 8,7 km/h (2 Bft) W-SW 245 ° 0 min 0,000 mm 2,3 UV-I 301 W/m² 8,5 °C 8,5 °C 14,5 km/h (3 Bft)
09.09.2019 12:56 9,8 °C 91 % 1015,6 hPa 0,0 mm 9,3 km/h (2 Bft) W-NW 299 ° 0 min 0,000 mm 2,3 UV-I 292 W/m² 8,4 °C 8,5 °C 16,1 km/h (3 Bft)
09.09.2019 12:57 9,8 °C 92 % 1015,7 hPa 0,0 mm 5,3 km/h (1 Bft) W-NW 283 ° 0 min 0,000 mm 2,4 UV-I 294 W/m² 8,6 °C 9,4 °C 11,3 km/h (2 Bft)
09.09.2019 12:58 9,8 °C 92 % 1015,7 hPa 0,0 mm 6,3 km/h (2 Bft) W-SW 255 ° 0 min 0,000 mm 2,4 UV-I 288 W/m² 8,6 °C 9,2 °C 12,9 km/h (3 Bft)
09.09.2019 12:59 9,9 °C 92 % 1015,6 hPa 0,0 mm 4,1 km/h (1 Bft) W 271 ° 0 min 0,000 mm 2,7 UV-I 313 W/m² 8,7 °C 9,9 °C 6,4 km/h (2 Bft)
09.09.2019 13:00 9,9 °C 92 % 1015,6 hPa 0,0 mm 8,1 km/h (2 Bft) W 279 ° 0 min 0,000 mm 2,8 UV-I 338 W/m² 8,7 °C 8,9 °C 14,5 km/h (3 Bft)
09.09.2019 13:01 9,8 °C 92 % 1015,6 hPa 0,2 mm 15,2 km/h (3 Bft) W-SW 250 ° 0 min 0,127 mm 2,8 UV-I 338 W/m² 8,6 °C 7,6 °C 19,3 km/h (3 Bft)
09.09.2019 13:02 9,8 °C 92 % 1015,7 hPa 0,0 mm 7,3 km/h (2 Bft) SW 236 ° 0 min 0,000 mm 2,7 UV-I 316 W/m² 8,6 °C 8,9 °C 12,9 km/h (3 Bft)
09.09.2019 13:03 9,9 °C 92 % 1015,6 hPa 0,0 mm 8,4 km/h (2 Bft) W-NW 296 ° 0 min 0,000 mm 2,7 UV-I 306 W/m² 8,7 °C 8,8 °C 12,9 km/h (3 Bft)
09.09.2019 13:04 9,9 °C 92 % 1015,7 hPa 0,0 mm 5,5 km/h (1 Bft) W-SW 242 ° 0 min 0,000 mm 2,6 UV-I 301 W/m² 8,7 °C 9,5 °C 11,3 km/h (2 Bft)
09.09.2019 13:05 9,9 °C 92 % 1015,6 hPa 0,0 mm 3,8 km/h (1 Bft) W 271 ° 0 min 0,000 mm 3,1 UV-I 371 W/m² 8,7 °C 9,9 °C 11,3 km/h (2 Bft)
09.09.2019 13:06 9,9 °C 92 % 1015,6 hPa 0,0 mm 10,6 km/h (2 Bft) W 280 ° 0 min 0,000 mm 2,7 UV-I 371 W/m² 8,7 °C 8,4 °C 12,9 km/h (3 Bft)
09.09.2019 13:07 9,8 °C 92 % 1015,7 hPa 0,0 mm 8,4 km/h (2 Bft) SW 226 ° 0 min 0,000 mm 2,6 UV-I 371 W/m² 8,6 °C 8,7 °C 16,1 km/h (3 Bft)
09.09.2019 13:08 9,9 °C 92 % 1015,7 hPa 0,0 mm 11,0 km/h (2 Bft) W 279 ° 0 min 0,000 mm 2,6 UV-I 257 W/m² 8,7 °C 8,3 °C 17,7 km/h (3 Bft)
09.09.2019 13:09 9,9 °C 92 % 1015,7 hPa 0,0 mm 7,8 km/h (2 Bft) SW 236 ° 0 min 0,000 mm 2,5 UV-I 250 W/m² 8,7 °C 8,9 °C 12,9 km/h (3 Bft)
09.09.2019 13:10 9,9 °C 92 % 1015,7 hPa 0,0 mm 5,2 km/h (1 Bft) W-SW 257 ° 0 min 0,000 mm 2,6 UV-I 253 W/m² 8,7 °C 9,6 °C 9,7 km/h (2 Bft)
09.09.2019 13:11 9,9 °C 92 % 1015,7 hPa 0,0 mm 4,6 km/h (1 Bft) W-SW 248 ° 0 min 0,000 mm 2,6 UV-I 255 W/m² 8,7 °C 9,8 °C 9,7 km/h (2 Bft)
09.09.2019 13:12 9,8 °C 92 % 1015,7 hPa 0,0 mm 3,9 km/h (1 Bft) W-SW 252 ° 0 min 0,000 mm 2,7 UV-I 255 W/m² 8,6 °C 9,8 °C 6,4 km/h (2 Bft)
09.09.2019 13:13 9,8 °C 92 % 1015,6 hPa 0,0 mm 9,7 km/h (2 Bft) W-NW 291 ° 0 min 0,000 mm 2,7 UV-I 260 W/m² 8,6 °C 8,4 °C 12,9 km/h (3 Bft)
09.09.2019 13:14 9,8 °C 92 % 1015,6 hPa 0,0 mm 6,5 km/h (2 Bft) SW 224 ° 0 min 0,000 mm 2,8 UV-I 260 W/m² 8,6 °C 9,1 °C 11,3 km/h (2 Bft)
09.09.2019 13:15 9,8 °C 92 % 1015,7 hPa 0,0 mm 9,5 km/h (2 Bft) W 281 ° 0 min 0,000 mm 2,8 UV-I 302 W/m² 8,6 °C 8,5 °C 14,5 km/h (3 Bft)
09.09.2019 13:16 9,7 °C 92 % 1015,6 hPa 0,0 mm 10,1 km/h (2 Bft) W 267 ° 0 min 0,000 mm 3,2 UV-I 341 W/m² 8,5 °C 8,3 °C 19,3 km/h (3 Bft)
09.09.2019 13:17 9,7 °C 92 % 1015,5 hPa 0,0 mm 6,9 km/h (2 Bft) NW 304 ° 0 min 0,000 mm 3,2 UV-I 334 W/m² 8,5 °C 8,9 °C 16,1 km/h (3 Bft)
09.09.2019 13:18 9,8 °C 92 % 1015,6 hPa 0,0 mm 6,2 km/h (2 Bft) W 281 ° 0 min 0,000 mm 3,7 UV-I 403 W/m² 8,6 °C 9,2 °C 9,7 km/h (2 Bft)
09.09.2019 13:19 9,8 °C 92 % 1015,6 hPa 0,0 mm 4,8 km/h (1 Bft) W-NW 302 ° 0 min 0,000 mm 2,9 UV-I 306 W/m² 8,6 °C 9,6 °C 8,0 km/h (2 Bft)
09.09.2019 13:20 9,9 °C 92 % 1015,6 hPa 0,0 mm 6,2 km/h (2 Bft) W 277 ° 0 min 0,000 mm 3,6 UV-I 306 W/m² 8,7 °C 9,3 °C 11,3 km/h (2 Bft)
09.09.2019 13:21 9,9 °C 92 % 1015,6 hPa 0,0 mm 7,5 km/h (2 Bft) W 266 ° 0 min 0,000 mm 4,1 UV-I 512 W/m² 8,7 °C 9,0 °C 11,3 km/h (2 Bft)
09.09.2019 13:22 10,0 °C 93 % 1015,6 hPa 0,0 mm 8,5 km/h (2 Bft) W-NW 290 ° 0 min 0,000 mm 5,1 UV-I 512 W/m² 8,9 °C 8,9 °C 14,5 km/h (3 Bft)
09.09.2019 13:23 10,1 °C 93 % 1015,6 hPa 0,0 mm 12,5 km/h (3 Bft) W 279 ° 1 min 0,000 mm 4,4 UV-I 663 W/m² 9,0 °C 10,1 °C 16,1 km/h (3 Bft)
09.09.2019 13:24 10,2 °C 92 % 1015,7 hPa 0,0 mm 8,5 km/h (2 Bft) SW 234 ° 1 min 0,000 mm 3,2 UV-I 663 W/m² 9,0 °C 10,2 °C 12,9 km/h (3 Bft)
09.09.2019 13:25 10,2 °C 92 % 1015,6 hPa 0,0 mm 12,4 km/h (3 Bft) NW 308 ° 1 min 0,000 mm 3,5 UV-I 663 W/m² 9,0 °C 10,2 °C 17,7 km/h (3 Bft)
09.09.2019 13:26 10,2 °C 92 % 1015,6 hPa 0,0 mm 13,8 km/h (3 Bft) W-NW 288 ° 0 min 0,000 mm 3,2 UV-I 443 W/m² 9,0 °C 10,2 °C 20,9 km/h (4 Bft)
09.09.2019 13:27 10,2 °C 91 % 1015,6 hPa 0,0 mm 8,6 km/h (2 Bft) SW 216 ° 0 min 0,000 mm 3,7 UV-I 439 W/m² 8,8 °C 10,2 °C 17,7 km/h (3 Bft)
09.09.2019 13:28 10,2 °C 91 % 1015,7 hPa 0,0 mm 9,4 km/h (2 Bft) SW 232 ° 0 min 0,000 mm 3,0 UV-I 439 W/m² 8,8 °C 10,2 °C 22,5 km/h (4 Bft)
09.09.2019 13:29 10,2 °C 92 % 1015,7 hPa 0,0 mm 11,3 km/h (2 Bft) W-SW 240 ° 0 min 0,000 mm 2,6 UV-I 439 W/m² 9,0 °C 10,2 °C 16,1 km/h (3 Bft)
09.09.2019 13:30 10,2 °C 92 % 1015,7 hPa 0,0 mm 5,9 km/h (2 Bft) W-NW 300 ° 0 min 0,000 mm 2,5 UV-I 237 W/m² 9,0 °C 10,2 °C 11,3 km/h (2 Bft)
09.09.2019 13:31 10,3 °C 92 % 1015,7 hPa 0,0 mm 1,0 km/h (0 Bft) W-NW 298 ° 0 min 0,000 mm 2,7 UV-I 265 W/m² 9,1 °C 10,3 °C 1,6 km/h (1 Bft)
09.09.2019 13:32 10,3 °C 91 % 1015,7 hPa 0,0 mm 4,1 km/h (1 Bft) W-SW 258 ° 0 min 0,000 mm 2,8 UV-I 295 W/m² 8,9 °C 10,3 °C 9,7 km/h (2 Bft)
09.09.2019 13:33 10,3 °C 92 % 1015,7 hPa 0,0 mm 14,2 km/h (3 Bft) W-SW 248 ° 0 min 0,000 mm 3,4 UV-I 432 W/m² 9,1 °C 10,3 °C 25,7 km/h (4 Bft)
09.09.2019 13:34 10,3 °C 92 % 1015,7 hPa 0,0 mm 11,5 km/h (2 Bft) W 259 ° 0 min 0,000 mm 3,3 UV-I 392 W/m² 9,1 °C 10,3 °C 19,3 km/h (3 Bft)
09.09.2019 13:35 10,3 °C 91 % 1015,7 hPa 0,0 mm 14,0 km/h (3 Bft) W 269 ° 0 min 0,000 mm 3,2 UV-I 362 W/m² 8,9 °C 10,3 °C 17,7 km/h (3 Bft)
09.09.2019 13:36 10,3 °C 92 % 1015,7 hPa 0,0 mm 8,0 km/h (2 Bft) W-NW 299 ° 0 min 0,000 mm 3,1 UV-I 345 W/m² 9,1 °C 10,3 °C 14,5 km/h (3 Bft)
09.09.2019 13:37 10,3 °C 91 % 1015,7 hPa 0,0 mm 12,7 km/h (3 Bft) W 277 ° 0 min 0,000 mm 3,1 UV-I 353 W/m² 8,9 °C 10,3 °C 22,5 km/h (4 Bft)
09.09.2019 13:38 10,2 °C 91 % 1015,7 hPa 0,0 mm 6,2 km/h (2 Bft) S-SW 194 ° 0 min 0,000 mm 3,0 UV-I 332 W/m² 8,8 °C 10,2 °C 14,5 km/h (3 Bft)
09.09.2019 13:39 10,2 °C 91 % 1015,7 hPa 0,0 mm 7,8 km/h (2 Bft) NW 313 ° 0 min 0,000 mm 2,8 UV-I 281 W/m² 8,8 °C 10,2 °C 11,3 km/h (2 Bft)
09.09.2019 13:40 10,2 °C 91 % 1015,7 hPa 0,0 mm 11,3 km/h (2 Bft) NW 304 ° 0 min 0,000 mm 2,6 UV-I 271 W/m² 8,8 °C 10,2 °C 14,5 km/h (3 Bft)
09.09.2019 13:41 10,1 °C 91 % 1015,7 hPa 0,0 mm 6,2 km/h (2 Bft) W-SW 257 ° 0 min 0,000 mm 2,5 UV-I 265 W/m² 8,7 °C 10,1 °C 16,1 km/h (3 Bft)
09.09.2019 13:42 10,1 °C 90 % 1015,7 hPa 0,0 mm 5,6 km/h (1 Bft) W-NW 287 ° 0 min 0,000 mm 2,3 UV-I 265 W/m² 8,5 °C 10,1 °C 9,7 km/h (2 Bft)
09.09.2019 13:43 10,1 °C 90 % 1015,6 hPa 0,0 mm 10,2 km/h (2 Bft) W-NW 298 ° 0 min 0,000 mm 2,2 UV-I 232 W/m² 8,5 °C 10,1 °C 14,5 km/h (3 Bft)
09.09.2019 13:44 10,0 °C 90 % 1015,7 hPa 0,0 mm 11,7 km/h (2 Bft) W-NW 288 ° 0 min 0,000 mm 2,2 UV-I 230 W/m² 8,4 °C 8,4 °C 19,3 km/h (3 Bft)
09.09.2019 13:45 10,0 °C 91 % 1015,6 hPa 0,0 mm 15,7 km/h (3 Bft) W 262 ° 0 min 0,000 mm 2,2 UV-I 225 W/m² 8,6 °C 7,8 °C 20,9 km/h (4 Bft)
09.09.2019 13:46 10,0 °C 91 % 1015,6 hPa 0,0 mm 9,4 km/h (2 Bft) W 265 ° 0 min 0,000 mm 2,1 UV-I 221 W/m² 8,6 °C 8,7 °C 16,1 km/h (3 Bft)
09.09.2019 13:47 9,9 °C 91 % 1015,6 hPa 0,0 mm 7,3 km/h (2 Bft) W-NW 290 ° 0 min 0,000 mm 2,2 UV-I 229 W/m² 8,5 °C 9,0 °C 16,1 km/h (3 Bft)
09.09.2019 13:48 9,9 °C 91 % 1015,6 hPa 0,0 mm 11,5 km/h (2 Bft) SW 236 ° 0 min 0,000 mm 2,2 UV-I 232 W/m² 8,5 °C 8,3 °C 17,7 km/h (3 Bft)
09.09.2019 13:49 9,9 °C 91 % 1015,6 hPa 0,0 mm 7,5 km/h (2 Bft) W-SW 251 ° 0 min 0,000 mm 2,1 UV-I 220 W/m² 8,5 °C 9,0 °C 14,5 km/h (3 Bft)
09.09.2019 13:50 9,9 °C 91 % 1015,7 hPa 0,2 mm 11,8 km/h (2 Bft) W 281 ° 0 min 0,000 mm 2,1 UV-I 204 W/m² 8,5 °C 8,2 °C 22,5 km/h (4 Bft)
09.09.2019 13:51 9,8 °C 90 % 1015,7 hPa 0,0 mm 10,8 km/h (2 Bft) W-NW 290 ° 0 min 0,000 mm 2,0 UV-I 202 W/m² 8,2 °C 8,3 °C 16,1 km/h (3 Bft)
09.09.2019 13:52 9,8 °C 91 % 1015,7 hPa 0,0 mm 8,4 km/h (2 Bft) NW 321 ° 0 min 0,000 mm 1,9 UV-I 200 W/m² 8,4 °C 8,7 °C 14,5 km/h (3 Bft)
09.09.2019 13:53 9,8 °C 91 % 1015,6 hPa 0,0 mm 9,0 km/h (2 Bft) W-SW 238 ° 0 min 0,000 mm 1,9 UV-I 200 W/m² 8,4 °C 8,6 °C 14,5 km/h (3 Bft)
09.09.2019 13:54 9,8 °C 91 % 1015,7 hPa 0,0 mm 4,4 km/h (1 Bft) W 261 ° 0 min 0,000 mm 2,0 UV-I 204 W/m² 8,4 °C 9,8 °C 11,3 km/h (2 Bft)
09.09.2019 13:55 9,8 °C 91 % 1015,7 hPa 0,0 mm 11,7 km/h (2 Bft) NW 307 ° 0 min 0,000 mm 2,0 UV-I 204 W/m² 8,4 °C 8,1 °C 16,1 km/h (3 Bft)
09.09.2019 13:56 9,7 °C 90 % 1015,7 hPa 0,0 mm 5,4 km/h (1 Bft) W 259 ° 0 min 0,000 mm 2,0 UV-I 204 W/m² 8,1 °C 9,3 °C 6,4 km/h (2 Bft)
09.09.2019 13:57 9,8 °C 90 % 1015,7 hPa 0,0 mm 7,0 km/h (2 Bft) W-NW 292 ° 0 min 0,000 mm 2,0 UV-I 202 W/m² 8,2 °C 9,0 °C 12,9 km/h (3 Bft)
09.09.2019 13:58 9,8 °C 91 % 1015,6 hPa 0,0 mm 4,1 km/h (1 Bft) W-NW 290 ° 0 min 0,000 mm 1,9 UV-I 197 W/m² 8,4 °C 9,8 °C 11,3 km/h (2 Bft)
09.09.2019 13:59 9,8 °C 90 % 1015,6 hPa 0,0 mm 2,7 km/h (1 Bft) N-NW 328 ° 0 min 0,000 mm 1,9 UV-I 197 W/m² 8,2 °C 9,8 °C 9,7 km/h (2 Bft)
09.09.2019 14:00 9,8 °C 91 % 1015,7 hPa 0,0 mm 6,8 km/h (2 Bft) W-NW 298 ° 0 min 0,000 mm 1,8 UV-I 197 W/m² 8,4 °C 9,0 °C 12,9 km/h (3 Bft)
09.09.2019 14:01 9,9 °C 91 % 1015,7 hPa 0,0 mm 8,3 km/h (2 Bft) W-SW 240 ° 0 min 0,152 mm 1,8 UV-I 209 W/m² 8,5 °C 8,8 °C 11,3 km/h (2 Bft)
09.09.2019 14:02 9,9 °C 91 % 1015,7 hPa 0,0 mm 3,0 km/h (1 Bft) SW 234 ° 0 min 0,000 mm 1,9 UV-I 243 W/m² 8,5 °C 9,9 °C 8,0 km/h (2 Bft)
09.09.2019 14:03 9,9 °C 91 % 1015,7 hPa 0,0 mm 3,5 km/h (1 Bft) SW 235 ° 0 min 0,000 mm 2,0 UV-I 248 W/m² 8,5 °C 9,9 °C 4,8 km/h (1 Bft)
09.09.2019 14:04 9,9 °C 91 % 1015,7 hPa 0,0 mm 3,5 km/h (1 Bft) W 259 ° 0 min 0,000 mm 2,1 UV-I 255 W/m² 8,5 °C 9,9 °C 9,7 km/h (2 Bft)
09.09.2019 14:05 9,9 °C 90 % 1015,7 hPa 0,0 mm 6,4 km/h (2 Bft) W-NW 296 ° 0 min 0,000 mm 2,1 UV-I 260 W/m² 8,3 °C 9,3 °C 11,3 km/h (2 Bft)
09.09.2019 14:06 9,9 °C 91 % 1015,7 hPa 0,0 mm 5,9 km/h (2 Bft) W-SW 257 ° 0 min 0,000 mm 2,1 UV-I 262 W/m² 8,5 °C 9,4 °C 9,7 km/h (2 Bft)
09.09.2019 14:07 10,1 °C 92 % 1015,6 hPa 0,0 mm 5,5 km/h (1 Bft) W-NW 291 ° 0 min 0,000 mm 2,1 UV-I 260 W/m² 8,9 °C 10,1 °C 9,7 km/h (2 Bft)
09.09.2019 14:08 10,1 °C 91 % 1015,7 hPa 0,0 mm 5,4 km/h (1 Bft) W-NW 284 ° 0 min 0,000 mm 2,1 UV-I 248 W/m² 8,7 °C 10,1 °C 8,0 km/h (2 Bft)
09.09.2019 14:09 10,1 °C 90 % 1015,6 hPa 0,0 mm 5,1 km/h (1 Bft) W-NW 288 ° 0 min 0,000 mm 1,9 UV-I 237 W/m² 8,5 °C 10,1 °C 6,4 km/h (2 Bft)
09.09.2019 14:10 10,1 °C 90 % 1015,7 hPa 0,0 mm 10,4 km/h (2 Bft) W-NW 296 ° 0 min 0,000 mm 1,9 UV-I 232 W/m² 8,5 °C 10,1 °C 12,9 km/h (3 Bft)
09.09.2019 14:11 10,1 °C 90 % 1015,7 hPa 0,0 mm 9,8 km/h (2 Bft) W 261 ° 0 min 0,000 mm 1,9 UV-I 234 W/m² 8,5 °C 10,1 °C 14,5 km/h (3 Bft)
09.09.2019 14:12 10,1 °C 89 % 1015,7 hPa 0,0 mm 13,7 km/h (3 Bft) W-NW 300 ° 0 min 0,000 mm 1,9 UV-I 241 W/m² 8,4 °C 10,1 °C 16,1 km/h (3 Bft)
09.09.2019 14:13 10,1 °C 89 % 1015,7 hPa 0,0 mm 11,3 km/h (2 Bft) W-NW 286 ° 0 min 0,000 mm 2,1 UV-I 269 W/m² 8,4 °C 10,1 °C 19,3 km/h (3 Bft)
09.09.2019 14:14 10,0 °C 88 % 1015,6 hPa 0,0 mm 13,9 km/h (3 Bft) W-SW 251 ° 0 min 0,000 mm 2,3 UV-I 320 W/m² 8,1 °C 8,1 °C 20,9 km/h (4 Bft)
09.09.2019 14:15 10,1 °C 89 % 1015,6 hPa 0,0 mm 11,0 km/h (2 Bft) W-NW 301 ° 0 min 0,000 mm 2,4 UV-I 323 W/m² 8,4 °C 10,1 °C 14,5 km/h (3 Bft)
09.09.2019 14:16 10,1 °C 89 % 1015,6 hPa 0,0 mm 6,5 km/h (2 Bft) W-SW 258 ° 0 min 0,000 mm 2,6 UV-I 355 W/m² 8,4 °C 10,1 °C 14,5 km/h (3 Bft)
09.09.2019 14:17 10,2 °C 88 % 1015,7 hPa 0,0 mm 12,3 km/h (3 Bft) W 268 ° 0 min 0,000 mm 2,8 UV-I 404 W/m² 8,3 °C 10,2 °C 22,5 km/h (4 Bft)
09.09.2019 14:18 10,2 °C 89 % 1015,7 hPa 0,0 mm 10,2 km/h (2 Bft) W-NW 287 ° 0 min 0,000 mm 3,3 UV-I 404 W/m² 8,5 °C 10,2 °C 16,1 km/h (3 Bft)
09.09.2019 14:19 10,3 °C 89 % 1015,7 hPa 0,0 mm 12,2 km/h (2 Bft) W 269 ° 0 min 0,000 mm 2,9 UV-I 410 W/m² 8,6 °C 10,3 °C 19,3 km/h (3 Bft)
09.09.2019 14:20 10,3 °C 88 % 1015,6 hPa 0,0 mm 14,7 km/h (3 Bft) W-NW 301 ° 0 min 0,000 mm 2,9 UV-I 401 W/m² 8,4 °C 10,3 °C 22,5 km/h (4 Bft)
09.09.2019 14:21 10,3 °C 88 % 1015,7 hPa 0,0 mm 14,1 km/h (3 Bft) W-NW 294 ° 0 min 0,000 mm 2,8 UV-I 369 W/m² 8,4 °C 10,3 °C 19,3 km/h (3 Bft)
09.09.2019 14:22 10,2 °C 87 % 1015,6 hPa 0,0 mm 9,7 km/h (2 Bft) W 276 ° 0 min 0,000 mm 2,7 UV-I 362 W/m² 8,1 °C 10,2 °C 14,5 km/h (3 Bft)
09.09.2019 14:23 10,2 °C 87 % 1015,6 hPa 0,0 mm 8,2 km/h (2 Bft) W-NW 291 ° 0 min 0,000 mm 2,7 UV-I 352 W/m² 8,1 °C 10,2 °C 12,9 km/h (3 Bft)
09.09.2019 14:24 10,3 °C 89 % 1015,6 hPa 0,0 mm 8,4 km/h (2 Bft) W 277 ° 0 min 0,000 mm 2,7 UV-I 355 W/m² 8,6 °C 10,3 °C 14,5 km/h (3 Bft)
09.09.2019 14:25 10,3 °C 88 % 1015,6 hPa 0,0 mm 8,7 km/h (2 Bft) W-NW 286 ° 0 min 0,000 mm 2,7 UV-I 320 W/m² 8,4 °C 10,3 °C 11,3 km/h (2 Bft)
09.09.2019 14:26 10,3 °C 88 % 1015,5 hPa 0,0 mm 5,3 km/h (1 Bft) W-NW 295 ° 0 min 0,000 mm 2,4 UV-I 281 W/m² 8,4 °C 10,3 °C 8,0 km/h (2 Bft)
09.09.2019 14:27 10,4 °C 89 % 1015,5 hPa 0,0 mm 9,4 km/h (2 Bft) W 276 ° 0 min 0,000 mm 2,3 UV-I 260 W/m² 8,7 °C 10,4 °C 12,9 km/h (3 Bft)
09.09.2019 14:28 10,4 °C 89 % 1015,5 hPa 0,0 mm 9,6 km/h (2 Bft) W 281 ° 0 min 0,000 mm 2,2 UV-I 251 W/m² 8,7 °C 10,4 °C 12,9 km/h (3 Bft)
09.09.2019 14:29 10,6 °C 90 % 1015,6 hPa 0,0 mm 9,4 km/h (2 Bft) W-SW 244 ° 0 min 0,000 mm 2,1 UV-I 244 W/m² 9,0 °C 10,6 °C 14,5 km/h (3 Bft)
09.09.2019 14:30 10,6 °C 89 % 1015,6 hPa 0,0 mm 10,8 km/h (2 Bft) W 261 ° 0 min 0,000 mm 2,0 UV-I 230 W/m² 8,9 °C 10,6 °C 16,1 km/h (3 Bft)
09.09.2019 14:31 10,6 °C 88 % 1015,6 hPa 0,0 mm 12,9 km/h (3 Bft) W-SW 257 ° 0 min 0,000 mm 2,0 UV-I 225 W/m² 8,7 °C 10,6 °C 16,1 km/h (3 Bft)
09.09.2019 14:32 10,5 °C 88 % 1015,6 hPa 0,0 mm 10,5 km/h (2 Bft) W-NW 290 ° 0 min 0,000 mm 2,0 UV-I 225 W/m² 8,6 °C 10,5 °C 12,9 km/h (3 Bft)
09.09.2019 14:33 10,6 °C 89 % 1015,6 hPa 0,0 mm 3,3 km/h (1 Bft) W-NW 298 ° 0 min 0,000 mm 2,1 UV-I 225 W/m² 8,9 °C 10,6 °C 6,4 km/h (2 Bft)
09.09.2019 14:34 10,6 °C 88 % 1015,6 hPa 0,0 mm 3,5 km/h (1 Bft) SW 226 ° 0 min 0,000 mm 2,1 UV-I 220 W/m² 8,7 °C 10,6 °C 4,8 km/h (1 Bft)
09.09.2019 14:35 10,6 °C 89 % 1015,6 hPa 0,0 mm 8,3 km/h (2 Bft) W-NW 290 ° 0 min 0,000 mm 2,0 UV-I 200 W/m² 8,9 °C 10,6 °C 14,5 km/h (3 Bft)
09.09.2019 14:36 10,6 °C 88 % 1015,6 hPa 0,0 mm 7,7 km/h (2 Bft) W-NW 289 ° 0 min 0,000 mm 1,9 UV-I 200 W/m² 8,7 °C 10,6 °C 11,3 km/h (2 Bft)
09.09.2019 14:37 10,4 °C 88 % 1015,6 hPa 0,0 mm 11,7 km/h (2 Bft) W-NW 303 ° 0 min 0,000 mm 1,9 UV-I 181 W/m² 8,5 °C 10,4 °C 17,7 km/h (3 Bft)
09.09.2019 14:38 10,4 °C 87 % 1015,6 hPa 0,0 mm 4,8 km/h (1 Bft) W-NW 288 ° 0 min 0,000 mm 1,9 UV-I 195 W/m² 8,3 °C 10,4 °C 9,7 km/h (2 Bft)
09.09.2019 14:39 10,3 °C 87 % 1015,6 hPa 0,2 mm 6,6 km/h (2 Bft) W 267 ° 0 min 0,000 mm 1,9 UV-I 202 W/m² 8,2 °C 10,3 °C 11,3 km/h (2 Bft)
09.09.2019 14:40 10,3 °C 88 % 1015,6 hPa 0,0 mm 7,2 km/h (2 Bft) S 191 ° 0 min 0,000 mm 1,9 UV-I 204 W/m² 8,4 °C 10,3 °C 11,3 km/h (2 Bft)
09.09.2019 14:41 10,3 °C 88 % 1015,6 hPa 0,0 mm 3,1 km/h (1 Bft) W-NW 288 ° 0 min 0,000 mm 1,8 UV-I 206 W/m² 8,4 °C 10,3 °C 6,4 km/h (2 Bft)
09.09.2019 14:42 10,4 °C 88 % 1015,6 hPa 0,0 mm 4,7 km/h (1 Bft) W-NW 295 ° 0 min 0,000 mm 1,8 UV-I 206 W/m² 8,5 °C 10,4 °C 6,4 km/h (2 Bft)
09.09.2019 14:43 10,3 °C 88 % 1015,6 hPa 0,0 mm 3,9 km/h (1 Bft) W 272 ° 0 min 0,000 mm 1,9 UV-I 225 W/m² 8,4 °C 10,3 °C 4,8 km/h (1 Bft)
09.09.2019 14:44 10,3 °C 88 % 1015,6 hPa 0,0 mm 7,1 km/h (2 Bft) W-NW 290 ° 0 min 0,000 mm 2,3 UV-I 251 W/m² 8,4 °C 10,3 °C 9,7 km/h (2 Bft)
09.09.2019 14:45 10,3 °C 88 % 1015,6 hPa 0,0 mm 4,8 km/h (1 Bft) W-SW 245 ° 0 min 0,000 mm 2,3 UV-I 246 W/m² 8,4 °C 10,3 °C 6,4 km/h (2 Bft)
09.09.2019 14:46 10,4 °C 89 % 1015,6 hPa 0,0 mm 5,5 km/h (1 Bft) W 269 ° 0 min 0,000 mm 2,4 UV-I 241 W/m² 8,7 °C 10,4 °C 9,7 km/h (2 Bft)
09.09.2019 14:47 10,4 °C 89 % 1015,6 hPa 0,0 mm 1,0 km/h (0 Bft) W 271 ° 0 min 0,000 mm 2,4 UV-I 241 W/m² 8,7 °C 10,4 °C 3,2 km/h (1 Bft)
09.09.2019 14:48 10,4 °C 88 % 1015,5 hPa 0,0 mm 6,0 km/h (2 Bft) S-SW 211 ° 0 min 0,000 mm 2,4 UV-I 246 W/m² 8,5 °C 10,4 °C 14,5 km/h (3 Bft)
09.09.2019 14:49 10,4 °C 88 % 1015,5 hPa 0,0 mm 6,0 km/h (2 Bft) W 267 ° 0 min 0,000 mm 2,4 UV-I 248 W/m² 8,5 °C 10,4 °C 12,9 km/h (3 Bft)
09.09.2019 14:50 10,4 °C 88 % 1015,5 hPa 0,0 mm 7,9 km/h (2 Bft) W-SW 242 ° 0 min 0,000 mm 2,6 UV-I 292 W/m² 8,5 °C 10,4 °C 12,9 km/h (3 Bft)
09.09.2019 14:51 10,4 °C 88 % 1015,5 hPa 0,0 mm 6,7 km/h (2 Bft) S-SW 213 ° 0 min 0,000 mm 2,9 UV-I 306 W/m² 8,5 °C 10,4 °C 12,9 km/h (3 Bft)
09.09.2019 14:52 10,4 °C 88 % 1015,4 hPa 0,0 mm 4,6 km/h (1 Bft) W-NW 288 ° 0 min 0,000 mm 3,0 UV-I 338 W/m² 8,5 °C 10,4 °C 9,7 km/h (2 Bft)
09.09.2019 14:53 10,5 °C 88 % 1015,4 hPa 0,0 mm 6,0 km/h (2 Bft) W-NW 297 ° 0 min 0,000 mm 3,9 UV-I 338 W/m² 8,6 °C 10,5 °C 8,0 km/h (2 Bft)
09.09.2019 14:54 10,6 °C 89 % 1015,4 hPa 0,0 mm 5,6 km/h (1 Bft) W 277 ° 0 min 0,000 mm 3,9 UV-I 338 W/m² 8,9 °C 10,6 °C 9,7 km/h (2 Bft)
09.09.2019 14:55 10,6 °C 88 % 1015,3 hPa 0,0 mm 6,7 km/h (2 Bft) W 259 ° 0 min 0,000 mm 3,9 UV-I 550 W/m² 8,7 °C 10,6 °C 11,3 km/h (2 Bft)
09.09.2019 14:56 10,8 °C 88 % 1015,3 hPa 0,0 mm 3,0 km/h (1 Bft) W-SW 241 ° 0 min 0,000 mm 3,3 UV-I 550 W/m² 8,9 °C 10,8 °C 6,4 km/h (2 Bft)
09.09.2019 14:57 10,9 °C 88 % 1015,3 hPa 0,0 mm 3,9 km/h (1 Bft) W 270 ° 0 min 0,000 mm 3,3 UV-I 550 W/m² 9,0 °C 10,9 °C 6,4 km/h (2 Bft)
09.09.2019 14:58 11,1 °C 89 % 1015,3 hPa 0,0 mm 6,1 km/h (2 Bft) S-SW 198 ° 1 min 0,000 mm 4,2 UV-I 772 W/m² 9,4 °C 11,1 °C 9,7 km/h (2 Bft)
09.09.2019 14:59 11,2 °C 88 % 1015,3 hPa 0,0 mm 5,7 km/h (1 Bft) W 281 ° 1 min 0,000 mm 2,6 UV-I 772 W/m² 9,3 °C 11,2 °C 11,3 km/h (2 Bft)
09.09.2019 15:00 11,3 °C 87 % 1015,3 hPa 0,0 mm 10,1 km/h (2 Bft) W 264 ° 0 min 0,000 mm 3,1 UV-I 443 W/m² 9,2 °C 11,3 °C 12,9 km/h (3 Bft)
09.09.2019 15:01 11,2 °C 87 % 1015,3 hPa 0,0 mm 5,6 km/h (1 Bft) W-SW 251 ° 1 min 0,153 mm 3,4 UV-I 694 W/m² 9,1 °C 11,2 °C 11,3 km/h (2 Bft)
09.09.2019 15:02 11,2 °C 86 % 1015,3 hPa 0,0 mm 1,4 km/h (1 Bft) W 263 ° 1 min 0,000 mm 2,8 UV-I 694 W/m² 8,9 °C 11,2 °C 1,6 km/h (1 Bft)
09.09.2019 15:03 11,2 °C 86 % 1015,3 hPa 0,0 mm 1,2 km/h (1 Bft) W 263 ° 0 min 0,000 mm 2,8 UV-I 350 W/m² 8,9 °C 11,2 °C 3,2 km/h (1 Bft)
09.09.2019 15:04 11,3 °C 86 % 1015,3 hPa 0,0 mm 8,3 km/h (2 Bft) W-SW 238 ° 0 min 0,000 mm 4,0 UV-I 350 W/m² 9,0 °C 11,3 °C 16,1 km/h (3 Bft)
09.09.2019 15:05 11,2 °C 85 % 1015,3 hPa 0,0 mm 5,3 km/h (1 Bft) W 266 ° 0 min 0,000 mm 4,0 UV-I 350 W/m² 8,8 °C 11,2 °C 11,3 km/h (2 Bft)
09.09.2019 15:06 11,3 °C 87 % 1015,3 hPa 0,0 mm 7,7 km/h (2 Bft) W 271 ° 0 min 0,000 mm 2,9 UV-I 350 W/m² 9,2 °C 11,3 °C 11,3 km/h (2 Bft)
09.09.2019 15:07 11,3 °C 87 % 1015,3 hPa 0,0 mm 10,7 km/h (2 Bft) NW 315 ° 1 min 0,000 mm 4,1 UV-I 693 W/m² 9,2 °C 11,3 °C 16,1 km/h (3 Bft)
09.09.2019 15:08 11,2 °C 85 % 1015,3 hPa 0,0 mm 10,3 km/h (2 Bft) W-SW 248 ° 1 min 0,000 mm 2,4 UV-I 693 W/m² 8,8 °C 11,2 °C 16,1 km/h (3 Bft)
09.09.2019 15:09 11,2 °C 84 % 1015,4 hPa 0,0 mm 9,8 km/h (2 Bft) W-SW 248 ° 1 min 0,000 mm 3,0 UV-I 693 W/m² 8,6 °C 11,2 °C 12,9 km/h (3 Bft)
09.09.2019 15:10 11,2 °C 85 % 1015,3 hPa 0,0 mm 9,3 km/h (2 Bft) W-SW 258 ° 1 min 0,000 mm 4,0 UV-I 693 W/m² 8,8 °C 11,2 °C 14,5 km/h (3 Bft)
09.09.2019 15:11 11,3 °C 85 % 1015,3 hPa 0,0 mm 10,1 km/h (2 Bft) W 281 ° 1 min 0,000 mm 4,0 UV-I 715 W/m² 8,9 °C 11,3 °C 19,3 km/h (3 Bft)
09.09.2019 15:12 11,3 °C 84 % 1015,4 hPa 0,0 mm 7,8 km/h (2 Bft) NW 309 ° 1 min 0,000 mm 4,0 UV-I 679 W/m² 8,7 °C 11,3 °C 12,9 km/h (3 Bft)
09.09.2019 15:13 11,3 °C 83 % 1015,2 hPa 0,0 mm 8,0 km/h (2 Bft) W 266 ° 1 min 0,000 mm 3,9 UV-I 668 W/m² 8,5 °C 11,3 °C 14,5 km/h (3 Bft)
09.09.2019 15:14 11,3 °C 84 % 1015,2 hPa 0,0 mm 11,0 km/h (2 Bft) W 261 ° 1 min 0,000 mm 3,9 UV-I 649 W/m² 8,7 °C 11,3 °C 16,1 km/h (3 Bft)
09.09.2019 15:15 11,3 °C 84 % 1015,2 hPa 0,0 mm 12,5 km/h (3 Bft) W 267 ° 1 min 0,000 mm 3,9 UV-I 666 W/m² 8,7 °C 11,3 °C 14,5 km/h (3 Bft)
09.09.2019 15:16 11,4 °C 84 % 1015,3 hPa 0,0 mm 11,5 km/h (2 Bft) W 263 ° 1 min 0,000 mm 3,9 UV-I 668 W/m² 8,8 °C 11,4 °C 17,7 km/h (3 Bft)
09.09.2019 15:17 11,4 °C 83 % 1015,2 hPa 0,0 mm 5,4 km/h (1 Bft) W 269 ° 1 min 0,000 mm 3,9 UV-I 666 W/m² 8,6 °C 11,4 °C 12,9 km/h (3 Bft)
09.09.2019 15:18 11,5 °C 83 % 1015,2 hPa 0,0 mm 10,9 km/h (2 Bft) NW 313 ° 1 min 0,000 mm 3,8 UV-I 677 W/m² 8,7 °C 11,5 °C 14,5 km/h (3 Bft)
09.09.2019 15:19 11,5 °C 83 % 1015,2 hPa 0,0 mm 10,4 km/h (2 Bft) W-NW 292 ° 1 min 0,000 mm 3,9 UV-I 675 W/m² 8,7 °C 11,5 °C 17,7 km/h (3 Bft)
09.09.2019 15:20 11,5 °C 82 % 1015,2 hPa 0,0 mm 10,4 km/h (2 Bft) W-NW 295 ° 1 min 0,000 mm 3,8 UV-I 663 W/m² 8,5 °C 11,5 °C 17,7 km/h (3 Bft)
09.09.2019 15:21 11,5 °C 82 % 1015,2 hPa 0,0 mm 8,1 km/h (2 Bft) W 279 ° 1 min 0,000 mm 3,8 UV-I 656 W/m² 8,5 °C 11,5 °C 12,9 km/h (3 Bft)
09.09.2019 15:22 11,6 °C 83 % 1015,1 hPa 0,0 mm 6,2 km/h (2 Bft) W 269 ° 1 min 0,000 mm 3,8 UV-I 647 W/m² 8,8 °C 11,6 °C 14,5 km/h (3 Bft)
09.09.2019 15:23 11,7 °C 83 % 1015,2 hPa 0,0 mm 5,9 km/h (2 Bft) W-NW 289 ° 1 min 0,000 mm 3,8 UV-I 656 W/m² 8,9 °C 11,7 °C 11,3 km/h (2 Bft)
09.09.2019 15:24 11,7 °C 82 % 1015,2 hPa 0,0 mm 7,7 km/h (2 Bft) W-SW 256 ° 1 min 0,000 mm 3,8 UV-I 673 W/m² 8,7 °C 11,7 °C 11,3 km/h (2 Bft)
09.09.2019 15:25 11,8 °C 82 % 1015,2 hPa 0,0 mm 6,6 km/h (2 Bft) S-SW 200 ° 1 min 0,000 mm 3,8 UV-I 671 W/m² 8,8 °C 11,8 °C 11,3 km/h (2 Bft)
09.09.2019 15:26 11,8 °C 82 % 1015,2 hPa 0,0 mm 3,1 km/h (1 Bft) W-NW 283 ° 1 min 0,000 mm 3,8 UV-I 677 W/m² 8,8 °C 11,8 °C 6,4 km/h (2 Bft)
09.09.2019 15:27 11,9 °C 83 % 1015,2 hPa 0,0 mm 5,3 km/h (1 Bft) W-NW 291 ° 1 min 0,000 mm 3,8 UV-I 689 W/m² 9,1 °C 11,9 °C 8,0 km/h (2 Bft)
09.09.2019 15:28 12,1 °C 82 % 1015,2 hPa 0,0 mm 10,7 km/h (2 Bft) W 261 ° 1 min 0,000 mm 3,8 UV-I 689 W/m² 9,1 °C 12,1 °C 16,1 km/h (3 Bft)
09.09.2019 15:29 12,2 °C 82 % 1015,2 hPa 0,0 mm 6,8 km/h (2 Bft) W-NW 290 ° 1 min 0,000 mm 3,8 UV-I 691 W/m² 9,2 °C 12,2 °C 12,9 km/h (3 Bft)
09.09.2019 15:30 12,2 °C 82 % 1015,1 hPa 0,0 mm 6,6 km/h (2 Bft) W 264 ° 1 min 0,000 mm 3,7 UV-I 666 W/m² 9,2 °C 12,2 °C 11,3 km/h (2 Bft)
09.09.2019 15:31 12,2 °C 80 % 1015,2 hPa 0,0 mm 7,8 km/h (2 Bft) W-NW 290 ° 1 min 0,000 mm 3,7 UV-I 664 W/m² 8,9 °C 12,2 °C 16,1 km/h (3 Bft)
09.09.2019 15:32 12,2 °C 80 % 1015,1 hPa 0,0 mm 8,7 km/h (2 Bft) W-NW 301 ° 1 min 0,000 mm 3,3 UV-I 687 W/m² 8,9 °C 12,2 °C 14,5 km/h (3 Bft)
09.09.2019 15:33 12,2 °C 81 % 1015,2 hPa 0,0 mm 12,6 km/h (3 Bft) W 261 ° 1 min 0,000 mm 3,7 UV-I 710 W/m² 9,0 °C 12,2 °C 16,1 km/h (3 Bft)
09.09.2019 15:34 12,1 °C 81 % 1015,1 hPa 0,0 mm 12,6 km/h (3 Bft) SW 234 ° 1 min 0,000 mm 2,8 UV-I 710 W/m² 8,9 °C 12,1 °C 19,3 km/h (3 Bft)
09.09.2019 15:35 12,1 °C 79 % 1015,1 hPa 0,0 mm 8,0 km/h (2 Bft) W 259 ° 1 min 0,000 mm 2,4 UV-I 710 W/m² 8,6 °C 12,1 °C 12,9 km/h (3 Bft)
09.09.2019 15:36 11,9 °C 80 % 1015,1 hPa 0,0 mm 8,9 km/h (2 Bft) NW 317 ° 1 min 0,000 mm 2,3 UV-I 710 W/m² 8,6 °C 11,9 °C 12,9 km/h (3 Bft)
09.09.2019 15:37 11,9 °C 80 % 1015,2 hPa 0,0 mm 6,1 km/h (2 Bft) S 178 ° 1 min 0,000 mm 3,7 UV-I 728 W/m² 8,6 °C 11,9 °C 12,9 km/h (3 Bft)
09.09.2019 15:38 11,9 °C 78 % 1015,1 hPa 0,0 mm 4,8 km/h (1 Bft) SW 232 ° 1 min 0,000 mm 3,6 UV-I 701 W/m² 8,2 °C 11,9 °C 11,3 km/h (2 Bft)
09.09.2019 15:39 12,1 °C 81 % 1015,1 hPa 0,0 mm 3,3 km/h (1 Bft) W-NW 286 ° 1 min 0,000 mm 2,1 UV-I 613 W/m² 8,9 °C 12,1 °C 6,4 km/h (2 Bft)
09.09.2019 15:40 12,1 °C 81 % 1015,1 hPa 0,2 mm 5,6 km/h (1 Bft) W-SW 256 ° 1 min 0,000 mm 1,9 UV-I 613 W/m² 8,9 °C 12,1 °C 11,3 km/h (2 Bft)
09.09.2019 15:41 12,0 °C 81 % 1015,1 hPa 0,0 mm 9,1 km/h (2 Bft) W-NW 299 ° 1 min 0,000 mm 2,7 UV-I 613 W/m² 8,8 °C 12,0 °C 12,9 km/h (3 Bft)
09.09.2019 15:42 11,9 °C 80 % 1015,1 hPa 0,0 mm 8,4 km/h (2 Bft) SW 215 ° 1 min 0,000 mm 3,6 UV-I 613 W/m² 8,6 °C 11,9 °C 11,3 km/h (2 Bft)
09.09.2019 15:43 11,9 °C 80 % 1015,1 hPa 0,0 mm 7,8 km/h (2 Bft) W 265 ° 1 min 0,000 mm 2,2 UV-I 613 W/m² 8,6 °C 11,9 °C 11,3 km/h (2 Bft)
09.09.2019 15:44 11,8 °C 80 % 1015,0 hPa 0,0 mm 7,0 km/h (2 Bft) W 278 ° 1 min 0,000 mm 3,2 UV-I 613 W/m² 8,5 °C 11,8 °C 11,3 km/h (2 Bft)
09.09.2019 15:45 11,7 °C 80 % 1015,0 hPa 0,0 mm 5,9 km/h (2 Bft) W 263 ° 1 min 0,000 mm 1,7 UV-I 613 W/m² 8,4 °C 11,7 °C 9,7 km/h (2 Bft)
09.09.2019 15:46 11,7 °C 80 % 1014,9 hPa 0,0 mm 4,8 km/h (1 Bft) W-SW 248 ° 0 min 0,000 mm 1,7 UV-I 192 W/m² 8,4 °C 11,7 °C 8,0 km/h (2 Bft)
09.09.2019 15:47 11,7 °C 81 % 1014,9 hPa 0,0 mm 6,4 km/h (2 Bft) W-NW 297 ° 0 min 0,000 mm 1,8 UV-I 209 W/m² 8,5 °C 11,7 °C 9,7 km/h (2 Bft)
09.09.2019 15:48 11,7 °C 81 % 1015,0 hPa 0,0 mm 5,1 km/h (1 Bft) NW 307 ° 0 min 0,000 mm 2,1 UV-I 267 W/m² 8,5 °C 11,7 °C 6,4 km/h (2 Bft)
09.09.2019 15:49 11,7 °C 82 % 1015,0 hPa 0,0 mm 7,4 km/h (2 Bft) W-NW 290 ° 0 min 0,000 mm 1,9 UV-I 230 W/m² 8,7 °C 11,7 °C 11,3 km/h (2 Bft)
09.09.2019 15:50 11,7 °C 81 % 1015,0 hPa 0,0 mm 4,4 km/h (1 Bft) W-NW 290 ° 0 min 0,000 mm 1,8 UV-I 206 W/m² 8,5 °C 11,7 °C 6,4 km/h (2 Bft)
09.09.2019 15:51 11,7 °C 81 % 1014,9 hPa 0,0 mm 3,4 km/h (1 Bft) W-NW 302 ° 0 min 0,000 mm 1,7 UV-I 190 W/m² 8,5 °C 11,7 °C 4,8 km/h (1 Bft)
09.09.2019 15:52 11,6 °C 80 % 1014,9 hPa 0,0 mm 2,1 km/h (1 Bft) W-NW 302 ° 0 min 0,000 mm 1,7 UV-I 188 W/m² 8,3 °C 11,6 °C 4,8 km/h (1 Bft)
09.09.2019 15:53 11,6 °C 82 % 1014,9 hPa 0,0 mm 4,4 km/h (1 Bft) W-NW 290 ° 0 min 0,000 mm 1,6 UV-I 139 W/m² 8,6 °C 11,6 °C 6,4 km/h (2 Bft)
09.09.2019 15:54 11,6 °C 81 % 1014,9 hPa 0,0 mm 7,9 km/h (2 Bft) W 259 ° 0 min 0,000 mm 1,5 UV-I 123 W/m² 8,5 °C 11,6 °C 14,5 km/h (3 Bft)
09.09.2019 15:55 11,6 °C 81 % 1014,9 hPa 0,0 mm 12,4 km/h (3 Bft) N 349 ° 0 min 0,000 mm 1,5 UV-I 132 W/m² 8,5 °C 11,6 °C 17,7 km/h (3 Bft)
09.09.2019 15:56 11,5 °C 80 % 1014,9 hPa 0,0 mm 5,0 km/h (1 Bft) W-SW 251 ° 0 min 0,000 mm 2,2 UV-I 132 W/m² 8,2 °C 11,5 °C 6,4 km/h (2 Bft)
09.09.2019 15:57 11,4 °C 80 % 1014,9 hPa 0,0 mm 10,4 km/h (2 Bft) W 280 ° 0 min 0,000 mm 2,0 UV-I 220 W/m² 8,1 °C 11,4 °C 14,5 km/h (3 Bft)
09.09.2019 15:58 11,4 °C 80 % 1014,9 hPa 0,0 mm 8,0 km/h (2 Bft) W-NW 302 ° 0 min 0,000 mm 2,6 UV-I 220 W/m² 8,1 °C 11,4 °C 11,3 km/h (2 Bft)
09.09.2019 15:59 11,5 °C 81 % 1014,8 hPa 0,0 mm 7,8 km/h (2 Bft) W-NW 292 ° 0 min 0,000 mm 2,0 UV-I 220 W/m² 8,4 °C 11,5 °C 11,3 km/h (2 Bft)
09.09.2019 16:00 11,6 °C 81 % 1014,9 hPa 0,0 mm 4,4 km/h (1 Bft) W-NW 286 ° 0 min 0,000 mm 2,8 UV-I 185 W/m² 8,5 °C 11,6 °C 6,4 km/h (2 Bft)
09.09.2019 16:01 11,6 °C 81 % 1014,9 hPa 0,0 mm 4,7 km/h (1 Bft) W-NW 294 ° 0 min 0,254 mm 2,8 UV-I 575 W/m² 8,5 °C 11,6 °C 6,4 km/h (2 Bft)
09.09.2019 16:02 11,7 °C 82 % 1014,8 hPa 0,0 mm 5,1 km/h (1 Bft) W-NW 289 ° 0 min 0,000 mm 2,7 UV-I 554 W/m² 8,7 °C 11,7 °C 8,0 km/h (2 Bft)
09.09.2019 16:03 11,8 °C 82 % 1014,8 hPa 0,0 mm 6,4 km/h (2 Bft) W-NW 294 ° 0 min 0,000 mm 2,7 UV-I 531 W/m² 8,8 °C 11,8 °C 8,0 km/h (2 Bft)
09.09.2019 16:04 11,8 °C 82 % 1014,8 hPa 0,0 mm 8,0 km/h (2 Bft) W-NW 290 ° 0 min 0,000 mm 2,7 UV-I 543 W/m² 8,8 °C 11,8 °C 11,3 km/h (2 Bft)
09.09.2019 16:05 11,9 °C 82 % 1014,8 hPa 0,0 mm 7,8 km/h (2 Bft) NW 322 ° 0 min 0,000 mm 2,6 UV-I 524 W/m² 8,9 °C 11,9 °C 11,3 km/h (2 Bft)
09.09.2019 16:06 11,9 °C 81 % 1014,8 hPa 0,0 mm 4,2 km/h (1 Bft) N-NW 328 ° 0 min 0,000 mm 2,5 UV-I 510 W/m² 8,7 °C 11,9 °C 9,7 km/h (2 Bft)
09.09.2019 16:07 12,0 °C 81 % 1014,8 hPa 0,0 mm 7,4 km/h (2 Bft) NW 320 ° 0 min 0,000 mm 2,1 UV-I 510 W/m² 8,8 °C 12,0 °C 12,9 km/h (3 Bft)
09.09.2019 16:08 12,0 °C 80 % 1014,8 hPa 0,0 mm 9,2 km/h (2 Bft) NW 307 ° 0 min 0,000 mm 1,6 UV-I 510 W/m² 8,7 °C 12,0 °C 16,1 km/h (3 Bft)
09.09.2019 16:09 12,0 °C 80 % 1014,8 hPa 0,0 mm 9,9 km/h (2 Bft) N 360 ° 0 min 0,000 mm 2,4 UV-I 510 W/m² 8,7 °C 12,0 °C 19,3 km/h (3 Bft)
09.09.2019 16:10 12,0 °C 80 % 1014,8 hPa 0,0 mm 9,7 km/h (2 Bft) NW 311 ° 0 min 0,000 mm 2,6 UV-I 510 W/m² 8,7 °C 12,0 °C 16,1 km/h (3 Bft)
09.09.2019 16:11 12,0 °C 80 % 1014,8 hPa 0,0 mm 8,1 km/h (2 Bft) W-NW 300 ° 0 min 0,000 mm 2,6 UV-I 510 W/m² 8,7 °C 12,0 °C 12,9 km/h (3 Bft)
09.09.2019 16:12 12,1 °C 80 % 1014,8 hPa 0,0 mm 8,3 km/h (2 Bft) NW 323 ° 0 min 0,000 mm 2,6 UV-I 510 W/m² 8,8 °C 12,1 °C 9,7 km/h (2 Bft)
09.09.2019 16:13 12,1 °C 80 % 1014,8 hPa 0,0 mm 9,8 km/h (2 Bft) NW 325 ° 0 min 0,000 mm 2,5 UV-I 522 W/m² 8,8 °C 12,1 °C 16,1 km/h (3 Bft)
09.09.2019 16:14 12,1 °C 80 % 1014,8 hPa 0,0 mm 5,3 km/h (1 Bft) NW 324 ° 0 min 0,000 mm 2,5 UV-I 522 W/m² 8,8 °C 12,1 °C 8,0 km/h (2 Bft)
09.09.2019 16:15 12,1 °C 80 % 1014,8 hPa 0,0 mm 4,8 km/h (1 Bft) N-NW 341 ° 0 min 0,000 mm 2,1 UV-I 522 W/m² 8,8 °C 12,1 °C 6,4 km/h (2 Bft)
09.09.2019 16:16 12,0 °C 80 % 1014,8 hPa 0,0 mm 8,3 km/h (2 Bft) N 355 ° 0 min 0,000 mm 2,5 UV-I 522 W/m² 8,7 °C 12,0 °C 9,7 km/h (2 Bft)
09.09.2019 16:17 11,9 °C 79 % 1014,8 hPa 0,0 mm 8,5 km/h (2 Bft) N-NW 329 ° 0 min 0,000 mm 2,2 UV-I 438 W/m² 8,4 °C 11,9 °C 12,9 km/h (3 Bft)
09.09.2019 16:18 11,9 °C 79 % 1014,7 hPa 0,0 mm 7,1 km/h (2 Bft) NW 312 ° 0 min 0,000 mm 2,1 UV-I 359 W/m² 8,4 °C 11,9 °C 12,9 km/h (3 Bft)
09.09.2019 16:19 11,9 °C 80 % 1014,7 hPa 0,0 mm 2,6 km/h (1 Bft) NW 310 ° 0 min 0,000 mm 1,9 UV-I 359 W/m² 8,6 °C 11,9 °C 4,8 km/h (1 Bft)
09.09.2019 16:20 11,9 °C 79 % 1014,7 hPa 0,0 mm 5,4 km/h (1 Bft) W 275 ° 0 min 0,000 mm 1,6 UV-I 359 W/m² 8,4 °C 11,9 °C 6,4 km/h (2 Bft)
09.09.2019 16:21 11,8 °C 80 % 1014,7 hPa 0,0 mm 7,7 km/h (2 Bft) NW 311 ° 0 min 0,000 mm 1,5 UV-I 98 W/m² 8,5 °C 11,8 °C 11,3 km/h (2 Bft)
09.09.2019 16:22 11,8 °C 78 % 1014,8 hPa 0,0 mm 4,5 km/h (1 Bft) W 277 ° 0 min 0,000 mm 1,6 UV-I 93 W/m² 8,1 °C 11,8 °C 6,4 km/h (2 Bft)
09.09.2019 16:23 11,8 °C 79 % 1014,7 hPa 0,0 mm 6,3 km/h (2 Bft) W 269 ° 0 min 0,000 mm 1,5 UV-I 93 W/m² 8,3 °C 11,8 °C 11,3 km/h (2 Bft)
09.09.2019 16:24 11,8 °C 79 % 1014,7 hPa 0,0 mm 10,1 km/h (2 Bft) W-NW 302 ° 0 min 0,000 mm 1,5 UV-I 95 W/m² 8,3 °C 11,8 °C 14,5 km/h (3 Bft)
09.09.2019 16:25 11,9 °C 78 % 1014,7 hPa 0,0 mm 11,1 km/h (2 Bft) NW 313 ° 0 min 0,000 mm 1,5 UV-I 90 W/m² 8,2 °C 11,9 °C 16,1 km/h (3 Bft)
09.09.2019 16:26 11,9 °C 78 % 1014,8 hPa 0,0 mm 7,7 km/h (2 Bft) W-NW 295 ° 0 min 0,000 mm 1,5 UV-I 98 W/m² 8,2 °C 11,9 °C 12,9 km/h (3 Bft)
09.09.2019 16:27 11,9 °C 78 % 1014,8 hPa 0,0 mm 7,4 km/h (2 Bft) N-NW 334 ° 0 min 0,000 mm 1,5 UV-I 146 W/m² 8,2 °C 11,9 °C 12,9 km/h (3 Bft)
09.09.2019 16:28 11,9 °C 78 % 1014,7 hPa 0,0 mm 7,5 km/h (2 Bft) NW 309 ° 0 min 0,000 mm 1,5 UV-I 77 W/m² 8,2 °C 11,9 °C 12,9 km/h (3 Bft)
09.09.2019 16:29 11,9 °C 78 % 1014,7 hPa 0,0 mm 5,9 km/h (2 Bft) N-NW 337 ° 0 min 0,000 mm 1,4 UV-I 81 W/m² 8,2 °C 11,9 °C 9,7 km/h (2 Bft)
09.09.2019 16:30 11,8 °C 78 % 1014,8 hPa 0,0 mm 4,0 km/h (1 Bft) N-NW 337 ° 0 min 0,000 mm 1,5 UV-I 102 W/m² 8,1 °C 11,8 °C 4,8 km/h (1 Bft)
09.09.2019 16:31 11,7 °C 77 % 1014,8 hPa 0,2 mm 4,8 km/h (1 Bft) W-NW 294 ° 0 min 0,000 mm 1,8 UV-I 102 W/m² 7,8 °C 11,7 °C 9,7 km/h (2 Bft)
09.09.2019 16:32 11,7 °C 79 % 1014,8 hPa 0,0 mm 3,7 km/h (1 Bft) W 267 ° 0 min 0,000 mm 1,7 UV-I 102 W/m² 8,2 °C 11,7 °C 4,8 km/h (1 Bft)
09.09.2019 16:33 11,7 °C 79 % 1014,7 hPa 0,0 mm 4,2 km/h (1 Bft) N-NW 333 ° 0 min 0,000 mm 1,7 UV-I 290 W/m² 8,2 °C 11,7 °C 6,4 km/h (2 Bft)
09.09.2019 16:34 11,8 °C 80 % 1014,8 hPa 0,0 mm 5,0 km/h (1 Bft) W-NW 297 ° 0 min 0,000 mm 1,6 UV-I 134 W/m² 8,5 °C 11,8 °C 6,4 km/h (2 Bft)
09.09.2019 16:35 11,8 °C 79 % 1014,7 hPa 0,0 mm 4,4 km/h (1 Bft) N-NW 340 ° 0 min 0,000 mm 1,5 UV-I 128 W/m² 8,3 °C 11,8 °C 6,4 km/h (2 Bft)
09.09.2019 16:36 11,9 °C 79 % 1014,8 hPa 0,0 mm 5,3 km/h (1 Bft) W 274 ° 0 min 0,000 mm 1,5 UV-I 114 W/m² 8,4 °C 11,9 °C 9,7 km/h (2 Bft)
09.09.2019 16:37 12,1 °C 81 % 1014,8 hPa 0,0 mm 6,9 km/h (2 Bft) N-NW 347 ° 0 min 0,000 mm 1,5 UV-I 113 W/m² 8,9 °C 12,1 °C 9,7 km/h (2 Bft)
09.09.2019 16:38 12,2 °C 81 % 1014,7 hPa 0,0 mm 7,0 km/h (2 Bft) NW 316 ° 0 min 0,000 mm 1,5 UV-I 125 W/m² 9,0 °C 12,2 °C 8,0 km/h (2 Bft)
09.09.2019 16:39 12,3 °C 80 % 1014,8 hPa 0,0 mm 6,7 km/h (2 Bft) N-NW 347 ° 0 min 0,000 mm 1,4 UV-I 118 W/m² 8,9 °C 12,3 °C 12,9 km/h (3 Bft)
09.09.2019 16:40 12,3 °C 80 % 1014,8 hPa 0,0 mm 10,4 km/h (2 Bft) N 360 ° 0 min 0,000 mm 1,5 UV-I 120 W/m² 8,9 °C 12,3 °C 14,5 km/h (3 Bft)
09.09.2019 16:41 12,3 °C 80 % 1014,7 hPa 0,0 mm 12,1 km/h (2 Bft) NW 325 ° 0 min 0,000 mm 1,5 UV-I 120 W/m² 8,9 °C 12,3 °C 16,1 km/h (3 Bft)
09.09.2019 16:42 12,3 °C 80 % 1014,8 hPa 0,0 mm 9,0 km/h (2 Bft) NW 313 ° 0 min 0,000 mm 1,4 UV-I 100 W/m² 8,9 °C 12,3 °C 12,9 km/h (3 Bft)
09.09.2019 16:43 12,3 °C 80 % 1014,7 hPa 0,0 mm 7,3 km/h (2 Bft) N-NW 348 ° 0 min 0,000 mm 1,4 UV-I 116 W/m² 8,9 °C 12,3 °C 11,3 km/h (2 Bft)
09.09.2019 16:44 12,2 °C 78 % 1014,7 hPa 0,0 mm 7,2 km/h (2 Bft) NW 312 ° 0 min 0,000 mm 1,4 UV-I 97 W/m² 8,5 °C 12,2 °C 12,9 km/h (3 Bft)
09.09.2019 16:45 12,1 °C 79 % 1014,8 hPa 0,0 mm 9,1 km/h (2 Bft) NW 319 ° 0 min 0,000 mm 1,4 UV-I 84 W/m² 8,6 °C 12,1 °C 12,9 km/h (3 Bft)
09.09.2019 16:46 12,1 °C 79 % 1014,8 hPa 0,0 mm 8,6 km/h (2 Bft) N 5 ° 0 min 0,000 mm 1,4 UV-I 111 W/m² 8,6 °C 12,1 °C 12,9 km/h (3 Bft)
09.09.2019 16:47 12,1 °C 79 % 1014,8 hPa 0,0 mm 5,1 km/h (1 Bft) N 355 ° 0 min 0,000 mm 1,4 UV-I 107 W/m² 8,6 °C 12,1 °C 9,7 km/h (2 Bft)
09.09.2019 16:48 12,0 °C 79 % 1014,8 hPa 0,0 mm 3,4 km/h (1 Bft) NW 323 ° 0 min 0,000 mm 1,4 UV-I 91 W/m² 8,5 °C 12,0 °C 8,0 km/h (2 Bft)
09.09.2019 16:49 12,0 °C 79 % 1014,8 hPa 0,0 mm 6,9 km/h (2 Bft) N-NO 19 ° 0 min 0,000 mm 1,4 UV-I 90 W/m² 8,5 °C 12,0 °C 11,3 km/h (2 Bft)
09.09.2019 16:50 12,1 °C 80 % 1014,8 hPa 0,0 mm 8,4 km/h (2 Bft) W-NW 292 ° 0 min 0,000 mm 1,3 UV-I 90 W/m² 8,8 °C 12,1 °C 11,3 km/h (2 Bft)
09.09.2019 16:51 12,0 °C 79 % 1014,8 hPa 0,0 mm 6,8 km/h (2 Bft) W 281 ° 0 min 0,000 mm 1,3 UV-I 90 W/m² 8,5 °C 12,0 °C 9,7 km/h (2 Bft)
09.09.2019 16:52 11,9 °C 79 % 1014,8 hPa 0,0 mm 5,2 km/h (1 Bft) N-NO 17 ° 0 min 0,000 mm 1,3 UV-I 91 W/m² 8,4 °C 11,9 °C 8,0 km/h (2 Bft)
09.09.2019 16:53 11,9 °C 79 % 1014,8 hPa 0,0 mm 7,2 km/h (2 Bft) N-NW 344 ° 0 min 0,000 mm 1,3 UV-I 84 W/m² 8,4 °C 11,9 °C 12,9 km/h (3 Bft)
09.09.2019 16:54 11,9 °C 80 % 1014,8 hPa 0,0 mm 3,7 km/h (1 Bft) N-NW 329 ° 0 min 0,000 mm 1,3 UV-I 67 W/m² 8,6 °C 11,9 °C 8,0 km/h (2 Bft)
09.09.2019 16:55 11,8 °C 79 % 1014,8 hPa 0,0 mm 4,3 km/h (1 Bft) NW 310 ° 0 min 0,000 mm 1,3 UV-I 65 W/m² 8,3 °C 11,8 °C 8,0 km/h (2 Bft)
09.09.2019 16:56 11,7 °C 79 % 1014,8 hPa 0,0 mm 6,9 km/h (2 Bft) N-NW 329 ° 0 min 0,000 mm 1,2 UV-I 69 W/m² 8,2 °C 11,7 °C 11,3 km/h (2 Bft)
09.09.2019 16:57 11,7 °C 80 % 1014,8 hPa 0,0 mm 5,4 km/h (1 Bft) NW 323 ° 0 min 0,000 mm 1,2 UV-I 77 W/m² 8,4 °C 11,7 °C 6,4 km/h (2 Bft)
09.09.2019 16:58 11,7 °C 80 % 1014,8 hPa 0,0 mm 3,2 km/h (1 Bft) N-NW 337 ° 0 min 0,000 mm 1,3 UV-I 88 W/m² 8,4 °C 11,7 °C 6,4 km/h (2 Bft)
09.09.2019 16:59 11,7 °C 81 % 1014,8 hPa 0,0 mm 6,4 km/h (2 Bft) W-NW 299 ° 0 min 0,000 mm 1,3 UV-I 88 W/m² 8,5 °C 11,7 °C 8,0 km/h (2 Bft)
09.09.2019 17:00 11,7 °C 81 % 1014,7 hPa 0,0 mm 6,4 km/h (2 Bft) NW 315 ° 0 min 0,000 mm 1,2 UV-I 70 W/m² 8,5 °C 11,7 °C 12,9 km/h (3 Bft)
09.09.2019 17:01 11,7 °C 82 % 1014,8 hPa 0,0 mm 11,3 km/h (2 Bft) N-NW 331 ° 0 min 0,127 mm 1,2 UV-I 60 W/m² 8,7 °C 11,7 °C 16,1 km/h (3 Bft)
09.09.2019 17:02 11,8 °C 80 % 1014,8 hPa 0,0 mm 7,9 km/h (2 Bft) N-NW 328 ° 0 min 0,000 mm 0,0 UV-I 54 W/m² 8,5 °C 11,8 °C 12,9 km/h (3 Bft)
09.09.2019 17:03 11,8 °C 81 % 1014,8 hPa 0,0 mm 6,0 km/h (2 Bft) NW 323 ° 0 min 0,000 mm 1,2 UV-I 60 W/m² 8,6 °C 11,8 °C 8,0 km/h (2 Bft)
09.09.2019 17:04 11,9 °C 81 % 1014,8 hPa 0,0 mm 6,1 km/h (2 Bft) N-NW 330 ° 0 min 0,000 mm 1,2 UV-I 51 W/m² 8,7 °C 11,9 °C 9,7 km/h (2 Bft)
09.09.2019 17:05 11,9 °C 80 % 1014,7 hPa 0,0 mm 5,3 km/h (1 Bft) W-NW 302 ° 0 min 0,000 mm 1,2 UV-I 58 W/m² 8,6 °C 11,9 °C 6,4 km/h (2 Bft)
09.09.2019 17:06 11,8 °C 79 % 1014,7 hPa 0,0 mm 3,5 km/h (1 Bft) W-NW 302 ° 0 min 0,000 mm 1,2 UV-I 76 W/m² 8,3 °C 11,8 °C 4,8 km/h (1 Bft)
09.09.2019 17:07 11,8 °C 79 % 1014,7 hPa 0,0 mm 0,5 km/h (0 Bft) W-NW 302 ° 0 min 0,000 mm 1,2 UV-I 79 W/m² 8,3 °C 11,8 °C 1,6 km/h (1 Bft)
09.09.2019 17:08 11,8 °C 78 % 1014,7 hPa 0,0 mm 2,4 km/h (1 Bft) W-NW 302 ° 0 min 0,000 mm 0,0 UV-I 47 W/m² 8,1 °C 11,8 °C 3,2 km/h (1 Bft)
09.09.2019 17:09 11,8 °C 78 % 1014,6 hPa 0,0 mm 3,2 km/h (1 Bft) W-NW 301 ° 0 min 0,000 mm 0,0 UV-I 47 W/m² 8,1 °C 11,8 °C 4,8 km/h (1 Bft)
09.09.2019 17:10 11,7 °C 78 % 1014,6 hPa 0,0 mm 1,2 km/h (1 Bft) W-NW 301 ° 0 min 0,000 mm 0,0 UV-I 56 W/m² 8,0 °C 11,7 °C 3,2 km/h (1 Bft)
09.09.2019 17:11 11,7 °C 79 % 1014,7 hPa 0,0 mm 2,0 km/h (1 Bft) NW 311 ° 0 min 0,000 mm 1,1 UV-I 58 W/m² 8,2 °C 11,7 °C 3,2 km/h (1 Bft)
09.09.2019 17:12 11,7 °C 79 % 1014,6 hPa 0,0 mm 5,2 km/h (1 Bft) N 355 ° 0 min 0,000 mm 1,1 UV-I 56 W/m² 8,2 °C 11,7 °C 8,0 km/h (2 Bft)
09.09.2019 17:13 11,8 °C 80 % 1014,6 hPa 0,0 mm 4,6 km/h (1 Bft) N 5 ° 0 min 0,000 mm 1,1 UV-I 58 W/m² 8,5 °C 11,8 °C 6,4 km/h (2 Bft)
09.09.2019 17:14 11,8 °C 79 % 1014,7 hPa 0,0 mm 3,8 km/h (1 Bft) NW 323 ° 0 min 0,000 mm 1,1 UV-I 62 W/m² 8,3 °C 11,8 °C 4,8 km/h (1 Bft)
09.09.2019 17:15 11,8 °C 79 % 1014,6 hPa 0,0 mm 2,3 km/h (1 Bft) N-NW 341 ° 0 min 0,000 mm 1,1 UV-I 56 W/m² 8,3 °C 11,8 °C 4,8 km/h (1 Bft)
09.09.2019 17:16 11,8 °C 80 % 1014,6 hPa 0,0 mm 3,2 km/h (1 Bft) NW 317 ° 0 min 0,000 mm 1,1 UV-I 60 W/m² 8,5 °C 11,8 °C 8,0 km/h (2 Bft)
09.09.2019 17:17 11,9 °C 79 % 1014,6 hPa 0,0 mm 4,8 km/h (1 Bft) N 355 ° 0 min 0,000 mm 1,1 UV-I 60 W/m² 8,4 °C 11,9 °C 6,4 km/h (2 Bft)
09.09.2019 17:18 11,9 °C 79 % 1014,7 hPa 0,0 mm 3,4 km/h (1 Bft) N-NW 329 ° 0 min 0,000 mm 1,1 UV-I 62 W/m² 8,4 °C 11,9 °C 6,4 km/h (2 Bft)
09.09.2019 17:19 11,9 °C 79 % 1014,7 hPa 0,0 mm 1,3 km/h (1 Bft) N-NW 329 ° 0 min 0,000 mm 1,1 UV-I 62 W/m² 8,4 °C 11,9 °C 3,2 km/h (1 Bft)
09.09.2019 17:20 11,8 °C 79 % 1014,6 hPa 0,0 mm 4,8 km/h (1 Bft) N-NW 340 ° 0 min 0,000 mm 1,1 UV-I 67 W/m² 8,3 °C 11,8 °C 8,0 km/h (2 Bft)
09.09.2019 17:21 11,8 °C 79 % 1014,7 hPa 0,0 mm 5,4 km/h (1 Bft) NW 313 ° 0 min 0,000 mm 1,1 UV-I 105 W/m² 8,3 °C 11,8 °C 8,0 km/h (2 Bft)
09.09.2019 17:22 11,8 °C 80 % 1014,7 hPa 0,0 mm 5,8 km/h (2 Bft) W 269 ° 0 min 0,000 mm 1,0 UV-I 77 W/m² 8,5 °C 11,8 °C 8,0 km/h (2 Bft)
09.09.2019 17:23 11,9 °C 80 % 1014,7 hPa 0,0 mm 4,4 km/h (1 Bft) W-NW 296 ° 0 min 0,000 mm 1,0 UV-I 70 W/m² 8,6 °C 11,9 °C 6,4 km/h (2 Bft)
09.09.2019 17:24 11,9 °C 79 % 1014,7 hPa 0,0 mm 4,1 km/h (1 Bft) NW 311 ° 0 min 0,000 mm 1,0 UV-I 77 W/m² 8,4 °C 11,9 °C 6,4 km/h (2 Bft)
09.09.2019 17:25 11,9 °C 78 % 1014,6 hPa 0,0 mm 3,2 km/h (1 Bft) W-NW 289 ° 0 min 0,000 mm 1,0 UV-I 77 W/m² 8,2 °C 11,9 °C 6,4 km/h (2 Bft)
09.09.2019 17:26 11,9 °C 80 % 1014,7 hPa 0,0 mm 5,3 km/h (1 Bft) W-NW 292 ° 0 min 0,000 mm 1,0 UV-I 93 W/m² 8,6 °C 11,9 °C 6,4 km/h (2 Bft)
09.09.2019 17:27 11,9 °C 80 % 1014,7 hPa 0,0 mm 1,9 km/h (1 Bft) W-NW 292 ° 0 min 0,000 mm 1,1 UV-I 67 W/m² 8,6 °C 11,9 °C 3,2 km/h (1 Bft)
09.09.2019 17:28 11,9 °C 80 % 1014,6 hPa 0,2 mm 2,7 km/h (1 Bft) W-NW 289 ° 0 min 0,000 mm 1,0 UV-I 56 W/m² 8,6 °C 11,9 °C 4,8 km/h (1 Bft)
09.09.2019 17:29 11,9 °C 78 % 1014,7 hPa 0,0 mm 3,2 km/h (1 Bft) W-NW 297 ° 0 min 0,000 mm 0,0 UV-I 54 W/m² 8,2 °C 11,9 °C 4,8 km/h (1 Bft)
09.09.2019 17:30 11,9 °C 79 % 1014,6 hPa 0,0 mm 3,3 km/h (1 Bft) NW 310 ° 0 min 0,000 mm 1,0 UV-I 60 W/m² 8,4 °C 11,9 °C 4,8 km/h (1 Bft)
09.09.2019 17:31 11,9 °C 78 % 1014,6 hPa 0,0 mm 4,9 km/h (1 Bft) W-NW 284 ° 0 min 0,000 mm 1,0 UV-I 63 W/m² 8,2 °C 11,9 °C 9,7 km/h (2 Bft)
09.09.2019 17:32 11,9 °C 78 % 1014,6 hPa 0,0 mm 5,4 km/h (1 Bft) N-NW 332 ° 0 min 0,000 mm 1,0 UV-I 58 W/m² 8,2 °C 11,9 °C 8,0 km/h (2 Bft)
09.09.2019 17:33 11,9 °C 79 % 1014,6 hPa 0,0 mm 4,8 km/h (1 Bft) NW 322 ° 0 min 0,000 mm 1,0 UV-I 58 W/m² 8,4 °C 11,9 °C 8,0 km/h (2 Bft)
09.09.2019 17:34 11,9 °C 79 % 1014,7 hPa 0,0 mm 5,3 km/h (1 Bft) N-NW 334 ° 0 min 0,000 mm 0,9 UV-I 67 W/m² 8,4 °C 11,9 °C 9,7 km/h (2 Bft)
09.09.2019 17:35 11,9 °C 78 % 1014,6 hPa 0,0 mm 4,9 km/h (1 Bft) N 350 ° 0 min 0,000 mm 0,9 UV-I 56 W/m² 8,2 °C 11,9 °C 8,0 km/h (2 Bft)
09.09.2019 17:36 11,9 °C 77 % 1014,6 hPa 0,0 mm 8,4 km/h (2 Bft) NW 309 ° 0 min 0,000 mm 0,0 UV-I 49 W/m² 8,0 °C 11,9 °C 12,9 km/h (3 Bft)
09.09.2019 17:37 11,9 °C 78 % 1014,6 hPa 0,0 mm 3,6 km/h (1 Bft) N-NW 334 ° 0 min 0,000 mm 0,0 UV-I 49 W/m² 8,2 °C 11,9 °C 6,4 km/h (2 Bft)
09.09.2019 17:38 11,9 °C 79 % 1014,6 hPa 0,0 mm 3,7 km/h (1 Bft) NW 321 ° 0 min 0,000 mm 0,0 UV-I 49 W/m² 8,4 °C 11,9 °C 8,0 km/h (2 Bft)
09.09.2019 17:39 11,9 °C 79 % 1014,6 hPa 0,0 mm 2,5 km/h (1 Bft) NW 321 ° 0 min 0,000 mm 0,0 UV-I 46 W/m² 8,4 °C 11,9 °C 4,8 km/h (1 Bft)
09.09.2019 17:40 11,9 °C 79 % 1014,6 hPa 0,0 mm 2,3 km/h (1 Bft) NW 323 ° 0 min 0,000 mm 0,0 UV-I 46 W/m² 8,4 °C 11,9 °C 4,8 km/h (1 Bft)
09.09.2019 17:41 11,9 °C 79 % 1014,6 hPa 0,0 mm 3,1 km/h (1 Bft) NW 323 ° 0 min 0,000 mm 0,0 UV-I 46 W/m² 8,4 °C 11,9 °C 4,8 km/h (1 Bft)
09.09.2019 17:42 11,9 °C 78 % 1014,6 hPa 0,0 mm 2,3 km/h (1 Bft) W 267 ° 0 min 0,000 mm 0,0 UV-I 46 W/m² 8,2 °C 11,9 °C 3,2 km/h (1 Bft)
09.09.2019 17:43 11,9 °C 78 % 1014,6 hPa 0,0 mm 2,5 km/h (1 Bft) W-NW 295 ° 0 min 0,000 mm 0,0 UV-I 46 W/m² 8,2 °C 11,9 °C 6,4 km/h (2 Bft)
09.09.2019 17:44 11,9 °C 78 % 1014,6 hPa 0,0 mm 3,6 km/h (1 Bft) W 279 ° 0 min 0,000 mm 0,0 UV-I 46 W/m² 8,2 °C 11,9 °C 4,8 km/h (1 Bft)
09.09.2019 17:45 11,8 °C 78 % 1014,6 hPa 0,0 mm 5,1 km/h (1 Bft) NW 309 ° 0 min 0,000 mm 0,0 UV-I 46 W/m² 8,1 °C 11,8 °C 6,4 km/h (2 Bft)
09.09.2019 17:46 11,9 °C 78 % 1014,6 hPa 0,0 mm 4,2 km/h (1 Bft) N-NW 333 ° 0 min 0,000 mm 0,0 UV-I 46 W/m² 8,2 °C 11,9 °C 6,4 km/h (2 Bft)
09.09.2019 17:47 11,8 °C 78 % 1014,6 hPa 0,0 mm 2,2 km/h (1 Bft) N-NW 334 ° 0 min 0,000 mm 0,0 UV-I 46 W/m² 8,1 °C 11,8 °C 3,2 km/h (1 Bft)
09.09.2019 17:48 11,8 °C 78 % 1014,6 hPa 0,0 mm 3,8 km/h (1 Bft) NW 311 ° 0 min 0,000 mm 0,0 UV-I 49 W/m² 8,1 °C 11,8 °C 6,4 km/h (2 Bft)
09.09.2019 17:49 11,9 °C 78 % 1014,6 hPa 0,0 mm 5,3 km/h (1 Bft) N-NW 333 ° 0 min 0,000 mm 0,0 UV-I 46 W/m² 8,2 °C 11,9 °C 8,0 km/h (2 Bft)
09.09.2019 17:50 11,9 °C 78 % 1014,6 hPa 0,0 mm 0,7 km/h (0 Bft) N-NW 333 ° 0 min 0,000 mm 0,0 UV-I 47 W/m² 8,2 °C 11,9 °C 3,2 km/h (1 Bft)
09.09.2019 17:51 11,9 °C 79 % 1014,6 hPa 0,0 mm 1,6 km/h (1 Bft) N-NW 331 ° 0 min 0,000 mm 0,0 UV-I 49 W/m² 8,4 °C 11,9 °C 3,2 km/h (1 Bft)
09.09.2019 17:52 11,9 °C 79 % 1014,6 hPa 0,0 mm 0,2 km/h (0 Bft) N-NW 331 ° 0 min 0,000 mm 0,0 UV-I 49 W/m² 8,4 °C 11,9 °C 1,6 km/h (1 Bft)
09.09.2019 17:53 11,9 °C 79 % 1014,6 hPa 0,0 mm 1,7 km/h (1 Bft) N-NW 331 ° 0 min 0,000 mm 0,0 UV-I 49 W/m² 8,4 °C 11,9 °C 3,2 km/h (1 Bft)
09.09.2019 17:54 11,9 °C 80 % 1014,6 hPa 0,0 mm 1,6 km/h (1 Bft) N-NW 331 ° 0 min 0,000 mm 0,0 UV-I 51 W/m² 8,6 °C 11,9 °C 3,2 km/h (1 Bft)
09.09.2019 17:55 11,9 °C 80 % 1014,6 hPa 0,0 mm 3,1 km/h (1 Bft) W 278 ° 0 min 0,000 mm 0,0 UV-I 49 W/m² 8,6 °C 11,9 °C 4,8 km/h (1 Bft)
09.09.2019 17:56 11,9 °C 79 % 1014,6 hPa 0,0 mm 5,6 km/h (1 Bft) NW 317 ° 0 min 0,000 mm 0,0 UV-I 49 W/m² 8,4 °C 11,9 °C 8,0 km/h (2 Bft)
09.09.2019 17:57 11,9 °C 79 % 1014,7 hPa 0,0 mm 4,2 km/h (1 Bft) NW 318 ° 0 min 0,000 mm 0,0 UV-I 47 W/m² 8,4 °C 11,9 °C 6,4 km/h (2 Bft)
09.09.2019 17:58 11,9 °C 79 % 1014,6 hPa 0,0 mm 3,1 km/h (1 Bft) N-NW 346 ° 0 min 0,000 mm 0,0 UV-I 49 W/m² 8,4 °C 11,9 °C 4,8 km/h (1 Bft)
09.09.2019 17:59 11,9 °C 79 % 1014,6 hPa 0,0 mm 3,3 km/h (1 Bft) N 349 ° 0 min 0,000 mm 0,0 UV-I 51 W/m² 8,4 °C 11,9 °C 4,8 km/h (1 Bft)
09.09.2019 18:00 11,9 °C 78 % 1014,6 hPa 0,0 mm 3,4 km/h (1 Bft) N-NW 333 ° 0 min 0,000 mm 0,0 UV-I 53 W/m² 8,2 °C 11,9 °C 6,4 km/h (2 Bft)
09.09.2019 18:01 11,9 °C 78 % 1014,6 hPa 0,0 mm 2,7 km/h (1 Bft) N-NW 334 ° 0 min 0,051 mm 0,0 UV-I 54 W/m² 8,2 °C 11,9 °C 4,8 km/h (1 Bft)
09.09.2019 18:02 11,9 °C 78 % 1014,7 hPa 0,0 mm 1,1 km/h (1 Bft) NW 321 ° 0 min 0,000 mm 0,7 UV-I 56 W/m² 8,2 °C 11,9 °C 3,2 km/h (1 Bft)
09.09.2019 18:03 11,9 °C 78 % 1014,6 hPa 0,0 mm 1,7 km/h (1 Bft) NW 321 ° 0 min 0,000 mm 0,7 UV-I 56 W/m² 8,2 °C 11,9 °C 3,2 km/h (1 Bft)
09.09.2019 18:04 11,8 °C 78 % 1014,6 hPa 0,0 mm 0,1 km/h (0 Bft) NW 321 ° 0 min 0,000 mm 0,7 UV-I 56 W/m² 8,1 °C 11,8 °C 1,6 km/h (1 Bft)
09.09.2019 18:05 11,8 °C 78 % 1014,6 hPa 0,0 mm 0,0 km/h (0 Bft) NW 321 ° 0 min 0,000 mm 0,7 UV-I 56 W/m² 8,1 °C 11,8 °C 0,0 km/h (0 Bft)
09.09.2019 18:06 11,8 °C 78 % 1014,6 hPa 0,0 mm 0,0 km/h (0 Bft) NW 321 ° 0 min 0,000 mm 0,7 UV-I 58 W/m² 8,1 °C 11,8 °C 0,0 km/h (0 Bft)
09.09.2019 18:07 11,7 °C 79 % 1014,6 hPa 0,0 mm 0,2 km/h (0 Bft) NW 321 ° 0 min 0,000 mm 0,6 UV-I 62 W/m² 8,2 °C 11,7 °C 1,6 km/h (1 Bft)
09.09.2019 18:08 11,7 °C 79 % 1014,6 hPa 0,0 mm 0,1 km/h (0 Bft) NW 322 ° 0 min 0,000 mm 0,6 UV-I 62 W/m² 8,2 °C 11,7 °C 1,6 km/h (1 Bft)
09.09.2019 18:09 11,6 °C 78 % 1014,5 hPa 0,0 mm 0,0 km/h (0 Bft) NW 322 ° 0 min 0,000 mm 0,6 UV-I 62 W/m² 7,9 °C 11,6 °C 0,0 km/h (0 Bft)
09.09.2019 18:10 11,6 °C 78 % 1014,5 hPa 0,0 mm 0,0 km/h (0 Bft) NW 322 ° 0 min 0,000 mm 0,6 UV-I 60 W/m² 7,9 °C 11,6 °C 0,0 km/h (0 Bft)
09.09.2019 18:11 11,6 °C 78 % 1014,5 hPa 0,0 mm 0,0 km/h (0 Bft) NW 318 ° 0 min 0,000 mm 0,6 UV-I 60 W/m² 7,9 °C 11,6 °C 0,0 km/h (0 Bft)
09.09.2019 18:12 11,7 °C 79 % 1014,5 hPa 0,0 mm 0,5 km/h (0 Bft) NW 319 ° 0 min 0,000 mm 0,6 UV-I 60 W/m² 8,2 °C 11,7 °C 4,8 km/h (1 Bft)
09.09.2019 18:13 11,8 °C 79 % 1014,6 hPa 0,0 mm 3,1 km/h (1 Bft) NW 319 ° 0 min 0,000 mm 0,6 UV-I 56 W/m² 8,3 °C 11,8 °C 6,4 km/h (2 Bft)
09.09.2019 18:14 11,8 °C 77 % 1014,5 hPa 0,0 mm 0,9 km/h (0 Bft) NW 319 ° 0 min 0,000 mm 0,0 UV-I 53 W/m² 7,9 °C 11,8 °C 3,2 km/h (1 Bft)
09.09.2019 18:15 11,8 °C 77 % 1014,5 hPa 0,0 mm 3,8 km/h (1 Bft) N-NW 334 ° 0 min 0,000 mm 0,0 UV-I 54 W/m² 7,9 °C 11,8 °C 6,4 km/h (2 Bft)
09.09.2019 18:16 11,8 °C 77 % 1014,6 hPa 0,0 mm 3,4 km/h (1 Bft) N-NW 342 ° 0 min 0,000 mm 0,0 UV-I 54 W/m² 7,9 °C 11,8 °C 6,4 km/h (2 Bft)
09.09.2019 18:17 11,8 °C 78 % 1014,5 hPa 0,0 mm 2,8 km/h (1 Bft) N-NW 342 ° 0 min 0,000 mm 0,6 UV-I 56 W/m² 8,1 °C 11,8 °C 4,8 km/h (1 Bft)
09.09.2019 18:18 11,9 °C 78 % 1014,6 hPa 0,0 mm 3,1 km/h (1 Bft) N-NO 15 ° 0 min 0,000 mm 0,5 UV-I 58 W/m² 8,2 °C 11,9 °C 6,4 km/h (2 Bft)
09.09.2019 18:19 11,9 °C 78 % 1014,6 hPa 0,0 mm 3,6 km/h (1 Bft) N-NO 14 ° 0 min 0,000 mm 0,5 UV-I 60 W/m² 8,2 °C 11,9 °C 6,4 km/h (2 Bft)
09.09.2019 18:20 11,9 °C 77 % 1014,5 hPa 0,2 mm 2,2 km/h (1 Bft) N-NO 14 ° 0 min 0,000 mm 0,5 UV-I 60 W/m² 8,0 °C 11,9 °C 3,2 km/h (1 Bft)
09.09.2019 18:21 11,9 °C 78 % 1014,5 hPa 0,0 mm 1,5 km/h (1 Bft) NO 42 ° 0 min 0,000 mm 0,5 UV-I 56 W/m² 8,2 °C 11,9 °C 6,4 km/h (2 Bft)
09.09.2019 18:22 11,9 °C 78 % 1014,5 hPa 0,0 mm 4,6 km/h (1 Bft) O 88 ° 0 min 0,000 mm 0,5 UV-I 56 W/m² 8,2 °C 11,9 °C 6,4 km/h (2 Bft)
09.09.2019 18:23 11,8 °C 77 % 1014,4 hPa 0,0 mm 2,5 km/h (1 Bft) O 80 ° 0 min 0,000 mm 0,5 UV-I 56 W/m² 7,9 °C 11,8 °C 4,8 km/h (1 Bft)
09.09.2019 18:24 11,8 °C 77 % 1014,5 hPa 0,0 mm 3,6 km/h (1 Bft) N-NO 29 ° 0 min 0,000 mm 0,5 UV-I 58 W/m² 7,9 °C 11,8 °C 6,4 km/h (2 Bft)
09.09.2019 18:25 11,8 °C 77 % 1014,5 hPa 0,0 mm 0,6 km/h (0 Bft) N-NO 29 ° 0 min 0,000 mm 0,5 UV-I 58 W/m² 7,9 °C 11,8 °C 1,6 km/h (1 Bft)
09.09.2019 18:26 11,8 °C 77 % 1014,5 hPa 0,0 mm 0,0 km/h (0 Bft) N-NO 29 ° 0 min 0,000 mm 0,5 UV-I 62 W/m² 7,9 °C 11,8 °C 0,0 km/h (0 Bft)
09.09.2019 18:27 11,8 °C 77 % 1014,5 hPa 0,0 mm 2,9 km/h (1 Bft) N-NO 29 ° 0 min 0,000 mm 0,5 UV-I 63 W/m² 7,9 °C 11,8 °C 3,2 km/h (1 Bft)
09.09.2019 18:28 11,8 °C 78 % 1014,4 hPa 0,0 mm 1,4 km/h (1 Bft) N-NO 29 ° 0 min 0,000 mm 0,5 UV-I 62 W/m² 8,1 °C 11,8 °C 1,6 km/h (1 Bft)
09.09.2019 18:29 11,8 °C 78 % 1014,4 hPa 0,0 mm 0,2 km/h (0 Bft) N-NO 29 ° 0 min 0,000 mm 0,0 UV-I 62 W/m² 8,1 °C 11,8 °C 1,6 km/h (1 Bft)
09.09.2019 18:30 11,7 °C 79 % 1014,4 hPa 0,0 mm 0,0 km/h (0 Bft) N-NO 29 ° 0 min 0,000 mm 0,0 UV-I 60 W/m² 8,2 °C 11,7 °C 0,0 km/h (0 Bft)
09.09.2019 18:31 11,7 °C 80 % 1014,4 hPa 0,0 mm 0,0 km/h (0 Bft) N-NO 29 ° 0 min 0,000 mm 0,0 UV-I 62 W/m² 8,4 °C 11,7 °C 0,0 km/h (0 Bft)
09.09.2019 18:32 11,7 °C 80 % 1014,4 hPa 0,0 mm 0,0 km/h (0 Bft) N-NO 29 ° 0 min 0,000 mm 0,0 UV-I 62 W/m² 8,4 °C 11,7 °C 0,0 km/h (0 Bft)
09.09.2019 18:33 11,8 °C 80 % 1014,4 hPa 0,0 mm 0,0 km/h (0 Bft) N-NO 29 ° 0 min 0,000 mm 0,0 UV-I 60 W/m² 8,5 °C 11,8 °C 0,0 km/h (0 Bft)
09.09.2019 18:34 11,8 °C 78 % 1014,3 hPa 0,0 mm 0,0 km/h (0 Bft) N-NO 29 ° 0 min 0,000 mm 0,0 UV-I 60 W/m² 8,1 °C 11,8 °C 0,0 km/h (0 Bft)
09.09.2019 18:35 11,8 °C 78 % 1014,3 hPa 0,0 mm 1,7 km/h (1 Bft) N-NO 29 ° 0 min 0,000 mm 0,0 UV-I 70 W/m² 8,1 °C 11,8 °C 3,2 km/h (1 Bft)
09.09.2019 18:36 11,8 °C 79 % 1014,3 hPa 0,0 mm 3,8 km/h (1 Bft) N-NW 340 ° 0 min 0,000 mm 0,0 UV-I 95 W/m² 8,3 °C 11,8 °C 4,8 km/h (1 Bft)
09.09.2019 18:37 11,8 °C 78 % 1014,3 hPa 0,0 mm 2,9 km/h (1 Bft) N-NW 340 ° 0 min 0,000 mm 0,0 UV-I 105 W/m² 8,1 °C 11,8 °C 4,8 km/h (1 Bft)
09.09.2019 18:38 11,8 °C 79 % 1014,2 hPa 0,0 mm 2,3 km/h (1 Bft) N-NW 340 ° 0 min 0,000 mm 0,0 UV-I 109 W/m² 8,3 °C 11,8 °C 4,8 km/h (1 Bft)
09.09.2019 18:39 11,8 °C 80 % 1014,3 hPa 0,0 mm 3,4 km/h (1 Bft) N 350 ° 0 min 0,000 mm 0,0 UV-I 114 W/m² 8,5 °C 11,8 °C 4,8 km/h (1 Bft)
09.09.2019 18:40 11,9 °C 79 % 1014,2 hPa 0,0 mm 3,5 km/h (1 Bft) N 349 ° 0 min 0,000 mm 0,0 UV-I 107 W/m² 8,4 °C 11,9 °C 4,8 km/h (1 Bft)
09.09.2019 18:41 11,9 °C 78 % 1014,1 hPa 0,0 mm 2,7 km/h (1 Bft) N 349 ° 0 min 0,000 mm 0,0 UV-I 86 W/m² 8,2 °C 11,9 °C 4,8 km/h (1 Bft)
09.09.2019 18:42 11,9 °C 78 % 1014,3 hPa 0,0 mm 0,5 km/h (0 Bft) N 349 ° 0 min 0,000 mm 0,0 UV-I 72 W/m² 8,2 °C 11,9 °C 1,6 km/h (1 Bft)
09.09.2019 18:43 11,9 °C 78 % 1014,2 hPa 0,0 mm 2,9 km/h (1 Bft) N 355 ° 0 min 0,000 mm 0,0 UV-I 65 W/m² 8,2 °C 11,9 °C 4,8 km/h (1 Bft)
09.09.2019 18:44 11,9 °C 78 % 1014,2 hPa 0,0 mm 3,9 km/h (1 Bft) N 5 ° 0 min 0,000 mm 0,0 UV-I 69 W/m² 8,2 °C 11,9 °C 4,8 km/h (1 Bft)
09.09.2019 18:45 11,9 °C 78 % 1014,2 hPa 0,0 mm 2,9 km/h (1 Bft) N-NO 28 ° 0 min 0,000 mm 0,0 UV-I 72 W/m² 8,2 °C 11,9 °C 3,2 km/h (1 Bft)
09.09.2019 18:46 12,0 °C 78 % 1014,2 hPa 0,0 mm 2,5 km/h (1 Bft) N-NO 28 ° 0 min 0,000 mm 0,0 UV-I 72 W/m² 8,3 °C 12,0 °C 3,2 km/h (1 Bft)
09.09.2019 18:47 11,9 °C 77 % 1014,2 hPa 0,0 mm 1,1 km/h (1 Bft) N-NO 28 ° 0 min 0,000 mm 0,0 UV-I 72 W/m² 8,0 °C 11,9 °C 3,2 km/h (1 Bft)
09.09.2019 18:48 11,9 °C 77 % 1014,2 hPa 0,0 mm 0,7 km/h (0 Bft) N-NO 28 ° 0 min 0,000 mm 0,0 UV-I 76 W/m² 8,0 °C 11,9 °C 3,2 km/h (1 Bft)
09.09.2019 18:49 11,9 °C 78 % 1014,2 hPa 0,0 mm 0,8 km/h (0 Bft) N-NO 28 ° 0 min 0,000 mm 0,0 UV-I 70 W/m² 8,2 °C 11,9 °C 3,2 km/h (1 Bft)
09.09.2019 18:50 11,9 °C 77 % 1014,2 hPa 0,0 mm 0,0 km/h (0 Bft) N-NO 28 ° 0 min 0,000 mm 0,0 UV-I 65 W/m² 8,0 °C 11,9 °C 0,0 km/h (0 Bft)
09.09.2019 18:51 12,0 °C 77 % 1014,2 hPa 0,0 mm 3,0 km/h (1 Bft) N-NO 28 ° 0 min 0,000 mm 0,0 UV-I 65 W/m² 8,1 °C 12,0 °C 4,8 km/h (1 Bft)
09.09.2019 18:52 12,0 °C 77 % 1014,3 hPa 0,0 mm 0,7 km/h (0 Bft) N-NO 28 ° 0 min 0,000 mm 0,0 UV-I 63 W/m² 8,1 °C 12,0 °C 3,2 km/h (1 Bft)
09.09.2019 18:53 11,9 °C 81 % 1014,4 hPa 0,0 mm 1,3 km/h (1 Bft) N-NO 28 ° 0 min 0,000 mm 0,0 UV-I 62 W/m² 8,7 °C 11,9 °C 3,2 km/h (1 Bft)
09.09.2019 18:54 11,7 °C 82 % 1014,4 hPa 0,0 mm 3,6 km/h (1 Bft) N-NO 28 ° 0 min 0,000 mm 0,0 UV-I 60 W/m² 8,7 °C 11,7 °C 4,8 km/h (1 Bft)
09.09.2019 18:55 11,7 °C 80 % 1014,3 hPa 0,0 mm 1,6 km/h (1 Bft) N-NO 28 ° 0 min 0,000 mm 0,0 UV-I 60 W/m² 8,4 °C 11,7 °C 3,2 km/h (1 Bft)
09.09.2019 18:56 11,6 °C 79 % 1014,3 hPa 0,0 mm 1,0 km/h (0 Bft) N-NO 28 ° 0 min 0,000 mm 0,0 UV-I 62 W/m² 8,1 °C 11,6 °C 1,6 km/h (1 Bft)
09.09.2019 18:57 11,6 °C 79 % 1014,3 hPa 0,0 mm 0,6 km/h (0 Bft) N-NO 28 ° 0 min 0,000 mm 0,0 UV-I 63 W/m² 8,1 °C 11,6 °C 3,2 km/h (1 Bft)
09.09.2019 18:58 11,7 °C 79 % 1014,3 hPa 0,0 mm 1,1 km/h (1 Bft) N-NO 28 ° 0 min 0,000 mm 0,0 UV-I 60 W/m² 8,2 °C 11,7 °C 3,2 km/h (1 Bft)
09.09.2019 18:59 11,7 °C 79 % 1014,3 hPa 0,0 mm 0,9 km/h (0 Bft) N-NO 28 ° 0 min 0,000 mm 0,0 UV-I 56 W/m² 8,2 °C 11,7 °C 3,2 km/h (1 Bft)
09.09.2019 19:00 11,7 °C 80 % 1014,4 hPa 0,0 mm 0,1 km/h (0 Bft) N-NO 28 ° 0 min 0,000 mm 0,0 UV-I 56 W/m² 8,4 °C 11,7 °C 1,6 km/h (1 Bft)
09.09.2019 19:01 11,7 °C 79 % 1014,3 hPa 0,0 mm 0,0 km/h (0 Bft) N-NO 28 ° 0 min 0,050 mm 0,0 UV-I 56 W/m² 8,2 °C 11,7 °C 0,0 km/h (0 Bft)
09.09.2019 19:02 11,6 °C 79 % 1014,3 hPa 0,0 mm 0,0 km/h (0 Bft) N-NO 28 ° 0 min 0,000 mm 0,0 UV-I 56 W/m² 8,1 °C 11,6 °C 0,0 km/h (0 Bft)
09.09.2019 19:03 11,6 °C 80 % 1014,3 hPa 0,0 mm 0,0 km/h (0 Bft) N-NO 28 ° 0 min 0,000 mm 0,0 UV-I 56 W/m² 8,3 °C 11,6 °C 0,0 km/h (0 Bft)
09.09.2019 19:04 11,4 °C 82 % 1014,3 hPa 0,0 mm 2,1 km/h (1 Bft) N-NO 28 ° 0 min 0,000 mm 0,0 UV-I 53 W/m² 8,4 °C 11,4 °C 3,2 km/h (1 Bft)
09.09.2019 19:05 11,3 °C 82 % 1014,3 hPa 0,0 mm 1,9 km/h (1 Bft) N-NO 28 ° 0 min 0,000 mm 0,0 UV-I 53 W/m² 8,3 °C 11,3 °C 3,2 km/h (1 Bft)
09.09.2019 19:06 11,2 °C 83 % 1014,3 hPa 0,0 mm 0,4 km/h (0 Bft) N-NO 28 ° 0 min 0,000 mm 0,0 UV-I 49 W/m² 8,4 °C 11,2 °C 1,6 km/h (1 Bft)
09.09.2019 19:07 11,1 °C 83 % 1014,3 hPa 0,0 mm 0,6 km/h (0 Bft) N-NO 28 ° 0 min 0,000 mm 0,0 UV-I 39 W/m² 8,3 °C 11,1 °C 1,6 km/h (1 Bft)
09.09.2019 19:08 11,0 °C 83 % 1014,3 hPa 0,0 mm 2,3 km/h (1 Bft) N-NO 28 ° 0 min 0,000 mm 0,0 UV-I 37 W/m² 8,2 °C 11,0 °C 3,2 km/h (1 Bft)
09.09.2019 19:09 10,9 °C 83 % 1014,3 hPa 0,0 mm 0,8 km/h (0 Bft) N-NO 28 ° 0 min 0,000 mm 0,0 UV-I 32 W/m² 8,1 °C 10,9 °C 1,6 km/h (1 Bft)
09.09.2019 19:10 10,9 °C 83 % 1014,3 hPa 0,0 mm 0,0 km/h (0 Bft) N-NO 28 ° 0 min 0,000 mm 0,0 UV-I 28 W/m² 8,1 °C 10,9 °C 0,0 km/h (0 Bft)
09.09.2019 19:11 10,9 °C 83 % 1014,3 hPa 0,0 mm 0,0 km/h (0 Bft) N-NO 28 ° 0 min 0,000 mm 0,0 UV-I 28 W/m² 8,1 °C 10,9 °C 0,0 km/h (0 Bft)
09.09.2019 19:12 10,9 °C 83 % 1014,4 hPa 0,0 mm 0,0 km/h (0 Bft) N-NO 28 ° 0 min 0,000 mm 0,0 UV-I 30 W/m² 8,1 °C 10,9 °C 0,0 km/h (0 Bft)
09.09.2019 19:13 10,9 °C 83 % 1014,3 hPa 0,0 mm 0,0 km/h (0 Bft) N-NO 28 ° 0 min 0,000 mm 0,0 UV-I 30 W/m² 8,1 °C 10,9 °C 0,0 km/h (0 Bft)
09.09.2019 19:14 10,9 °C 83 % 1014,3 hPa 0,0 mm 0,0 km/h (0 Bft) N-NO 28 ° 0 min 0,000 mm 0,0 UV-I 28 W/m² 8,1 °C 10,9 °C 0,0 km/h (0 Bft)
09.09.2019 19:15 10,9 °C 83 % 1014,4 hPa 0,0 mm 1,0 km/h (0 Bft) N-NO 28 ° 0 min 0,000 mm 0,0 UV-I 28 W/m² 8,1 °C 10,9 °C 3,2 km/h (1 Bft)
09.09.2019 19:16 10,8 °C 85 % 1014,3 hPa 0,0 mm 1,6 km/h (1 Bft) N-NO 28 ° 0 min 0,000 mm 0,0 UV-I 28 W/m² 8,4 °C 10,8 °C 3,2 km/h (1 Bft)
09.09.2019 19:17 10,7 °C 85 % 1014,4 hPa 0,0 mm 0,0 km/h (0 Bft) N-NO 28 ° 0 min 0,000 mm 0,0 UV-I 26 W/m² 8,3 °C 10,7 °C 0,0 km/h (0 Bft)
09.09.2019 19:18 10,6 °C 85 % 1014,4 hPa 0,0 mm 0,0 km/h (0 Bft) N-NO 28 ° 0 min 0,000 mm 0,0 UV-I 25 W/m² 8,2 °C 10,6 °C 0,0 km/h (0 Bft)
09.09.2019 19:19 10,6 °C 85 % 1014,4 hPa 0,0 mm 0,0 km/h (0 Bft) N-NO 28 ° 0 min 0,000 mm 0,0 UV-I 19 W/m² 8,2 °C 10,6 °C 0,0 km/h (0 Bft)
09.09.2019 19:20 10,5 °C 86 % 1014,5 hPa 0,0 mm 0,0 km/h (0 Bft) N-NO 28 ° 0 min 0,000 mm 0,0 UV-I 18 W/m² 8,3 °C 10,5 °C 0,0 km/h (0 Bft)
09.09.2019 19:21 10,4 °C 86 % 1014,5 hPa 0,0 mm 0,0 km/h (0 Bft) O 97 ° 0 min 0,000 mm 0,0 UV-I 16 W/m² 8,2 °C 10,4 °C 0,0 km/h (0 Bft)
09.09.2019 19:22 10,4 °C 86 % 1014,5 hPa 0,0 mm 0,0 km/h (0 Bft) O 97 ° 0 min 0,000 mm 0,0 UV-I 14 W/m² 8,2 °C 10,4 °C 0,0 km/h (0 Bft)
09.09.2019 19:23 10,3 °C 86 % 1014,5 hPa 0,2 mm 0,0 km/h (0 Bft) O 97 ° 0 min 0,000 mm 0,0 UV-I 14 W/m² 8,1 °C 10,3 °C 0,0 km/h (0 Bft)
09.09.2019 19:24 10,3 °C 87 % 1014,5 hPa 0,0 mm 0,0 km/h (0 Bft) O 97 ° 0 min 0,000 mm 0,0 UV-I 11 W/m² 8,2 °C 10,3 °C 0,0 km/h (0 Bft)
09.09.2019 19:25 10,3 °C 87 % 1014,5 hPa 0,0 mm 0,0 km/h (0 Bft) O 97 ° 0 min 0,000 mm 0,0 UV-I 11 W/m² 8,2 °C 10,3 °C 0,0 km/h (0 Bft)
09.09.2019 19:26 10,2 °C 87 % 1014,6 hPa 0,0 mm 3,3 km/h (1 Bft) SO 137 ° 0 min 0,000 mm 0,0 UV-I 9 W/m² 8,1 °C 10,2 °C 6,4 km/h (2 Bft)
09.09.2019 19:27 10,2 °C 87 % 1014,5 hPa 0,0 mm 2,6 km/h (1 Bft) SO 137 ° 0 min 0,000 mm 0,0 UV-I 9 W/m² 8,1 °C 10,2 °C 3,2 km/h (1 Bft)
09.09.2019 19:28 10,1 °C 87 % 1014,5 hPa 0,0 mm 1,0 km/h (0 Bft) SO 137 ° 0 min 0,000 mm 0,0 UV-I 9 W/m² 8,0 °C 10,1 °C 3,2 km/h (1 Bft)
09.09.2019 19:29 10,1 °C 87 % 1014,6 hPa 0,0 mm 2,8 km/h (1 Bft) SO 136 ° 0 min 0,000 mm 0,0 UV-I 9 W/m² 8,0 °C 10,1 °C 4,8 km/h (1 Bft)
09.09.2019 19:30 10,0 °C 88 % 1014,6 hPa 0,0 mm 2,9 km/h (1 Bft) SO 136 ° 0 min 0,000 mm 0,0 UV-I 9 W/m² 8,1 °C 10,0 °C 3,2 km/h (1 Bft)
09.09.2019 19:31 9,9 °C 88 % 1014,6 hPa 0,0 mm 0,6 km/h (0 Bft) SO 136 ° 0 min 0,000 mm 0,0 UV-I 7 W/m² 8,0 °C 9,9 °C 1,6 km/h (1 Bft)
09.09.2019 19:32 9,8 °C 88 % 1014,6 hPa 0,0 mm 0,0 km/h (0 Bft) SO 136 ° 0 min 0,000 mm 0,0 UV-I 7 W/m² 7,9 °C 9,8 °C 0,0 km/h (0 Bft)
09.09.2019 19:33 9,8 °C 88 % 1014,6 hPa 0,0 mm 0,0 km/h (0 Bft) SO 136 ° 0 min 0,000 mm 0,0 UV-I 7 W/m² 7,9 °C 9,8 °C 0,0 km/h (0 Bft)
09.09.2019 19:34 9,7 °C 89 % 1014,6 hPa 0,0 mm 0,0 km/h (0 Bft) SO 136 ° 0 min 0,000 mm 0,0 UV-I 7 W/m² 8,0 °C 9,7 °C 0,0 km/h (0 Bft)
09.09.2019 19:35 9,7 °C 89 % 1014,7 hPa 0,0 mm 0,0 km/h (0 Bft) SO 136 ° 0 min 0,000 mm 0,0 UV-I 7 W/m² 8,0 °C 9,7 °C 0,0 km/h (0 Bft)
09.09.2019 19:36 9,7 °C 89 % 1014,6 hPa 0,0 mm 0,0 km/h (0 Bft) SO 136 ° 0 min 0,000 mm 0,0 UV-I 7 W/m² 8,0 °C 9,7 °C 0,0 km/h (0 Bft)
09.09.2019 19:37 9,6 °C 89 % 1014,7 hPa 0,0 mm 0,0 km/h (0 Bft) SO 136 ° 0 min 0,000 mm 0,0 UV-I 5 W/m² 7,9 °C 9,6 °C 0,0 km/h (0 Bft)
09.09.2019 19:38 9,6 °C 89 % 1014,7 hPa 0,0 mm 0,0 km/h (0 Bft) SO 136 ° 0 min 0,000 mm 0,0 UV-I 5 W/m² 7,9 °C 9,6 °C 0,0 km/h (0 Bft)
09.09.2019 19:39 9,5 °C 89 % 1014,7 hPa 0,0 mm 0,0 km/h (0 Bft) SO 136 ° 0 min 0,000 mm 0,0 UV-I 5 W/m² 7,8 °C 9,5 °C 0,0 km/h (0 Bft)
09.09.2019 19:40 9,4 °C 90 % 1014,6 hPa 0,0 mm 0,0 km/h (0 Bft) SO 136 ° 0 min 0,000 mm 0,0 UV-I 5 W/m² 7,8 °C 9,4 °C 0,0 km/h (0 Bft)
09.09.2019 19:41 9,4 °C 90 % 1014,6 hPa 0,0 mm 0,0 km/h (0 Bft) SO 136 ° 0 min 0,000 mm 0,0 UV-I 5 W/m² 7,8 °C 9,4 °C 0,0 km/h (0 Bft)
09.09.2019 19:42 9,4 °C 90 % 1014,7 hPa 0,0 mm 0,0 km/h (0 Bft) SO 136 ° 0 min 0,000 mm 0,0 UV-I 0 W/m² 7,8 °C 9,4 °C 0,0 km/h (0 Bft)
09.09.2019 19:43 9,3 °C 90 % 1014,7 hPa 0,0 mm 0,0 km/h (0 Bft) SO 136 ° 0 min 0,000 mm 0,0 UV-I 0 W/m² 7,7 °C 9,3 °C 0,0 km/h (0 Bft)
09.09.2019 19:44 9,3 °C 90 % 1014,7 hPa 0,0 mm 0,0 km/h (0 Bft) SO 136 ° 0 min 0,000 mm 0,0 UV-I 0 W/m² 7,7 °C 9,3 °C 0,0 km/h (0 Bft)
09.09.2019 19:45 9,2 °C 90 % 1014,7 hPa 0,0 mm 0,0 km/h (0 Bft) SO 136 ° 0 min 0,000 mm 0,0 UV-I 0 W/m² 7,6 °C 9,2 °C 0,0 km/h (0 Bft)
09.09.2019 19:46 9,2 °C 90 % 1014,8 hPa 0,0 mm 0,0 km/h (0 Bft) SO 136 ° 0 min 0,000 mm 0,0 UV-I 0 W/m² 7,6 °C 9,2 °C 0,0 km/h (0 Bft)
09.09.2019 19:47 9,2 °C 91 % 1014,8 hPa 0,0 mm 0,0 km/h (0 Bft) SO 136 ° 0 min 0,000 mm 0,0 UV-I 0 W/m² 7,8 °C 9,2 °C 0,0 km/h (0 Bft)
09.09.2019 19:48 9,1 °C 91 % 1014,8 hPa 0,0 mm 0,0 km/h (0 Bft) SO 136 ° 0 min 0,000 mm 0,0 UV-I 0 W/m² 7,7 °C 9,1 °C 0,0 km/h (0 Bft)
09.09.2019 19:49 9,1 °C 91 % 1014,8 hPa 0,0 mm 0,0 km/h (0 Bft) SO 136 ° 0 min 0,000 mm 0,0 UV-I 0 W/m² 7,7 °C 9,1 °C 0,0 km/h (0 Bft)
09.09.2019 19:50 9,1 °C 91 % 1014,8 hPa 0,0 mm 0,0 km/h (0 Bft) SO 136 ° 0 min 0,000 mm 0,0 UV-I 0 W/m² 7,7 °C 9,1 °C 0,0 km/h (0 Bft)
09.09.2019 19:51 9,1 °C 91 % 1014,7 hPa 0,0 mm 0,0 km/h (0 Bft) SO 136 ° 0 min 0,000 mm 0,0 UV-I 0 W/m² 7,7 °C 9,1 °C 0,0 km/h (0 Bft)
09.09.2019 19:52 9,0 °C 91 % 1014,7 hPa 0,0 mm 0,0 km/h (0 Bft) SO 136 ° 0 min 0,000 mm 0,0 UV-I 0 W/m² 7,6 °C 9,0 °C 0,0 km/h (0 Bft)
09.09.2019 19:53 9,0 °C 91 % 1014,7 hPa 0,0 mm 0,0 km/h (0 Bft) SO 136 ° 0 min 0,000 mm 0,0 UV-I 0 W/m² 7,6 °C 9,0 °C 0,0 km/h (0 Bft)
09.09.2019 19:54 8,9 °C 91 % 1014,7 hPa 0,0 mm 0,0 km/h (0 Bft) SO 136 ° 0 min 0,000 mm 0,0 UV-I 0 W/m² 7,5 °C 8,9 °C 0,0 km/h (0 Bft)
09.09.2019 19:55 8,9 °C 91 % 1014,7 hPa 0,0 mm 0,0 km/h (0 Bft) SO 136 ° 0 min 0,000 mm 0,0 UV-I 0 W/m² 7,5 °C 8,9 °C 0,0 km/h (0 Bft)
09.09.2019 19:56 8,8 °C 91 % 1014,7 hPa 0,0 mm 0,0 km/h (0 Bft) SO 136 ° 0 min 0,000 mm 0,0 UV-I 0 W/m² 7,4 °C 8,8 °C 0,0 km/h (0 Bft)
09.09.2019 19:57 8,7 °C 91 % 1014,7 hPa 0,0 mm 0,0 km/h (0 Bft) SO 136 ° 0 min 0,000 mm 0,0 UV-I 0 W/m² 7,3 °C 8,7 °C 0,0 km/h (0 Bft)
09.09.2019 19:58 8,6 °C 91 % 1014,7 hPa 0,0 mm 0,0 km/h (0 Bft) SO 136 ° 0 min 0,000 mm 0,0 UV-I 0 W/m² 7,2 °C 8,6 °C 0,0 km/h (0 Bft)
09.09.2019 19:59 8,6 °C 92 % 1014,8 hPa 0,0 mm 0,0 km/h (0 Bft) SO 136 ° 0 min 0,000 mm 0,0 UV-I 0 W/m² 7,4 °C 8,6 °C 0,0 km/h (0 Bft)
09.09.2019 20:00 8,6 °C 91 % 1014,7 hPa 0,0 mm 0,0 km/h (0 Bft) SO 136 ° 0 min 0,000 mm 0,0 UV-I 0 W/m² 7,2 °C 8,6 °C 0,0 km/h (0 Bft)
09.09.2019 20:01 8,5 °C 91 % 1014,8 hPa 0,0 mm 0,0 km/h (0 Bft) SO 136 ° 0 min 0,000 mm 0,0 UV-I 0 W/m² 7,1 °C 8,5 °C 0,0 km/h (0 Bft)
09.09.2019 20:02 8,4 °C 92 % 1014,8 hPa 0,0 mm 0,0 km/h (0 Bft) SO 136 ° 0 min 0,000 mm 0,0 UV-I 0 W/m² 7,2 °C 8,4 °C 0,0 km/h (0 Bft)
09.09.2019 20:03 8,4 °C 92 % 1014,7 hPa 0,0 mm 0,0 km/h (0 Bft) SO 136 ° 0 min 0,000 mm 0,0 UV-I 0 W/m² 7,2 °C 8,4 °C 0,0 km/h (0 Bft)
09.09.2019 20:04 8,4 °C 92 % 1014,8 hPa 0,0 mm 0,0 km/h (0 Bft) SO 136 ° 0 min 0,000 mm 0,0 UV-I 0 W/m² 7,2 °C 8,4 °C 0,0 km/h (0 Bft)
09.09.2019 20:05 8,4 °C 92 % 1014,8 hPa 0,0 mm 0,0 km/h (0 Bft) SO 136 ° 0 min 0,000 mm 0,0 UV-I 0 W/m² 7,2 °C 8,4 °C 0,0 km/h (0 Bft)
09.09.2019 20:06 8,4 °C 92 % 1014,8 hPa 0,0 mm 0,0 km/h (0 Bft) SO 136 ° 0 min 0,000 mm 0,0 UV-I 0 W/m² 7,2 °C 8,4 °C 0,0 km/h (0 Bft)
09.09.2019 20:07 8,3 °C 92 % 1014,8 hPa 0,0 mm 0,0 km/h (0 Bft) SO 136 ° 0 min 0,000 mm 0,0 UV-I 0 W/m² 7,1 °C 8,3 °C 0,0 km/h (0 Bft)
09.09.2019 20:08 8,2 °C 92 % 1014,9 hPa 0,0 mm 0,0 km/h (0 Bft) SO 136 ° 0 min 0,000 mm 0,0 UV-I 0 W/m² 7,0 °C 8,2 °C 0,0 km/h (0 Bft)
09.09.2019 20:09 8,1 °C 92 % 1014,9 hPa 0,0 mm 0,0 km/h (0 Bft) SO 136 ° 0 min 0,000 mm 0,0 UV-I 0 W/m² 6,9 °C 8,1 °C 0,0 km/h (0 Bft)
09.09.2019 20:10 8,1 °C 92 % 1014,9 hPa 0,0 mm 0,0 km/h (0 Bft) SO 136 ° 0 min 0,000 mm 0,0 UV-I 0 W/m² 6,9 °C 8,1 °C 0,0 km/h (0 Bft)
09.09.2019 20:11 7,9 °C 92 % 1014,9 hPa 0,0 mm 0,0 km/h (0 Bft) SO 136 ° 0 min 0,000 mm 0,0 UV-I 0 W/m² 6,7 °C 7,9 °C 0,0 km/h (0 Bft)
09.09.2019 20:12 7,9 °C 92 % 1014,9 hPa 0,0 mm 0,0 km/h (0 Bft) SO 136 ° 0 min 0,000 mm 0,0 UV-I 0 W/m² 6,7 °C 7,9 °C 0,0 km/h (0 Bft)
09.09.2019 20:13 7,8 °C 92 % 1014,8 hPa 0,0 mm 0,0 km/h (0 Bft) SO 136 ° 0 min 0,000 mm 0,0 UV-I 0 W/m² 6,6 °C 7,8 °C 0,0 km/h (0 Bft)
09.09.2019 20:14 7,8 °C 92 % 1014,8 hPa 0,0 mm 0,0 km/h (0 Bft) SO 136 ° 0 min 0,000 mm 0,0 UV-I 0 W/m² 6,6 °C 7,8 °C 0,0 km/h (0 Bft)
09.09.2019 20:15 7,8 °C 92 % 1014,8 hPa 0,0 mm 0,0 km/h (0 Bft) SO 136 ° 0 min 0,000 mm 0,0 UV-I 0 W/m² 6,6 °C 7,8 °C 0,0 km/h (0 Bft)
09.09.2019 20:16 7,7 °C 92 % 1014,9 hPa 0,2 mm 0,0 km/h (0 Bft) SO 136 ° 0 min 0,000 mm 0,0 UV-I 0 W/m² 6,5 °C 7,7 °C 0,0 km/h (0 Bft)
09.09.2019 20:17 7,7 °C 93 % 1014,9 hPa 0,0 mm 0,0 km/h (0 Bft) SO 136 ° 0 min 0,000 mm 0,0 UV-I 0 W/m² 6,6 °C 7,7 °C 0,0 km/h (0 Bft)
09.09.2019 20:18 7,7 °C 93 % 1014,8 hPa 0,0 mm 0,0 km/h (0 Bft) SO 136 ° 0 min 0,000 mm 0,0 UV-I 0 W/m² 6,6 °C 7,7 °C 0,0 km/h (0 Bft)
09.09.2019 20:19 7,7 °C 92 % 1014,9 hPa 0,0 mm 0,0 km/h (0 Bft) SO 136 ° 0 min 0,000 mm 0,0 UV-I 0 W/m² 6,5 °C 7,7 °C 0,0 km/h (0 Bft)
09.09.2019 20:20 7,7 °C 93 % 1014,9 hPa 0,0 mm 0,0 km/h (0 Bft) SO 136 ° 0 min 0,000 mm 0,0 UV-I 0 W/m² 6,6 °C 7,7 °C 0,0 km/h (0 Bft)
09.09.2019 20:21 7,6 °C 93 % 1014,9 hPa 0,0 mm 0,0 km/h (0 Bft) SO 136 ° 0 min 0,000 mm 0,0 UV-I 0 W/m² 6,5 °C 7,6 °C 0,0 km/h (0 Bft)
09.09.2019 20:22 7,6 °C 93 % 1014,8 hPa 0,0 mm 0,0 km/h (0 Bft) SO 136 ° 0 min 0,000 mm 0,0 UV-I 0 W/m² 6,5 °C 7,6 °C 0,0 km/h (0 Bft)
09.09.2019 20:23 7,6 °C 93 % 1014,8 hPa 0,0 mm 0,0 km/h (0 Bft) SO 136 ° 0 min 0,000 mm 0,0 UV-I 0 W/m² 6,5 °C 7,6 °C 0,0 km/h (0 Bft)
09.09.2019 20:24 7,6 °C 93 % 1014,8 hPa 0,0 mm 0,0 km/h (0 Bft) SO 136 ° 0 min 0,000 mm 0,0 UV-I 0 W/m² 6,5 °C 7,6 °C 0,0 km/h (0 Bft)
09.09.2019 20:25 7,6 °C 93 % 1014,8 hPa 0,0 mm 0,0 km/h (0 Bft) SO 136 ° 0 min 0,000 mm 0,0 UV-I 0 W/m² 6,5 °C 7,6 °C 0,0 km/h (0 Bft)
09.09.2019 20:26 7,7 °C 93 % 1014,8 hPa 0,0 mm 0,0 km/h (0 Bft) SO 136 ° 0 min 0,000 mm 0,0 UV-I 0 W/m² 6,6 °C 7,7 °C 0,0 km/h (0 Bft)
09.09.2019 20:27 7,7 °C 93 % 1014,8 hPa 0,0 mm 0,0 km/h (0 Bft) SO 136 ° 0 min 0,000 mm 0,0 UV-I 0 W/m² 6,6 °C 7,7 °C 0,0 km/h (0 Bft)
09.09.2019 20:28 7,7 °C 93 % 1014,8 hPa 0,0 mm 0,0 km/h (0 Bft) SO 136 ° 0 min 0,000 mm 0,0 UV-I 0 W/m² 6,6 °C 7,7 °C 0,0 km/h (0 Bft)
09.09.2019 20:29 7,7 °C 93 % 1014,9 hPa 0,0 mm 0,0 km/h (0 Bft) SO 136 ° 0 min 0,000 mm 0,0 UV-I 0 W/m² 6,6 °C 7,7 °C 0,0 km/h (0 Bft)
09.09.2019 20:30 7,6 °C 93 % 1014,8 hPa 0,0 mm 0,0 km/h (0 Bft) SO 136 ° 0 min 0,000 mm 0,0 UV-I 0 W/m² 6,5 °C 7,6 °C 0,0 km/h (0 Bft)
09.09.2019 20:31 7,5 °C 93 % 1014,9 hPa 0,0 mm 0,0 km/h (0 Bft) SO 136 ° 0 min 0,000 mm 0,0 UV-I 0 W/m² 6,4 °C 7,5 °C 0,0 km/h (0 Bft)
09.09.2019 20:32 7,4 °C 93 % 1014,9 hPa 0,0 mm 0,0 km/h (0 Bft) SO 136 ° 0 min 0,000 mm 0,0 UV-I 0 W/m² 6,3 °C 7,4 °C 0,0 km/h (0 Bft)
09.09.2019 20:33 7,4 °C 93 % 1014,9 hPa 0,0 mm 0,0 km/h (0 Bft) SO 136 ° 0 min 0,000 mm 0,0 UV-I 0 W/m² 6,3 °C 7,4 °C 0,0 km/h (0 Bft)
09.09.2019 20:34 7,5 °C 93 % 1014,9 hPa 0,0 mm 0,0 km/h (0 Bft) SO 136 ° 0 min 0,000 mm 0,0 UV-I 0 W/m² 6,4 °C 7,5 °C 0,0 km/h (0 Bft)
09.09.2019 20:35 7,6 °C 94 % 1014,9 hPa 0,0 mm 0,0 km/h (0 Bft) SO 136 ° 0 min 0,000 mm 0,0 UV-I 0 W/m² 6,7 °C 7,6 °C 0,0 km/h (0 Bft)
09.09.2019 20:36 7,6 °C 94 % 1014,9 hPa 0,0 mm 0,0 km/h (0 Bft) SO 136 ° 0 min 0,000 mm 0,0 UV-I 0 W/m² 6,7 °C 7,6 °C 0,0 km/h (0 Bft)
09.09.2019 20:37 7,7 °C 94 % 1014,9 hPa 0,0 mm 0,0 km/h (0 Bft) SO 136 ° 0 min 0,000 mm 0,0 UV-I 0 W/m² 6,8 °C 7,7 °C 0,0 km/h (0 Bft)
09.09.2019 20:38 7,7 °C 94 % 1015,0 hPa 0,0 mm 0,0 km/h (0 Bft) SO 136 ° 0 min 0,000 mm 0,0 UV-I 0 W/m² 6,8 °C 7,7 °C 0,0 km/h (0 Bft)
09.09.2019 20:39 7,6 °C 93 % 1015,0 hPa 0,0 mm 0,0 km/h (0 Bft) SO 136 ° 0 min 0,000 mm 0,0 UV-I 0 W/m² 6,5 °C 7,6 °C 0,0 km/h (0 Bft)
09.09.2019 20:40 7,4 °C 93 % 1015,0 hPa 0,0 mm 0,0 km/h (0 Bft) SO 136 ° 0 min 0,000 mm 0,0 UV-I 0 W/m² 6,3 °C 7,4 °C 0,0 km/h (0 Bft)
09.09.2019 20:41 7,3 °C 93 % 1015,0 hPa 0,0 mm 0,0 km/h (0 Bft) SO 136 ° 0 min 0,000 mm 0,0 UV-I 0 W/m² 6,2 °C 7,3 °C 0,0 km/h (0 Bft)
09.09.2019 20:42 7,2 °C 93 % 1015,0 hPa 0,0 mm 0,0 km/h (0 Bft) SO 136 ° 0 min 0,000 mm 0,0 UV-I 0 W/m² 6,1 °C 7,2 °C 0,0 km/h (0 Bft)
09.09.2019 20:43 7,1 °C 93 % 1015,0 hPa 0,0 mm 0,0 km/h (0 Bft) SO 136 ° 0 min 0,000 mm 0,0 UV-I 0 W/m² 6,0 °C 7,1 °C 0,0 km/h (0 Bft)
09.09.2019 20:44 7,1 °C 93 % 1015,0 hPa 0,0 mm 0,0 km/h (0 Bft) SO 136 ° 0 min 0,000 mm 0,0 UV-I 0 W/m² 6,0 °C 7,1 °C 0,0 km/h (0 Bft)
09.09.2019 20:45 7,0 °C 93 % 1015,0 hPa 0,0 mm 0,0 km/h (0 Bft) SO 136 ° 0 min 0,000 mm 0,0 UV-I 0 W/m² 5,9 °C 7,0 °C 0,0 km/h (0 Bft)
09.09.2019 20:46 6,9 °C 93 % 1015,1 hPa 0,0 mm 0,0 km/h (0 Bft) SO 136 ° 0 min 0,000 mm 0,0 UV-I 0 W/m² 5,8 °C 6,9 °C 0,0 km/h (0 Bft)
09.09.2019 20:47 6,9 °C 93 % 1015,0 hPa 0,0 mm 0,0 km/h (0 Bft) SO 136 ° 0 min 0,000 mm 0,0 UV-I 0 W/m² 5,8 °C 6,9 °C 0,0 km/h (0 Bft)
09.09.2019 20:48 6,9 °C 93 % 1015,0 hPa 0,0 mm 0,0 km/h (0 Bft) SO 136 ° 0 min 0,000 mm 0,0 UV-I 0 W/m² 5,8 °C 6,9 °C 0,0 km/h (0 Bft)
09.09.2019 20:49 6,8 °C 93 % 1015,1 hPa 0,0 mm 0,0 km/h (0 Bft) SO 136 ° 0 min 0,000 mm 0,0 UV-I 0 W/m² 5,7 °C 6,8 °C 0,0 km/h (0 Bft)
09.09.2019 20:50 6,8 °C 93 % 1015,0 hPa 0,0 mm 0,0 km/h (0 Bft) SO 136 ° 0 min 0,000 mm 0,0 UV-I 0 W/m² 5,7 °C 6,8 °C 0,0 km/h (0 Bft)
09.09.2019 20:51 6,8 °C 93 % 1015,1 hPa 0,0 mm 0,0 km/h (0 Bft) SO 136 ° 0 min 0,000 mm 0,0 UV-I 0 W/m² 5,7 °C 6,8 °C 0,0 km/h (0 Bft)
09.09.2019 20:52 6,9 °C 94 % 1015,1 hPa 0,0 mm 0,0 km/h (0 Bft) SO 136 ° 0 min 0,000 mm 0,0 UV-I 0 W/m² 6,0 °C 6,9 °C 0,0 km/h (0 Bft)
09.09.2019 20:53 6,9 °C 94 % 1015,1 hPa 0,0 mm 0,0 km/h (0 Bft) SO 136 ° 0 min 0,000 mm 0,0 UV-I 0 W/m² 6,0 °C 6,9 °C 0,0 km/h (0 Bft)
09.09.2019 20:54 6,9 °C 94 % 1015,1 hPa 0,0 mm 0,0 km/h (0 Bft) SO 136 ° 0 min 0,000 mm 0,0 UV-I 0 W/m² 6,0 °C 6,9 °C 0,0 km/h (0 Bft)
09.09.2019 20:55 6,9 °C 94 % 1015,1 hPa 0,0 mm 0,0 km/h (0 Bft) SO 136 ° 0 min 0,000 mm 0,0 UV-I 0 W/m² 6,0 °C 6,9 °C 0,0 km/h (0 Bft)
09.09.2019 20:56 7,0 °C 94 % 1015,1 hPa 0,0 mm 0,0 km/h (0 Bft) SO 136 ° 0 min 0,000 mm 0,0 UV-I 0 W/m² 6,1 °C 7,0 °C 0,0 km/h (0 Bft)
09.09.2019 20:57 7,1 °C 94 % 1015,1 hPa 0,0 mm 0,0 km/h (0 Bft) SO 136 ° 0 min 0,000 mm 0,0 UV-I 0 W/m² 6,2 °C 7,1 °C 0,0 km/h (0 Bft)
09.09.2019 20:58 7,1 °C 94 % 1015,1 hPa 0,0 mm 0,0 km/h (0 Bft) SO 136 ° 0 min 0,000 mm 0,0 UV-I 0 W/m² 6,2 °C 7,1 °C 0,0 km/h (0 Bft)
09.09.2019 20:59 7,1 °C 94 % 1015,1 hPa 0,0 mm 0,0 km/h (0 Bft) SO 136 ° 0 min 0,000 mm 0,0 UV-I 0 W/m² 6,2 °C 7,1 °C 0,0 km/h (0 Bft)
09.09.2019 21:00 7,1 °C 94 % 1015,1 hPa 0,0 mm 0,0 km/h (0 Bft) SO 136 ° 0 min 0,000 mm 0,0 UV-I 0 W/m² 6,2 °C 7,1 °C 0,0 km/h (0 Bft)
09.09.2019 21:01 7,1 °C 94 % 1015,1 hPa 0,0 mm 0,0 km/h (0 Bft) SO 136 ° 0 min 0,000 mm 0,0 UV-I 0 W/m² 6,2 °C 7,1 °C 0,0 km/h (0 Bft)
09.09.2019 21:02 7,1 °C 94 % 1015,1 hPa 0,0 mm 0,0 km/h (0 Bft) SO 136 ° 0 min 0,000 mm 0,0 UV-I 0 W/m² 6,2 °C 7,1 °C 0,0 km/h (0 Bft)
09.09.2019 21:03 7,0 °C 94 % 1015,2 hPa 0,0 mm 0,0 km/h (0 Bft) SO 136 ° 0 min 0,000 mm 0,0 UV-I 0 W/m² 6,1 °C 7,0 °C 0,0 km/h (0 Bft)
09.09.2019 21:04 6,9 °C 94 % 1015,1 hPa 0,0 mm 0,0 km/h (0 Bft) SO 136 ° 0 min 0,000 mm 0,0 UV-I 0 W/m² 6,0 °C 6,9 °C 0,0 km/h (0 Bft)
09.09.2019 21:05 6,9 °C 93 % 1015,2 hPa 0,0 mm 0,0 km/h (0 Bft) SO 136 ° 0 min 0,000 mm 0,0 UV-I 0 W/m² 5,8 °C 6,9 °C 0,0 km/h (0 Bft)
09.09.2019 21:06 6,9 °C 94 % 1015,2 hPa 0,0 mm 0,0 km/h (0 Bft) SO 136 ° 0 min 0,000 mm 0,0 UV-I 0 W/m² 6,0 °C 6,9 °C 0,0 km/h (0 Bft)
09.09.2019 21:07 6,8 °C 94 % 1015,2 hPa 0,0 mm 0,0 km/h (0 Bft) SO 136 ° 0 min 0,000 mm 0,0 UV-I 0 W/m² 5,9 °C 6,8 °C 0,0 km/h (0 Bft)
09.09.2019 21:08 6,8 °C 94 % 1015,2 hPa 0,0 mm 0,0 km/h (0 Bft) SO 136 ° 0 min 0,000 mm 0,0 UV-I 0 W/m² 5,9 °C 6,8 °C 0,0 km/h (0 Bft)
09.09.2019 21:09 6,8 °C 94 % 1015,2 hPa 0,0 mm 0,0 km/h (0 Bft) SO 136 ° 0 min 0,000 mm 0,0 UV-I 0 W/m² 5,9 °C 6,8 °C 0,0 km/h (0 Bft)
09.09.2019 21:10 6,8 °C 94 % 1015,2 hPa 0,0 mm 0,0 km/h (0 Bft) SO 136 ° 0 min 0,000 mm 0,0 UV-I 0 W/m² 5,9 °C 6,8 °C 0,0 km/h (0 Bft)
09.09.2019 21:11 6,7 °C 94 % 1015,2 hPa 0,0 mm 0,0 km/h (0 Bft) SO 136 ° 0 min 0,000 mm 0,0 UV-I 0 W/m² 5,8 °C 6,7 °C 0,0 km/h (0 Bft)
09.09.2019 21:12 6,8 °C 94 % 1015,2 hPa 0,0 mm 0,0 km/h (0 Bft) SO 136 ° 0 min 0,000 mm 0,0 UV-I 0 W/m² 5,9 °C 6,8 °C 0,0 km/h (0 Bft)
09.09.2019 21:13 6,8 °C 94 % 1015,3 hPa 0,0 mm 0,0 km/h (0 Bft) SO 136 ° 0 min 0,000 mm 0,0 UV-I 0 W/m² 5,9 °C 6,8 °C 0,0 km/h (0 Bft)
09.09.2019 21:14 6,8 °C 94 % 1015,3 hPa 0,0 mm 0,0 km/h (0 Bft) SO 136 ° 0 min 0,000 mm 0,0 UV-I 0 W/m² 5,9 °C 6,8 °C 0,0 km/h (0 Bft)
09.09.2019 21:15 6,8 °C 94 % 1015,2 hPa 0,0 mm 0,0 km/h (0 Bft) SO 136 ° 0 min 0,000 mm 0,0 UV-I 0 W/m² 5,9 °C 6,8 °C 0,0 km/h (0 Bft)
09.09.2019 21:16 6,7 °C 94 % 1015,2 hPa 0,0 mm 0,0 km/h (0 Bft) SO 136 ° 0 min 0,000 mm 0,0 UV-I 0 W/m² 5,8 °C 6,7 °C 0,0 km/h (0 Bft)
09.09.2019 21:17 6,7 °C 94 % 1015,2 hPa 0,0 mm 0,0 km/h (0 Bft) SO 136 ° 0 min 0,000 mm 0,0 UV-I 0 W/m² 5,8 °C 6,7 °C 0,0 km/h (0 Bft)
09.09.2019 21:18 6,7 °C 94 % 1015,2 hPa 0,0 mm 0,0 km/h (0 Bft) SO 136 ° 0 min 0,000 mm 0,0 UV-I 0 W/m² 5,8 °C 6,7 °C 0,0 km/h (0 Bft)
09.09.2019 21:19 6,6 °C 94 % 1015,2 hPa 0,0 mm 0,0 km/h (0 Bft) SO 136 ° 0 min 0,000 mm 0,0 UV-I 0 W/m² 5,7 °C 6,6 °C 0,0 km/h (0 Bft)
09.09.2019 21:20 6,5 °C 94 % 1015,2 hPa 0,0 mm 0,0 km/h (0 Bft) SO 136 ° 0 min 0,000 mm 0,0 UV-I 0 W/m² 5,6 °C 6,5 °C 0,0 km/h (0 Bft)
09.09.2019 21:21 6,5 °C 94 % 1015,2 hPa 0,0 mm 0,0 km/h (0 Bft) SO 136 ° 0 min 0,000 mm 0,0 UV-I 0 W/m² 5,6 °C 6,5 °C 0,0 km/h (0 Bft)
09.09.2019 21:22 6,4 °C 94 % 1015,2 hPa 0,0 mm 0,0 km/h (0 Bft) SO 136 ° 0 min 0,000 mm 0,0 UV-I 0 W/m² 5,5 °C 6,4 °C 0,0 km/h (0 Bft)
09.09.2019 21:23 6,4 °C 94 % 1015,3 hPa 0,0 mm 0,0 km/h (0 Bft) SO 136 ° 0 min 0,000 mm 0,0 UV-I 0 W/m² 5,5 °C 6,4 °C 0,0 km/h (0 Bft)
09.09.2019 21:24 6,4 °C 94 % 1015,3 hPa 0,0 mm 0,0 km/h (0 Bft) SO 136 ° 0 min 0,000 mm 0,0 UV-I 0 W/m² 5,5 °C 6,4 °C 0,0 km/h (0 Bft)
09.09.2019 21:25 6,3 °C 94 % 1015,2 hPa 0,0 mm 0,0 km/h (0 Bft) SO 136 ° 0 min 0,000 mm 0,0 UV-I 0 W/m² 5,4 °C 6,3 °C 0,0 km/h (0 Bft)
09.09.2019 21:26 6,3 °C 94 % 1015,3 hPa 0,2 mm 0,0 km/h (0 Bft) SO 136 ° 0 min 0,000 mm 0,0 UV-I 0 W/m² 5,4 °C 6,3 °C 0,0 km/h (0 Bft)
09.09.2019 21:27 6,2 °C 94 % 1015,3 hPa 0,0 mm 0,0 km/h (0 Bft) SO 136 ° 0 min 0,000 mm 0,0 UV-I 0 W/m² 5,3 °C 6,2 °C 0,0 km/h (0 Bft)
09.09.2019 21:28 6,3 °C 94 % 1015,2 hPa 0,0 mm 0,0 km/h (0 Bft) SO 136 ° 0 min 0,000 mm 0,0 UV-I 0 W/m² 5,4 °C 6,3 °C 0,0 km/h (0 Bft)
09.09.2019 21:29 6,2 °C 94 % 1015,3 hPa 0,0 mm 0,0 km/h (0 Bft) SO 136 ° 0 min 0,000 mm 0,0 UV-I 0 W/m² 5,3 °C 6,2 °C 0,0 km/h (0 Bft)
09.09.2019 21:30 6,1 °C 94 % 1015,3 hPa 0,0 mm 0,0 km/h (0 Bft) SO 136 ° 0 min 0,000 mm 0,0 UV-I 0 W/m² 5,2 °C 6,1 °C 0,0 km/h (0 Bft)
09.09.2019 21:31 6,1 °C 94 % 1015,3 hPa 0,0 mm 0,0 km/h (0 Bft) SO 136 ° 0 min 0,000 mm 0,0 UV-I 0 W/m² 5,2 °C 6,1 °C 0,0 km/h (0 Bft)
09.09.2019 21:32 6,1 °C 94 % 1015,3 hPa 0,0 mm 0,0 km/h (0 Bft) SO 136 ° 0 min 0,000 mm 0,0 UV-I 0 W/m² 5,2 °C 6,1 °C 0,0 km/h (0 Bft)
09.09.2019 21:33 6,1 °C 94 % 1015,3 hPa 0,0 mm 0,0 km/h (0 Bft) SO 136 ° 0 min 0,000 mm 0,0 UV-I 0 W/m² 5,2 °C 6,1 °C 0,0 km/h (0 Bft)
09.09.2019 21:34 6,1 °C 94 % 1015,3 hPa 0,0 mm 0,0 km/h (0 Bft) SO 136 ° 0 min 0,000 mm 0,0 UV-I 0 W/m² 5,2 °C 6,1 °C 0,0 km/h (0 Bft)
09.09.2019 21:35 6,1 °C 94 % 1015,4 hPa 0,0 mm 0,0 km/h (0 Bft) SO 136 ° 0 min 0,000 mm 0,0 UV-I 0 W/m² 5,2 °C 6,1 °C 0,0 km/h (0 Bft)
09.09.2019 21:36 6,0 °C 94 % 1015,4 hPa 0,0 mm 0,0 km/h (0 Bft) SO 136 ° 0 min 0,000 mm 0,0 UV-I 0 W/m² 5,1 °C 6,0 °C 0,0 km/h (0 Bft)
09.09.2019 21:37 6,1 °C 94 % 1015,3 hPa 0,0 mm 0,0 km/h (0 Bft) SO 136 ° 0 min 0,000 mm 0,0 UV-I 0 W/m² 5,2 °C 6,1 °C 0,0 km/h (0 Bft)
09.09.2019 21:38 6,1 °C 94 % 1015,3 hPa 0,0 mm 0,0 km/h (0 Bft) SO 136 ° 0 min 0,000 mm 0,0 UV-I 0 W/m² 5,2 °C 6,1 °C 0,0 km/h (0 Bft)
09.09.2019 21:39 6,2 °C 94 % 1015,3 hPa 0,0 mm 0,0 km/h (0 Bft) SO 136 ° 0 min 0,000 mm 0,0 UV-I 0 W/m² 5,3 °C 6,2 °C 0,0 km/h (0 Bft)
09.09.2019 21:40 6,3 °C 95 % 1015,3 hPa 0,0 mm 0,0 km/h (0 Bft) SO 136 ° 0 min 0,000 mm 0,0 UV-I 0 W/m² 5,6 °C 6,3 °C 0,0 km/h (0 Bft)
09.09.2019 21:41 6,3 °C 94 % 1015,3 hPa 0,0 mm 0,0 km/h (0 Bft) SO 136 ° 0 min 0,000 mm 0,0 UV-I 0 W/m² 5,4 °C 6,3 °C 0,0 km/h (0 Bft)
09.09.2019 21:42 6,3 °C 94 % 1015,3 hPa 0,0 mm 0,0 km/h (0 Bft) SO 136 ° 0 min 0,000 mm 0,0 UV-I 0 W/m² 5,4 °C 6,3 °C 0,0 km/h (0 Bft)
09.09.2019 21:43 6,2 °C 94 % 1015,3 hPa 0,0 mm 0,0 km/h (0 Bft) SO 136 ° 0 min 0,000 mm 0,0 UV-I 0 W/m² 5,3 °C 6,2 °C 0,0 km/h (0 Bft)
09.09.2019 21:44 6,1 °C 94 % 1015,3 hPa 0,0 mm 0,0 km/h (0 Bft) SO 136 ° 0 min 0,000 mm 0,0 UV-I 0 W/m² 5,2 °C 6,1 °C 0,0 km/h (0 Bft)
09.09.2019 21:45 6,1 °C 94 % 1015,3 hPa 0,0 mm 0,0 km/h (0 Bft) SO 136 ° 0 min 0,000 mm 0,0 UV-I 0 W/m² 5,2 °C 6,1 °C 0,0 km/h (0 Bft)
09.09.2019 21:46 6,0 °C 94 % 1015,3 hPa 0,0 mm 0,0 km/h (0 Bft) SO 136 ° 0 min 0,000 mm 0,0 UV-I 0 W/m² 5,1 °C 6,0 °C 0,0 km/h (0 Bft)
09.09.2019 21:47 6,0 °C 94 % 1015,3 hPa 0,0 mm 0,0 km/h (0 Bft) SO 136 ° 0 min 0,000 mm 0,0 UV-I 0 W/m² 5,1 °C 6,0 °C 0,0 km/h (0 Bft)
09.09.2019 21:48 6,1 °C 94 % 1015,3 hPa 0,0 mm 0,0 km/h (0 Bft) SO 136 ° 0 min 0,000 mm 0,0 UV-I 0 W/m² 5,2 °C 6,1 °C 0,0 km/h (0 Bft)
09.09.2019 21:49 6,1 °C 94 % 1015,3 hPa 0,0 mm 0,0 km/h (0 Bft) SO 136 ° 0 min 0,000 mm 0,0 UV-I 0 W/m² 5,2 °C 6,1 °C 0,0 km/h (0 Bft)
09.09.2019 21:50 6,1 °C 94 % 1015,4 hPa 0,0 mm 0,0 km/h (0 Bft) SO 136 ° 0 min 0,000 mm 0,0 UV-I 0 W/m² 5,2 °C 6,1 °C 0,0 km/h (0 Bft)
09.09.2019 21:51 6,1 °C 94 % 1015,3 hPa 0,0 mm 0,0 km/h (0 Bft) SO 136 ° 0 min 0,000 mm 0,0 UV-I 0 W/m² 5,2 °C 6,1 °C 0,0 km/h (0 Bft)
09.09.2019 21:52 5,9 °C 94 % 1015,3 hPa 0,0 mm 0,0 km/h (0 Bft) SO 136 ° 0 min 0,000 mm 0,0 UV-I 0 W/m² 5,0 °C 5,9 °C 0,0 km/h (0 Bft)
09.09.2019 21:53 5,9 °C 94 % 1015,3 hPa 0,0 mm 0,0 km/h (0 Bft) SO 136 ° 0 min 0,000 mm 0,0 UV-I 0 W/m² 5,0 °C 5,9 °C 0,0 km/h (0 Bft)
09.09.2019 21:54 5,8 °C 94 % 1015,3 hPa 0,0 mm 0,0 km/h (0 Bft) SO 136 ° 0 min 0,000 mm 0,0 UV-I 0 W/m² 4,9 °C 5,8 °C 0,0 km/h (0 Bft)
09.09.2019 21:55 5,7 °C 94 % 1015,3 hPa 0,0 mm 0,0 km/h (0 Bft) SO 136 ° 0 min 0,000 mm 0,0 UV-I 0 W/m² 4,8 °C 5,7 °C 0,0 km/h (0 Bft)
09.09.2019 21:56 5,6 °C 94 % 1015,3 hPa 0,0 mm 0,0 km/h (0 Bft) SO 136 ° 0 min 0,000 mm 0,0 UV-I 0 W/m² 4,7 °C 5,6 °C 0,0 km/h (0 Bft)
09.09.2019 21:57 5,6 °C 94 % 1015,3 hPa 0,0 mm 0,0 km/h (0 Bft) SO 136 ° 0 min 0,000 mm 0,0 UV-I 0 W/m² 4,7 °C 5,6 °C 0,0 km/h (0 Bft)
09.09.2019 21:58 5,4 °C 94 % 1015,3 hPa 0,0 mm 0,0 km/h (0 Bft) SO 136 ° 0 min 0,000 mm 0,0 UV-I 0 W/m² 4,5 °C 5,4 °C 0,0 km/h (0 Bft)
09.09.2019 21:59 5,5 °C 94 % 1015,3 hPa 0,0 mm 0,0 km/h (0 Bft) SO 136 ° 0 min 0,000 mm 0,0 UV-I 0 W/m² 4,6 °C 5,5 °C 0,0 km/h (0 Bft)
09.09.2019 22:00 5,5 °C 94 % 1015,3 hPa 0,0 mm 0,0 km/h (0 Bft) SO 136 ° 0 min 0,000 mm 0,0 UV-I 0 W/m² 4,6 °C 5,5 °C 0,0 km/h (0 Bft)
09.09.2019 22:01 5,5 °C 94 % 1015,2 hPa 0,0 mm 0,0 km/h (0 Bft) SO 136 ° 0 min 0,000 mm 0,0 UV-I 0 W/m² 4,6 °C 5,5 °C 0,0 km/h (0 Bft)
09.09.2019 22:02 5,6 °C 94 % 1015,3 hPa 0,0 mm 0,0 km/h (0 Bft) SO 136 ° 0 min 0,000 mm 0,0 UV-I 0 W/m² 4,7 °C 5,6 °C 0,0 km/h (0 Bft)
09.09.2019 22:03 5,5 °C 94 % 1015,3 hPa 0,0 mm 0,0 km/h (0 Bft) SO 136 ° 0 min 0,000 mm 0,0 UV-I 0 W/m² 4,6 °C 5,5 °C 0,0 km/h (0 Bft)
09.09.2019 22:04 5,6 °C 95 % 1015,2 hPa 0,0 mm 0,0 km/h (0 Bft) SO 136 ° 0 min 0,000 mm 0,0 UV-I 0 W/m² 4,9 °C 5,6 °C 0,0 km/h (0 Bft)
09.09.2019 22:05 5,6 °C 95 % 1015,2 hPa 0,0 mm 0,0 km/h (0 Bft) SO 136 ° 0 min 0,000 mm 0,0 UV-I 0 W/m² 4,9 °C 5,6 °C 0,0 km/h (0 Bft)
09.09.2019 22:06 5,7 °C 95 % 1015,2 hPa 0,0 mm 0,0 km/h (0 Bft) SO 136 ° 0 min 0,000 mm 0,0 UV-I 0 W/m² 5,0 °C 5,7 °C 0,0 km/h (0 Bft)
09.09.2019 22:07 5,7 °C 95 % 1015,3 hPa 0,0 mm 0,0 km/h (0 Bft) SO 136 ° 0 min 0,000 mm 0,0 UV-I 0 W/m² 5,0 °C 5,7 °C 0,0 km/h (0 Bft)
09.09.2019 22:08 5,8 °C 95 % 1015,3 hPa 0,0 mm 0,0 km/h (0 Bft) SO 136 ° 0 min 0,000 mm 0,0 UV-I 0 W/m² 5,1 °C 5,8 °C 0,0 km/h (0 Bft)
09.09.2019 22:09 5,9 °C 95 % 1015,3 hPa 0,0 mm 0,0 km/h (0 Bft) SO 136 ° 0 min 0,000 mm 0,0 UV-I 0 W/m² 5,2 °C 5,9 °C 0,0 km/h (0 Bft)
09.09.2019 22:10 5,9 °C 95 % 1015,3 hPa 0,0 mm 0,0 km/h (0 Bft) SO 136 ° 0 min 0,000 mm 0,0 UV-I 0 W/m² 5,2 °C 5,9 °C 0,0 km/h (0 Bft)
09.09.2019 22:11 5,8 °C 95 % 1015,3 hPa 0,0 mm 0,0 km/h (0 Bft) SO 136 ° 0 min 0,000 mm 0,0 UV-I 0 W/m² 5,1 °C 5,8 °C 0,0 km/h (0 Bft)
09.09.2019 22:12 5,8 °C 94 % 1015,2 hPa 0,0 mm 0,0 km/h (0 Bft) SO 136 ° 0 min 0,000 mm 0,0 UV-I 0 W/m² 4,9 °C 5,8 °C 0,0 km/h (0 Bft)
09.09.2019 22:13 5,7 °C 94 % 1015,3 hPa 0,0 mm 0,0 km/h (0 Bft) SO 136 ° 0 min 0,000 mm 0,0 UV-I 0 W/m² 4,8 °C 5,7 °C 0,0 km/h (0 Bft)
09.09.2019 22:14 5,7 °C 94 % 1015,3 hPa 0,0 mm 0,0 km/h (0 Bft) SO 136 ° 0 min 0,000 mm 0,0 UV-I 0 W/m² 4,8 °C 5,7 °C 0,0 km/h (0 Bft)
09.09.2019 22:15 5,7 °C 94 % 1015,2 hPa 0,0 mm 0,0 km/h (0 Bft) SO 136 ° 0 min 0,000 mm 0,0 UV-I 0 W/m² 4,8 °C 5,7 °C 0,0 km/h (0 Bft)
09.09.2019 22:16 5,7 °C 94 % 1015,3 hPa 0,0 mm 0,0 km/h (0 Bft) SO 136 ° 0 min 0,000 mm 0,0 UV-I 0 W/m² 4,8 °C 5,7 °C 0,0 km/h (0 Bft)
09.09.2019 22:17 5,6 °C 95 % 1015,2 hPa 0,0 mm 0,0 km/h (0 Bft) SO 136 ° 0 min 0,000 mm 0,0 UV-I 0 W/m² 4,9 °C 5,6 °C 0,0 km/h (0 Bft)
09.09.2019 22:18 5,7 °C 95 % 1015,3 hPa 0,0 mm 0,0 km/h (0 Bft) SO 136 ° 0 min 0,000 mm 0,0 UV-I 0 W/m² 5,0 °C 5,7 °C 0,0 km/h (0 Bft)
09.09.2019 22:19 5,7 °C 95 % 1015,2 hPa 0,0 mm 0,0 km/h (0 Bft) SO 136 ° 0 min 0,000 mm 0,0 UV-I 0 W/m² 5,0 °C 5,7 °C 0,0 km/h (0 Bft)
09.09.2019 22:20 5,7 °C 95 % 1015,3 hPa 0,0 mm 0,0 km/h (0 Bft) SO 136 ° 0 min 0,000 mm 0,0 UV-I 0 W/m² 5,0 °C 5,7 °C 0,0 km/h (0 Bft)
09.09.2019 22:21 5,7 °C 95 % 1015,3 hPa 0,0 mm 0,0 km/h (0 Bft) SO 136 ° 0 min 0,000 mm 0,0 UV-I 0 W/m² 5,0 °C 5,7 °C 0,0 km/h (0 Bft)
09.09.2019 22:22 5,7 °C 95 % 1015,3 hPa 0,0 mm 0,0 km/h (0 Bft) SO 136 ° 0 min 0,000 mm 0,0 UV-I 0 W/m² 5,0 °C 5,7 °C 0,0 km/h (0 Bft)
09.09.2019 22:23 5,7 °C 95 % 1015,3 hPa 0,0 mm 0,0 km/h (0 Bft) SO 136 ° 0 min 0,000 mm 0,0 UV-I 0 W/m² 5,0 °C 5,7 °C 0,0 km/h (0 Bft)
09.09.2019 22:24 5,7 °C 95 % 1015,3 hPa 0,2 mm 0,0 km/h (0 Bft) SO 136 ° 0 min 0,000 mm 0,0 UV-I 0 W/m² 5,0 °C 5,7 °C 0,0 km/h (0 Bft)
09.09.2019 22:25 5,7 °C 95 % 1015,3 hPa 0,0 mm 0,0 km/h (0 Bft) SO 136 ° 0 min 0,000 mm 0,0 UV-I 0 W/m² 5,0 °C 5,7 °C 0,0 km/h (0 Bft)
09.09.2019 22:26 5,7 °C 95 % 1015,3 hPa 0,0 mm 0,0 km/h (0 Bft) SO 136 ° 0 min 0,000 mm 0,0 UV-I 0 W/m² 5,0 °C 5,7 °C 0,0 km/h (0 Bft)
09.09.2019 22:27 5,7 °C 95 % 1015,3 hPa 0,0 mm 0,0 km/h (0 Bft) SO 136 ° 0 min 0,000 mm 0,0 UV-I 0 W/m² 5,0 °C 5,7 °C 0,0 km/h (0 Bft)
09.09.2019 22:28 5,6 °C 95 % 1015,3 hPa 0,0 mm 0,0 km/h (0 Bft) SO 136 ° 0 min 0,000 mm 0,0 UV-I 0 W/m² 4,9 °C 5,6 °C 0,0 km/h (0 Bft)
09.09.2019 22:29 5,6 °C 95 % 1015,3 hPa 0,0 mm 0,0 km/h (0 Bft) SO 136 ° 0 min 0,000 mm 0,0 UV-I 0 W/m² 4,9 °C 5,6 °C 0,0 km/h (0 Bft)
09.09.2019 22:30 5,7 °C 95 % 1015,3 hPa 0,0 mm 0,0 km/h (0 Bft) SO 136 ° 0 min 0,000 mm 0,0 UV-I 0 W/m² 5,0 °C 5,7 °C 0,0 km/h (0 Bft)
09.09.2019 22:31 5,7 °C 95 % 1015,2 hPa 0,0 mm 0,0 km/h (0 Bft) SO 136 ° 0 min 0,000 mm 0,0 UV-I 0 W/m² 5,0 °C 5,7 °C 0,0 km/h (0 Bft)
09.09.2019 22:32 5,7 °C 95 % 1015,2 hPa 0,0 mm 0,0 km/h (0 Bft) SO 136 ° 0 min 0,000 mm 0,0 UV-I 0 W/m² 5,0 °C 5,7 °C 0,0 km/h (0 Bft)
09.09.2019 22:33 5,7 °C 95 % 1015,3 hPa 0,0 mm 0,0 km/h (0 Bft) SO 136 ° 0 min 0,000 mm 0,0 UV-I 0 W/m² 5,0 °C 5,7 °C 0,0 km/h (0 Bft)
09.09.2019 22:34 5,6 °C 95 % 1015,2 hPa 0,0 mm 0,0 km/h (0 Bft) SO 136 ° 0 min 0,000 mm 0,0 UV-I 0 W/m² 4,9 °C 5,6 °C 0,0 km/h (0 Bft)
09.09.2019 22:35 5,6 °C 95 % 1015,2 hPa 0,0 mm 0,0 km/h (0 Bft) SO 136 ° 0 min 0,000 mm 0,0 UV-I 0 W/m² 4,9 °C 5,6 °C 0,0 km/h (0 Bft)
09.09.2019 22:36 5,6 °C 95 % 1015,2 hPa 0,0 mm 0,0 km/h (0 Bft) SO 136 ° 0 min 0,000 mm 0,0 UV-I 0 W/m² 4,9 °C 5,6 °C 0,0 km/h (0 Bft)
09.09.2019 22:37 5,6 °C 95 % 1015,1 hPa 0,0 mm 0,0 km/h (0 Bft) SO 136 ° 0 min 0,000 mm 0,0 UV-I 0 W/m² 4,9 °C 5,6 °C 0,0 km/h (0 Bft)
09.09.2019 22:38 5,6 °C 95 % 1015,2 hPa 0,0 mm 0,0 km/h (0 Bft) SO 136 ° 0 min 0,000 mm 0,0 UV-I 0 W/m² 4,9 °C 5,6 °C 0,0 km/h (0 Bft)
09.09.2019 22:39 5,5 °C 95 % 1015,2 hPa 0,0 mm 0,0 km/h (0 Bft) SO 136 ° 0 min 0,000 mm 0,0 UV-I 0 W/m² 4,8 °C 5,5 °C 0,0 km/h (0 Bft)
09.09.2019 22:40 5,4 °C 95 % 1015,2 hPa 0,0 mm 0,0 km/h (0 Bft) SO 136 ° 0 min 0,000 mm 0,0 UV-I 0 W/m² 4,7 °C 5,4 °C 0,0 km/h (0 Bft)
09.09.2019 22:41 5,4 °C 95 % 1015,2 hPa 0,0 mm 0,0 km/h (0 Bft) SO 136 ° 0 min 0,000 mm 0,0 UV-I 0 W/m² 4,7 °C 5,4 °C 0,0 km/h (0 Bft)
09.09.2019 22:42 5,4 °C 95 % 1015,2 hPa 0,0 mm 0,0 km/h (0 Bft) SO 136 ° 0 min 0,000 mm 0,0 UV-I 0 W/m² 4,7 °C 5,4 °C 0,0 km/h (0 Bft)
09.09.2019 22:43 5,4 °C 95 % 1015,2 hPa 0,0 mm 0,0 km/h (0 Bft) SO 136 ° 0 min 0,000 mm 0,0 UV-I 0 W/m² 4,7 °C 5,4 °C 0,0 km/h (0 Bft)
09.09.2019 22:44 5,4 °C 95 % 1015,3 hPa 0,0 mm 0,0 km/h (0 Bft) SO 136 ° 0 min 0,000 mm 0,0 UV-I 0 W/m² 4,7 °C 5,4 °C 0,0 km/h (0 Bft)
09.09.2019 22:45 5,5 °C 95 % 1015,2 hPa 0,0 mm 0,0 km/h (0 Bft) SO 136 ° 0 min 0,000 mm 0,0 UV-I 0 W/m² 4,8 °C 5,5 °C 0,0 km/h (0 Bft)
09.09.2019 22:46 5,5 °C 95 % 1015,2 hPa 0,0 mm 0,0 km/h (0 Bft) SO 136 ° 0 min 0,000 mm 0,0 UV-I 0 W/m² 4,8 °C 5,5 °C 0,0 km/h (0 Bft)
09.09.2019 22:47 5,4 °C 95 % 1015,2 hPa 0,0 mm 0,0 km/h (0 Bft) SO 136 ° 0 min 0,000 mm 0,0 UV-I 0 W/m² 4,7 °C 5,4 °C 0,0 km/h (0 Bft)
09.09.2019 22:48 5,4 °C 95 % 1015,2 hPa 0,0 mm 0,0 km/h (0 Bft) SO 136 ° 0 min 0,000 mm 0,0 UV-I 0 W/m² 4,7 °C 5,4 °C 0,0 km/h (0 Bft)
09.09.2019 22:49 5,4 °C 95 % 1015,2 hPa 0,0 mm 0,0 km/h (0 Bft) SO 136 ° 0 min 0,000 mm 0,0 UV-I 0 W/m² 4,7 °C 5,4 °C 0,0 km/h (0 Bft)
09.09.2019 22:50 5,4 °C 95 % 1015,2 hPa 0,0 mm 0,0 km/h (0 Bft) SO 136 ° 0 min 0,000 mm 0,0 UV-I 0 W/m² 4,7 °C 5,4 °C 0,0 km/h (0 Bft)
09.09.2019 22:51 5,4 °C 95 % 1015,2 hPa 0,0 mm 0,0 km/h (0 Bft) SO 136 ° 0 min 0,000 mm 0,0 UV-I 0 W/m² 4,7 °C 5,4 °C 0,0 km/h (0 Bft)
09.09.2019 22:52 5,3 °C 95 % 1015,2 hPa 0,0 mm 0,0 km/h (0 Bft) SO 136 ° 0 min 0,000 mm 0,0 UV-I 0 W/m² 4,6 °C 5,3 °C 0,0 km/h (0 Bft)
09.09.2019 22:53 5,3 °C 95 % 1015,2 hPa 0,0 mm 0,0 km/h (0 Bft) SO 136 ° 0 min 0,000 mm 0,0 UV-I 0 W/m² 4,6 °C 5,3 °C 0,0 km/h (0 Bft)
09.09.2019 22:54 5,4 °C 95 % 1015,2 hPa 0,0 mm 0,0 km/h (0 Bft) SO 136 ° 0 min 0,000 mm 0,0 UV-I 0 W/m² 4,7 °C 5,4 °C 0,0 km/h (0 Bft)
09.09.2019 22:55 5,4 °C 95 % 1015,2 hPa 0,0 mm 0,0 km/h (0 Bft) SO 136 ° 0 min 0,000 mm 0,0 UV-I 0 W/m² 4,7 °C 5,4 °C 0,0 km/h (0 Bft)
09.09.2019 22:56 5,3 °C 95 % 1015,2 hPa 0,0 mm 0,0 km/h (0 Bft) SO 136 ° 0 min 0,000 mm 0,0 UV-I 0 W/m² 4,6 °C 5,3 °C 0,0 km/h (0 Bft)
09.09.2019 22:57 5,3 °C 95 % 1015,2 hPa 0,0 mm 0,0 km/h (0 Bft) SO 136 ° 0 min 0,000 mm 0,0 UV-I 0 W/m² 4,6 °C 5,3 °C 0,0 km/h (0 Bft)
09.09.2019 22:58 5,3 °C 95 % 1015,3 hPa 0,0 mm 0,0 km/h (0 Bft) SO 136 ° 0 min 0,000 mm 0,0 UV-I 0 W/m² 4,6 °C 5,3 °C 0,0 km/h (0 Bft)
09.09.2019 22:59 5,3 °C 95 % 1015,3 hPa 0,0 mm 0,0 km/h (0 Bft) SO 136 ° 0 min 0,000 mm 0,0 UV-I 0 W/m² 4,6 °C 5,3 °C 0,0 km/h (0 Bft)
09.09.2019 23:00 5,3 °C 95 % 1015,3 hPa 0,0 mm 0,0 km/h (0 Bft) SO 136 ° 0 min 0,000 mm 0,0 UV-I 0 W/m² 4,6 °C 5,3 °C 0,0 km/h (0 Bft)
09.09.2019 23:01 5,3 °C 95 % 1015,3 hPa 0,0 mm 0,0 km/h (0 Bft) SO 136 ° 0 min 0,000 mm 0,0 UV-I 0 W/m² 4,6 °C 5,3 °C 0,0 km/h (0 Bft)
09.09.2019 23:02 5,3 °C 95 % 1015,3 hPa 0,0 mm 0,0 km/h (0 Bft) SO 136 ° 0 min 0,000 mm 0,0 UV-I 0 W/m² 4,6 °C 5,3 °C 0,0 km/h (0 Bft)
09.09.2019 23:03 5,4 °C 95 % 1015,4 hPa 0,0 mm 0,0 km/h (0 Bft) SO 136 ° 0 min 0,000 mm 0,0 UV-I 0 W/m² 4,7 °C 5,4 °C 0,0 km/h (0 Bft)
09.09.2019 23:04 5,4 °C 95 % 1015,3 hPa 0,0 mm 0,0 km/h (0 Bft) SO 136 ° 0 min 0,000 mm 0,0 UV-I 0 W/m² 4,7 °C 5,4 °C 0,0 km/h (0 Bft)
09.09.2019 23:05 5,3 °C 95 % 1015,4 hPa 0,0 mm 0,0 km/h (0 Bft) SO 136 ° 0 min 0,000 mm 0,0 UV-I 0 W/m² 4,6 °C 5,3 °C 0,0 km/h (0 Bft)
09.09.2019 23:06 5,3 °C 95 % 1015,4 hPa 0,0 mm 0,0 km/h (0 Bft) SO 136 ° 0 min 0,000 mm 0,0 UV-I 0 W/m² 4,6 °C 5,3 °C 0,0 km/h (0 Bft)
09.09.2019 23:07 5,4 °C 95 % 1015,4 hPa 0,0 mm 0,0 km/h (0 Bft) SO 136 ° 0 min 0,000 mm 0,0 UV-I 0 W/m² 4,7 °C 5,4 °C 0,0 km/h (0 Bft)
09.09.2019 23:08 5,4 °C 95 % 1015,3 hPa 0,0 mm 0,0 km/h (0 Bft) SO 136 ° 0 min 0,000 mm 0,0 UV-I 0 W/m² 4,7 °C 5,4 °C 0,0 km/h (0 Bft)
09.09.2019 23:09 5,5 °C 95 % 1015,4 hPa 0,0 mm 0,0 km/h (0 Bft) SO 136 ° 0 min 0,000 mm 0,0 UV-I 0 W/m² 4,8 °C 5,5 °C 0,0 km/h (0 Bft)
09.09.2019 23:10 5,6 °C 95 % 1015,4 hPa 0,0 mm 0,0 km/h (0 Bft) SO 136 ° 0 min 0,000 mm 0,0 UV-I 0 W/m² 4,9 °C 5,6 °C 0,0 km/h (0 Bft)
09.09.2019 23:11 5,6 °C 95 % 1015,3 hPa 0,0 mm 0,0 km/h (0 Bft) SO 136 ° 0 min 0,000 mm 0,0 UV-I 0 W/m² 4,9 °C 5,6 °C 0,0 km/h (0 Bft)
09.09.2019 23:12 5,6 °C 95 % 1015,4 hPa 0,0 mm 0,0 km/h (0 Bft) SO 136 ° 0 min 0,000 mm 0,0 UV-I 0 W/m² 4,9 °C 5,6 °C 0,0 km/h (0 Bft)
09.09.2019 23:13 5,6 °C 95 % 1015,4 hPa 0,0 mm 0,0 km/h (0 Bft) SO 136 ° 0 min 0,000 mm 0,0 UV-I 0 W/m² 4,9 °C 5,6 °C 0,0 km/h (0 Bft)
09.09.2019 23:14 5,6 °C 95 % 1015,3 hPa 0,0 mm 0,0 km/h (0 Bft) SO 136 ° 0 min 0,000 mm 0,0 UV-I 0 W/m² 4,9 °C 5,6 °C 0,0 km/h (0 Bft)
09.09.2019 23:15 5,6 °C 95 % 1015,4 hPa 0,0 mm 0,0 km/h (0 Bft) SO 136 ° 0 min 0,000 mm 0,0 UV-I 0 W/m² 4,9 °C 5,6 °C 0,0 km/h (0 Bft)
09.09.2019 23:16 5,6 °C 95 % 1015,4 hPa 0,0 mm 0,0 km/h (0 Bft) SO 136 ° 0 min 0,000 mm 0,0 UV-I 0 W/m² 4,9 °C 5,6 °C 0,0 km/h (0 Bft)
09.09.2019 23:17 5,6 °C 95 % 1015,4 hPa 0,0 mm 0,0 km/h (0 Bft) SO 136 ° 0 min 0,000 mm 0,0 UV-I 0 W/m² 4,9 °C 5,6 °C 0,0 km/h (0 Bft)
09.09.2019 23:18 5,6 °C 95 % 1015,4 hPa 0,0 mm 0,0 km/h (0 Bft) SO 136 ° 0 min 0,000 mm 0,0 UV-I 0 W/m² 4,9 °C 5,6 °C 0,0 km/h (0 Bft)
09.09.2019 23:19 5,6 °C 95 % 1015,4 hPa 0,0 mm 0,0 km/h (0 Bft) SO 136 ° 0 min 0,000 mm 0,0 UV-I 0 W/m² 4,9 °C 5,6 °C 0,0 km/h (0 Bft)
09.09.2019 23:20 5,6 °C 95 % 1015,4 hPa 0,0 mm 0,0 km/h (0 Bft) SO 136 ° 0 min 0,000 mm 0,0 UV-I 0 W/m² 4,9 °C 5,6 °C 0,0 km/h (0 Bft)
09.09.2019 23:21 5,6 °C 95 % 1015,4 hPa 0,0 mm 0,0 km/h (0 Bft) SO 136 ° 0 min 0,000 mm 0,0 UV-I 0 W/m² 4,9 °C 5,6 °C 0,0 km/h (0 Bft)
09.09.2019 23:22 5,6 °C 95 % 1015,4 hPa 0,0 mm 0,0 km/h (0 Bft) SO 136 ° 0 min 0,000 mm 0,0 UV-I 0 W/m² 4,9 °C 5,6 °C 0,0 km/h (0 Bft)
09.09.2019 23:23 5,6 °C 95 % 1015,4 hPa 0,2 mm 0,0 km/h (0 Bft) SO 136 ° 0 min 0,000 mm 0,0 UV-I 0 W/m² 4,9 °C 5,6 °C 0,0 km/h (0 Bft)
09.09.2019 23:24 5,5 °C 95 % 1015,4 hPa 0,0 mm 0,0 km/h (0 Bft) SO 136 ° 0 min 0,000 mm 0,0 UV-I 0 W/m² 4,8 °C 5,5 °C 0,0 km/h (0 Bft)
09.09.2019 23:25 5,6 °C 95 % 1015,4 hPa 0,0 mm 0,0 km/h (0 Bft) SO 136 ° 0 min 0,000 mm 0,0 UV-I 0 W/m² 4,9 °C 5,6 °C 0,0 km/h (0 Bft)
09.09.2019 23:26 5,5 °C 95 % 1015,4 hPa 0,0 mm 0,0 km/h (0 Bft) SO 136 ° 0 min 0,000 mm 0,0 UV-I 0 W/m² 4,8 °C 5,5 °C 0,0 km/h (0 Bft)
09.09.2019 23:27 5,4 °C 95 % 1015,4 hPa 0,0 mm 0,0 km/h (0 Bft) SO 136 ° 0 min 0,000 mm 0,0 UV-I 0 W/m² 4,7 °C 5,4 °C 0,0 km/h (0 Bft)
09.09.2019 23:28 5,4 °C 95 % 1015,4 hPa 0,0 mm 0,0 km/h (0 Bft) SO 136 ° 0 min 0,000 mm 0,0 UV-I 0 W/m² 4,7 °C 5,4 °C 0,0 km/h (0 Bft)
09.09.2019 23:29 5,3 °C 95 % 1015,4 hPa 0,0 mm 0,0 km/h (0 Bft) SO 136 ° 0 min 0,000 mm 0,0 UV-I 0 W/m² 4,6 °C 5,3 °C 0,0 km/h (0 Bft)
09.09.2019 23:30 5,3 °C 95 % 1015,4 hPa 0,0 mm 0,0 km/h (0 Bft) SO 136 ° 0 min 0,000 mm 0,0 UV-I 0 W/m² 4,6 °C 5,3 °C 0,0 km/h (0 Bft)
09.09.2019 23:31 5,2 °C 95 % 1015,4 hPa 0,0 mm 0,0 km/h (0 Bft) SO 136 ° 0 min 0,000 mm 0,0 UV-I 0 W/m² 4,5 °C 5,2 °C 0,0 km/h (0 Bft)
09.09.2019 23:32 5,2 °C 95 % 1015,4 hPa 0,0 mm 0,0 km/h (0 Bft) SO 136 ° 0 min 0,000 mm 0,0 UV-I 0 W/m² 4,5 °C 5,2 °C 0,0 km/h (0 Bft)
09.09.2019 23:33 5,2 °C 95 % 1015,4 hPa 0,0 mm 0,0 km/h (0 Bft) SO 136 ° 0 min 0,000 mm 0,0 UV-I 0 W/m² 4,5 °C 5,2 °C 0,0 km/h (0 Bft)
09.09.2019 23:34 5,2 °C 95 % 1015,4 hPa 0,0 mm 0,0 km/h (0 Bft) SO 136 ° 0 min 0,000 mm 0,0 UV-I 0 W/m² 4,5 °C 5,2 °C 0,0 km/h (0 Bft)
09.09.2019 23:35 5,2 °C 95 % 1015,4 hPa 0,0 mm 0,0 km/h (0 Bft) SO 136 ° 0 min 0,000 mm 0,0 UV-I 0 W/m² 4,5 °C 5,2 °C 0,0 km/h (0 Bft)
09.09.2019 23:36 5,2 °C 95 % 1015,4 hPa 0,0 mm 0,0 km/h (0 Bft) SO 136 ° 0 min 0,000 mm 0,0 UV-I 0 W/m² 4,5 °C 5,2 °C 0,0 km/h (0 Bft)
09.09.2019 23:37 5,2 °C 95 % 1015,4 hPa 0,0 mm 0,0 km/h (0 Bft) SO 136 ° 0 min 0,000 mm 0,0 UV-I 0 W/m² 4,5 °C 5,2 °C 0,0 km/h (0 Bft)
09.09.2019 23:38 5,2 °C 95 % 1015,4 hPa 0,0 mm 0,0 km/h (0 Bft) SO 136 ° 0 min 0,000 mm 0,0 UV-I 0 W/m² 4,5 °C 5,2 °C 0,0 km/h (0 Bft)
09.09.2019 23:39 5,3 °C 95 % 1015,4 hPa 0,0 mm 0,0 km/h (0 Bft) SO 136 ° 0 min 0,000 mm 0,0 UV-I 0 W/m² 4,6 °C 5,3 °C 0,0 km/h (0 Bft)
09.09.2019 23:40 5,3 °C 95 % 1015,4 hPa 0,0 mm 0,0 km/h (0 Bft) SO 136 ° 0 min 0,000 mm 0,0 UV-I 0 W/m² 4,6 °C 5,3 °C 0,0 km/h (0 Bft)
09.09.2019 23:41 5,2 °C 95 % 1015,4 hPa 0,0 mm 0,0 km/h (0 Bft) SO 136 ° 0 min 0,000 mm 0,0 UV-I 0 W/m² 4,5 °C 5,2 °C 0,0 km/h (0 Bft)
09.09.2019 23:42 5,3 °C 95 % 1015,4 hPa 0,0 mm 0,0 km/h (0 Bft) SO 136 ° 0 min 0,000 mm 0,0 UV-I 0 W/m² 4,6 °C 5,3 °C 0,0 km/h (0 Bft)
09.09.2019 23:43 5,3 °C 95 % 1015,4 hPa 0,0 mm 0,0 km/h (0 Bft) SO 136 ° 0 min 0,000 mm 0,0 UV-I 0 W/m² 4,6 °C 5,3 °C 0,0 km/h (0 Bft)
09.09.2019 23:44 5,3 °C 95 % 1015,4 hPa 0,0 mm 0,0 km/h (0 Bft) SO 136 ° 0 min 0,000 mm 0,0 UV-I 0 W/m² 4,6 °C 5,3 °C 0,0 km/h (0 Bft)
09.09.2019 23:45 5,3 °C 95 % 1015,4 hPa 0,0 mm 0,0 km/h (0 Bft) SO 136 ° 0 min 0,000 mm 0,0 UV-I 0 W/m² 4,6 °C 5,3 °C 0,0 km/h (0 Bft)
09.09.2019 23:46 5,3 °C 95 % 1015,4 hPa 0,0 mm 0,0 km/h (0 Bft) SO 136 ° 0 min 0,000 mm 0,0 UV-I 0 W/m² 4,6 °C 5,3 °C 0,0 km/h (0 Bft)
09.09.2019 23:47 5,3 °C 95 % 1015,4 hPa 0,0 mm 0,0 km/h (0 Bft) SO 136 ° 0 min 0,000 mm 0,0 UV-I 0 W/m² 4,6 °C 5,3 °C 0,0 km/h (0 Bft)
09.09.2019 23:48 5,3 °C 95 % 1015,4 hPa 0,0 mm 0,0 km/h (0 Bft) SO 136 ° 0 min 0,000 mm 0,0 UV-I 0 W/m² 4,6 °C 5,3 °C 0,0 km/h (0 Bft)
09.09.2019 23:49 5,3 °C 95 % 1015,3 hPa 0,0 mm 0,0 km/h (0 Bft) SO 136 ° 0 min 0,000 mm 0,0 UV-I 0 W/m² 4,6 °C 5,3 °C 0,0 km/h (0 Bft)
09.09.2019 23:50 5,3 °C 95 % 1015,4 hPa 0,0 mm 0,0 km/h (0 Bft) SO 136 ° 0 min 0,000 mm 0,0 UV-I 0 W/m² 4,6 °C 5,3 °C 0,0 km/h (0 Bft)
09.09.2019 23:51 5,3 °C 95 % 1015,3 hPa 0,0 mm 0,0 km/h (0 Bft) SO 136 ° 0 min 0,000 mm 0,0 UV-I 0 W/m² 4,6 °C 5,3 °C 0,0 km/h (0 Bft)
09.09.2019 23:52 5,3 °C 95 % 1015,4 hPa 0,0 mm 0,0 km/h (0 Bft) SO 136 ° 0 min 0,000 mm 0,0 UV-I 0 W/m² 4,6 °C 5,3 °C 0,0 km/h (0 Bft)
09.09.2019 23:53 5,4 °C 95 % 1015,3 hPa 0,0 mm 0,0 km/h (0 Bft) SO 136 ° 0 min 0,000 mm 0,0 UV-I 0 W/m² 4,7 °C 5,4 °C 0,0 km/h (0 Bft)
09.09.2019 23:54 5,4 °C 95 % 1015,4 hPa 0,0 mm 0,0 km/h (0 Bft) SO 136 ° 0 min 0,000 mm 0,0 UV-I 0 W/m² 4,7 °C 5,4 °C 0,0 km/h (0 Bft)
09.09.2019 23:55 5,4 °C 95 % 1015,4 hPa 0,0 mm 0,0 km/h (0 Bft) SO 136 ° 0 min 0,000 mm 0,0 UV-I 0 W/m² 4,7 °C 5,4 °C 0,0 km/h (0 Bft)
09.09.2019 23:56 5,4 °C 95 % 1015,3 hPa 0,0 mm 0,0 km/h (0 Bft) SO 136 ° 0 min 0,000 mm 0,0 UV-I 0 W/m² 4,7 °C 5,4 °C 0,0 km/h (0 Bft)
09.09.2019 23:57 5,4 °C 95 % 1015,4 hPa 0,0 mm 0,0 km/h (0 Bft) SO 136 ° 0 min 0,000 mm 0,0 UV-I 0 W/m² 4,7 °C 5,4 °C 0,0 km/h (0 Bft)
09.09.2019 23:58 5,4 °C 95 % 1015,3 hPa 0,0 mm 0,0 km/h (0 Bft) SO 136 ° 0 min 0,000 mm 0,0 UV-I 0 W/m² 4,7 °C 5,4 °C 0,0 km/h (0 Bft)
09.09.2019 23:59 5,4 °C 95 % 1015,3 hPa 0,0 mm 0,0 km/h (0 Bft) SO 136 ° 0 min 0,000 mm 0,0 UV-I 0 W/m² 4,7 °C 5,4 °C 0,0 km/h (0 Bft)
_ Min-Zeit 23:41 18:52 05:17 - 23:59 - - - - - - 23:41 07:46 23:59
Minimum _ 5,2 °C 77 % 1013,9 hPa - 0,0 km/h (0 Bft) - - - - - - 4,5 °C 4,7 °C 0,0 km/h (0 Bft)
_ Max-Zeit 16:43 23:59 14:21 23:23 12:34 - - 15:45 16:01 13:22 14:59 14:58 16:43 13:33
Maximum _ 12,3 °C 95 % 1015,7 hPa 0,2 mm 18,5 km/h
W (3 Bft)
- - 1 min 0,254 mm 5,1 UV-I 772 W/m² 9,4 °C 12,3 °C 25,7 km/h
W-SW (4 Bft)
Durchschnitt _ 8,3 °C 91 % 1014,8 hPa #5,0 mm 3,9 km/h (1 Bft) W - #46 min. #1,168 mm 1,9 UV-I 97 W/m² 6,9 °C 8,0 °C 6,7 km/h (2 Bft)